<?xml version="1.0" encoding="UTF-8" standalone="no" ?>
<gpx xmlns="http://www.topografix.com/GPX/1/1" xmlns:xsi="http://www.w3.org/2001/XMLSchema-instance" xsi:schemaLocation="http://www.topografix.com/GPX/1/1 http://www.topografix.com/GPX/1/1/gpx.xsd" version="1.1" creator="VisuGPX - https://www.visugpx.com">
  <metadata>
    <name>4x4 Jour 1</name>
  </metadata>
  <wpt lat="42.36368" lon="2.84007">
    <ele>180.9</ele>
  </wpt>
  <wpt lat="42.36397" lon="2.83975">
    <ele>185.2</ele>
  </wpt>
  <wpt lat="42.36387" lon="2.83877">
    <ele>193</ele>
  </wpt>
  <wpt lat="42.36443" lon="2.83943">
    <ele>186.6</ele>
  </wpt>
  <trk>
    <name><![CDATA[4x4 Jour 1_1]]></name>
    <trkseg>
      <trkpt lat="42.27138" lon="2.52882">
        <ele>398.56</ele>
        <time>2021-07-30T19:02:22Z</time>
      </trkpt>
      <trkpt lat="42.27137" lon="2.52879">
        <ele>398.29</ele>
        <time>2021-07-30T19:02:12Z</time>
      </trkpt>
      <trkpt lat="42.27142" lon="2.52872">
        <ele>398.15</ele>
        <time>2021-07-30T19:01:57Z</time>
      </trkpt>
      <trkpt lat="42.27146" lon="2.52869">
        <ele>398.06</ele>
        <time>2021-07-30T19:01:53Z</time>
      </trkpt>
      <trkpt lat="42.27136" lon="2.52873">
        <ele>396.96</ele>
        <time>2021-07-30T19:01:42Z</time>
      </trkpt>
      <trkpt lat="42.2713" lon="2.52856">
        <ele>395.95</ele>
        <time>2021-07-30T19:01:34Z</time>
      </trkpt>
      <trkpt lat="42.27123" lon="2.52834">
        <ele>394.2</ele>
        <time>2021-07-30T19:01:21Z</time>
      </trkpt>
      <trkpt lat="42.27121" lon="2.5283">
        <ele>394.08</ele>
        <time>2021-07-30T19:01:20Z</time>
      </trkpt>
      <trkpt lat="42.2712" lon="2.52826">
        <ele>393.99</ele>
        <time>2021-07-30T19:01:19Z</time>
      </trkpt>
      <trkpt lat="42.27118" lon="2.52822">
        <ele>393.88</ele>
        <time>2021-07-30T19:01:18Z</time>
      </trkpt>
      <trkpt lat="42.27115" lon="2.52819">
        <ele>393.76</ele>
        <time>2021-07-30T19:01:17Z</time>
      </trkpt>
      <trkpt lat="42.27113" lon="2.52817">
        <ele>393.68</ele>
        <time>2021-07-30T19:01:16Z</time>
      </trkpt>
      <trkpt lat="42.2711" lon="2.52815">
        <ele>393.63</ele>
        <time>2021-07-30T19:01:15Z</time>
      </trkpt>
      <trkpt lat="42.27108" lon="2.52815">
        <ele>393.58</ele>
        <time>2021-07-30T19:01:14Z</time>
      </trkpt>
      <trkpt lat="42.27106" lon="2.52816">
        <ele>393.55</ele>
        <time>2021-07-30T19:01:13Z</time>
      </trkpt>
      <trkpt lat="42.27103" lon="2.52822">
        <ele>393.53</ele>
        <time>2021-07-30T19:01:11Z</time>
      </trkpt>
      <trkpt lat="42.27106" lon="2.52834">
        <ele>393.47</ele>
        <time>2021-07-30T19:01:07Z</time>
      </trkpt>
      <trkpt lat="42.27106" lon="2.52835">
        <ele>393.46</ele>
        <time>2021-07-30T19:01:06Z</time>
      </trkpt>
      <trkpt lat="42.27105" lon="2.5283">
        <ele>393.62</ele>
        <time>2021-07-30T19:00:50Z</time>
      </trkpt>
      <trkpt lat="42.27103" lon="2.52817">
        <ele>393.88</ele>
        <time>2021-07-30T19:00:45Z</time>
      </trkpt>
      <trkpt lat="42.27104" lon="2.52814">
        <ele>393.91</ele>
        <time>2021-07-30T19:00:44Z</time>
      </trkpt>
      <trkpt lat="42.27105" lon="2.52812">
        <ele>393.92</ele>
        <time>2021-07-30T19:00:43Z</time>
      </trkpt>
      <trkpt lat="42.27107" lon="2.52811">
        <ele>393.94</ele>
        <time>2021-07-30T19:00:42Z</time>
      </trkpt>
      <trkpt lat="42.2711" lon="2.5281">
        <ele>393.94</ele>
        <time>2021-07-30T19:00:41Z</time>
      </trkpt>
      <trkpt lat="42.27111" lon="2.5281">
        <ele>393.93</ele>
        <time>2021-07-30T19:00:40Z</time>
      </trkpt>
      <trkpt lat="42.27113" lon="2.52811">
        <ele>393.92</ele>
        <time>2021-07-30T19:00:39Z</time>
      </trkpt>
      <trkpt lat="42.27117" lon="2.52815">
        <ele>393.9</ele>
        <time>2021-07-30T19:00:37Z</time>
      </trkpt>
      <trkpt lat="42.27119" lon="2.52817">
        <ele>393.86</ele>
        <time>2021-07-30T19:00:36Z</time>
      </trkpt>
      <trkpt lat="42.2712" lon="2.52819">
        <ele>393.79</ele>
        <time>2021-07-30T19:00:35Z</time>
      </trkpt>
      <trkpt lat="42.27121" lon="2.52821">
        <ele>393.7</ele>
        <time>2021-07-30T19:00:34Z</time>
      </trkpt>
      <trkpt lat="42.27121" lon="2.52817">
        <ele>392.67</ele>
        <time>2021-07-30T19:00:27Z</time>
      </trkpt>
      <trkpt lat="42.2712" lon="2.52815">
        <ele>392.5</ele>
        <time>2021-07-30T19:00:26Z</time>
      </trkpt>
      <trkpt lat="42.27119" lon="2.52812">
        <ele>392.34</ele>
        <time>2021-07-30T19:00:25Z</time>
      </trkpt>
      <trkpt lat="42.27116" lon="2.52809">
        <ele>392.13</ele>
        <time>2021-07-30T19:00:24Z</time>
      </trkpt>
      <trkpt lat="42.27111" lon="2.52805">
        <ele>391.85</ele>
        <time>2021-07-30T19:00:23Z</time>
      </trkpt>
      <trkpt lat="42.2709" lon="2.52801">
        <ele>390.75</ele>
        <time>2021-07-30T19:00:19Z</time>
      </trkpt>
      <trkpt lat="42.27028" lon="2.52808">
        <ele>387.9</ele>
        <time>2021-07-30T19:00:11Z</time>
      </trkpt>
      <trkpt lat="42.27017" lon="2.52814">
        <ele>387.48</ele>
        <time>2021-07-30T19:00:10Z</time>
      </trkpt>
      <trkpt lat="42.26923" lon="2.52911">
        <ele>389.18</ele>
        <time>2021-07-30T18:59:59Z</time>
      </trkpt>
      <trkpt lat="42.26917" lon="2.52919">
        <ele>389.82</ele>
        <time>2021-07-30T18:59:58Z</time>
      </trkpt>
      <trkpt lat="42.26915" lon="2.52969">
        <ele>393.66</ele>
        <time>2021-07-30T18:59:53Z</time>
      </trkpt>
      <trkpt lat="42.2694" lon="2.53006">
        <ele>396.48</ele>
        <time>2021-07-30T18:59:50Z</time>
      </trkpt>
      <trkpt lat="42.2695" lon="2.53021">
        <ele>397.41</ele>
        <time>2021-07-30T18:59:49Z</time>
      </trkpt>
      <trkpt lat="42.26967" lon="2.53095">
        <ele>401.56</ele>
        <time>2021-07-30T18:59:45Z</time>
      </trkpt>
      <trkpt lat="42.26966" lon="2.53116">
        <ele>402.57</ele>
        <time>2021-07-30T18:59:44Z</time>
      </trkpt>
      <trkpt lat="42.26945" lon="2.53248">
        <ele>407.05</ele>
        <time>2021-07-30T18:59:38Z</time>
      </trkpt>
      <trkpt lat="42.2694" lon="2.53268">
        <ele>407.9</ele>
        <time>2021-07-30T18:59:37Z</time>
      </trkpt>
      <trkpt lat="42.26896" lon="2.53331">
        <ele>412.36</ele>
        <time>2021-07-30T18:59:32Z</time>
      </trkpt>
      <trkpt lat="42.26869" lon="2.53336">
        <ele>414.18</ele>
        <time>2021-07-30T18:59:30Z</time>
      </trkpt>
      <trkpt lat="42.26813" lon="2.53338">
        <ele>418.36</ele>
        <time>2021-07-30T18:59:26Z</time>
      </trkpt>
      <trkpt lat="42.26768" lon="2.53359">
        <ele>420.15</ele>
        <time>2021-07-30T18:59:23Z</time>
      </trkpt>
      <trkpt lat="42.26705" lon="2.53372">
        <ele>423.03</ele>
        <time>2021-07-30T18:59:19Z</time>
      </trkpt>
      <trkpt lat="42.2666" lon="2.53362">
        <ele>425.57</ele>
        <time>2021-07-30T18:59:16Z</time>
      </trkpt>
      <trkpt lat="42.26589" lon="2.53345">
        <ele>430.12</ele>
        <time>2021-07-30T18:59:11Z</time>
      </trkpt>
      <trkpt lat="42.26532" lon="2.53363">
        <ele>433.44</ele>
        <time>2021-07-30T18:59:07Z</time>
      </trkpt>
      <trkpt lat="42.26487" lon="2.53363">
        <ele>436.39</ele>
        <time>2021-07-30T18:59:04Z</time>
      </trkpt>
      <trkpt lat="42.26439" lon="2.53311">
        <ele>440.72</ele>
        <time>2021-07-30T18:58:59Z</time>
      </trkpt>
      <trkpt lat="42.26435" lon="2.53293">
        <ele>441.41</ele>
        <time>2021-07-30T18:58:58Z</time>
      </trkpt>
      <trkpt lat="42.26403" lon="2.53081">
        <ele>445.08</ele>
        <time>2021-07-30T18:58:49Z</time>
      </trkpt>
      <trkpt lat="42.264" lon="2.53061">
        <ele>445.55</ele>
        <time>2021-07-30T18:58:48Z</time>
      </trkpt>
      <trkpt lat="42.26377" lon="2.53013">
        <ele>448.05</ele>
        <time>2021-07-30T18:58:44Z</time>
      </trkpt>
      <trkpt lat="42.26349" lon="2.5305">
        <ele>452.2</ele>
        <time>2021-07-30T18:58:39Z</time>
      </trkpt>
      <trkpt lat="42.26343" lon="2.53151">
        <ele>455.58</ele>
        <time>2021-07-30T18:58:34Z</time>
      </trkpt>
      <trkpt lat="42.26328" lon="2.53206">
        <ele>457.31</ele>
        <time>2021-07-30T18:58:31Z</time>
      </trkpt>
      <trkpt lat="42.26256" lon="2.53255">
        <ele>461.99</ele>
        <time>2021-07-30T18:58:24Z</time>
      </trkpt>
      <trkpt lat="42.2622" lon="2.5328">
        <ele>466.69</ele>
        <time>2021-07-30T18:58:19Z</time>
      </trkpt>
      <trkpt lat="42.2619" lon="2.53334">
        <ele>470.36</ele>
        <time>2021-07-30T18:58:15Z</time>
      </trkpt>
      <trkpt lat="42.26166" lon="2.53353">
        <ele>472.11</ele>
        <time>2021-07-30T18:58:13Z</time>
      </trkpt>
      <trkpt lat="42.26116" lon="2.53384">
        <ele>475.51</ele>
        <time>2021-07-30T18:58:09Z</time>
      </trkpt>
      <trkpt lat="42.26056" lon="2.53438">
        <ele>478.88</ele>
        <time>2021-07-30T18:58:04Z</time>
      </trkpt>
      <trkpt lat="42.26009" lon="2.53491">
        <ele>481.98</ele>
        <time>2021-07-30T18:57:59Z</time>
      </trkpt>
      <trkpt lat="42.25963" lon="2.53538">
        <ele>486.35</ele>
        <time>2021-07-30T18:57:53Z</time>
      </trkpt>
      <trkpt lat="42.25923" lon="2.53603">
        <ele>487.85</ele>
        <time>2021-07-30T18:57:48Z</time>
      </trkpt>
      <trkpt lat="42.25913" lon="2.53613">
        <ele>487.78</ele>
        <time>2021-07-30T18:57:47Z</time>
      </trkpt>
      <trkpt lat="42.25888" lon="2.53693">
        <ele>485.17</ele>
        <time>2021-07-30T18:57:42Z</time>
      </trkpt>
      <trkpt lat="42.25846" lon="2.53722">
        <ele>481.92</ele>
        <time>2021-07-30T18:57:37Z</time>
      </trkpt>
      <trkpt lat="42.25789" lon="2.53708">
        <ele>479.25</ele>
        <time>2021-07-30T18:57:33Z</time>
      </trkpt>
      <trkpt lat="42.25776" lon="2.53705">
        <ele>478.58</ele>
        <time>2021-07-30T18:57:32Z</time>
      </trkpt>
      <trkpt lat="42.25708" lon="2.53706">
        <ele>474.69</ele>
        <time>2021-07-30T18:57:26Z</time>
      </trkpt>
      <trkpt lat="42.25659" lon="2.53687">
        <ele>471.82</ele>
        <time>2021-07-30T18:57:22Z</time>
      </trkpt>
      <trkpt lat="42.25602" lon="2.53662">
        <ele>468.28</ele>
        <time>2021-07-30T18:57:17Z</time>
      </trkpt>
      <trkpt lat="42.25579" lon="2.53614">
        <ele>465.62</ele>
        <time>2021-07-30T18:57:13Z</time>
      </trkpt>
      <trkpt lat="42.25579" lon="2.53516">
        <ele>461.57</ele>
        <time>2021-07-30T18:57:07Z</time>
      </trkpt>
      <trkpt lat="42.25596" lon="2.53468">
        <ele>459.89</ele>
        <time>2021-07-30T18:57:04Z</time>
      </trkpt>
      <trkpt lat="42.25616" lon="2.53399">
        <ele>457.87</ele>
        <time>2021-07-30T18:57:00Z</time>
      </trkpt>
      <trkpt lat="42.25647" lon="2.53357">
        <ele>456.56</ele>
        <time>2021-07-30T18:56:57Z</time>
      </trkpt>
      <trkpt lat="42.25679" lon="2.53323">
        <ele>455.32</ele>
        <time>2021-07-30T18:56:54Z</time>
      </trkpt>
      <trkpt lat="42.25735" lon="2.53293">
        <ele>453.59</ele>
        <time>2021-07-30T18:56:50Z</time>
      </trkpt>
      <trkpt lat="42.25682" lon="2.53264">
        <ele>449.68</ele>
        <time>2021-07-30T18:56:43Z</time>
      </trkpt>
      <trkpt lat="42.25603" lon="2.53304">
        <ele>445.67</ele>
        <time>2021-07-30T18:56:37Z</time>
      </trkpt>
      <trkpt lat="42.2555" lon="2.53297">
        <ele>443.63</ele>
        <time>2021-07-30T18:56:32Z</time>
      </trkpt>
      <trkpt lat="42.25523" lon="2.53257">
        <ele>442.16</ele>
        <time>2021-07-30T18:56:29Z</time>
      </trkpt>
      <trkpt lat="42.25502" lon="2.53215">
        <ele>440.52</ele>
        <time>2021-07-30T18:56:26Z</time>
      </trkpt>
      <trkpt lat="42.25469" lon="2.532">
        <ele>438.83</ele>
        <time>2021-07-30T18:56:22Z</time>
      </trkpt>
      <trkpt lat="42.25467" lon="2.53265">
        <ele>435.96</ele>
        <time>2021-07-30T18:56:16Z</time>
      </trkpt>
      <trkpt lat="42.2551" lon="2.53334">
        <ele>433.86</ele>
        <time>2021-07-30T18:56:10Z</time>
      </trkpt>
      <trkpt lat="42.25488" lon="2.53429">
        <ele>429.66</ele>
        <time>2021-07-30T18:56:03Z</time>
      </trkpt>
      <trkpt lat="42.2545" lon="2.53492">
        <ele>426.62</ele>
        <time>2021-07-30T18:55:58Z</time>
      </trkpt>
      <trkpt lat="42.25427" lon="2.5359">
        <ele>422.91</ele>
        <time>2021-07-30T18:55:51Z</time>
      </trkpt>
      <trkpt lat="42.25416" lon="2.53598">
        <ele>422.48</ele>
        <time>2021-07-30T18:55:50Z</time>
      </trkpt>
      <trkpt lat="42.25429" lon="2.53655">
        <ele>421.45</ele>
        <time>2021-07-30T18:55:43Z</time>
      </trkpt>
      <trkpt lat="42.25438" lon="2.53661">
        <ele>421.45</ele>
        <time>2021-07-30T18:55:42Z</time>
      </trkpt>
      <trkpt lat="42.25452" lon="2.53734">
        <ele>421.8</ele>
        <time>2021-07-30T18:55:37Z</time>
      </trkpt>
      <trkpt lat="42.25438" lon="2.53795">
        <ele>422.24</ele>
        <time>2021-07-30T18:55:34Z</time>
      </trkpt>
      <trkpt lat="42.25427" lon="2.53832">
        <ele>422.54</ele>
        <time>2021-07-30T18:55:32Z</time>
      </trkpt>
      <trkpt lat="42.25372" lon="2.53886">
        <ele>423.37</ele>
        <time>2021-07-30T18:55:26Z</time>
      </trkpt>
      <trkpt lat="42.2533" lon="2.53927">
        <ele>424.32</ele>
        <time>2021-07-30T18:55:22Z</time>
      </trkpt>
      <trkpt lat="42.25292" lon="2.53997">
        <ele>426.54</ele>
        <time>2021-07-30T18:55:17Z</time>
      </trkpt>
      <trkpt lat="42.25266" lon="2.5404">
        <ele>429.03</ele>
        <time>2021-07-30T18:55:13Z</time>
      </trkpt>
      <trkpt lat="42.25242" lon="2.54122">
        <ele>430.06</ele>
        <time>2021-07-30T18:55:09Z</time>
      </trkpt>
      <trkpt lat="42.2521" lon="2.54189">
        <ele>429.84</ele>
        <time>2021-07-30T18:55:06Z</time>
      </trkpt>
      <trkpt lat="42.252" lon="2.54212">
        <ele>429.56</ele>
        <time>2021-07-30T18:55:05Z</time>
      </trkpt>
      <trkpt lat="42.25139" lon="2.54365">
        <ele>424.47</ele>
        <time>2021-07-30T18:54:58Z</time>
      </trkpt>
      <trkpt lat="42.25087" lon="2.54416">
        <ele>420.43</ele>
        <time>2021-07-30T18:54:53Z</time>
      </trkpt>
      <trkpt lat="42.2506" lon="2.54411">
        <ele>419.06</ele>
        <time>2021-07-30T18:54:51Z</time>
      </trkpt>
      <trkpt lat="42.25" lon="2.54383">
        <ele>414.65</ele>
        <time>2021-07-30T18:54:45Z</time>
      </trkpt>
      <trkpt lat="42.24953" lon="2.5433">
        <ele>411.16</ele>
        <time>2021-07-30T18:54:41Z</time>
      </trkpt>
      <trkpt lat="42.24896" lon="2.54377">
        <ele>406.71</ele>
        <time>2021-07-30T18:54:36Z</time>
      </trkpt>
      <trkpt lat="42.24886" lon="2.54418">
        <ele>404.71</ele>
        <time>2021-07-30T18:54:34Z</time>
      </trkpt>
      <trkpt lat="42.24864" lon="2.54509">
        <ele>400.29</ele>
        <time>2021-07-30T18:54:30Z</time>
      </trkpt>
      <trkpt lat="42.24836" lon="2.54569">
        <ele>396.75</ele>
        <time>2021-07-30T18:54:27Z</time>
      </trkpt>
      <trkpt lat="42.24824" lon="2.54589">
        <ele>395.91</ele>
        <time>2021-07-30T18:54:26Z</time>
      </trkpt>
      <trkpt lat="42.24789" lon="2.54628">
        <ele>392.51</ele>
        <time>2021-07-30T18:54:22Z</time>
      </trkpt>
      <trkpt lat="42.24744" lon="2.54603">
        <ele>388.8</ele>
        <time>2021-07-30T18:54:17Z</time>
      </trkpt>
      <trkpt lat="42.24707" lon="2.54612">
        <ele>386.18</ele>
        <time>2021-07-30T18:54:13Z</time>
      </trkpt>
      <trkpt lat="42.24694" lon="2.54642">
        <ele>384.76</ele>
        <time>2021-07-30T18:54:11Z</time>
      </trkpt>
      <trkpt lat="42.2468" lon="2.54668">
        <ele>383.45</ele>
        <time>2021-07-30T18:54:09Z</time>
      </trkpt>
      <trkpt lat="42.24635" lon="2.54699">
        <ele>380.21</ele>
        <time>2021-07-30T18:54:04Z</time>
      </trkpt>
      <trkpt lat="42.24636" lon="2.54761">
        <ele>376.76</ele>
        <time>2021-07-30T18:53:59Z</time>
      </trkpt>
      <trkpt lat="42.24627" lon="2.54819">
        <ele>373.65</ele>
        <time>2021-07-30T18:53:55Z</time>
      </trkpt>
      <trkpt lat="42.24592" lon="2.54875">
        <ele>369.77</ele>
        <time>2021-07-30T18:53:50Z</time>
      </trkpt>
      <trkpt lat="42.24587" lon="2.5493">
        <ele>366.94</ele>
        <time>2021-07-30T18:53:47Z</time>
      </trkpt>
      <trkpt lat="42.24565" lon="2.54984">
        <ele>364.46</ele>
        <time>2021-07-30T18:53:44Z</time>
      </trkpt>
      <trkpt lat="42.24511" lon="2.55034">
        <ele>359.79</ele>
        <time>2021-07-30T18:53:39Z</time>
      </trkpt>
      <trkpt lat="42.24498" lon="2.55038">
        <ele>358.97</ele>
        <time>2021-07-30T18:53:38Z</time>
      </trkpt>
      <trkpt lat="42.24455" lon="2.55107">
        <ele>354.75</ele>
        <time>2021-07-30T18:53:33Z</time>
      </trkpt>
      <trkpt lat="42.24463" lon="2.55192">
        <ele>351.77</ele>
        <time>2021-07-30T18:53:28Z</time>
      </trkpt>
      <trkpt lat="42.24445" lon="2.55264">
        <ele>347.1</ele>
        <time>2021-07-30T18:53:22Z</time>
      </trkpt>
      <trkpt lat="42.24436" lon="2.55274">
        <ele>346.25</ele>
        <time>2021-07-30T18:53:21Z</time>
      </trkpt>
      <trkpt lat="42.24402" lon="2.55355">
        <ele>342.03</ele>
        <time>2021-07-30T18:53:16Z</time>
      </trkpt>
      <trkpt lat="42.24383" lon="2.55383">
        <ele>340.24</ele>
        <time>2021-07-30T18:53:14Z</time>
      </trkpt>
      <trkpt lat="42.24366" lon="2.55413">
        <ele>338.6</ele>
        <time>2021-07-30T18:53:12Z</time>
      </trkpt>
      <trkpt lat="42.24314" lon="2.55463">
        <ele>334.36</ele>
        <time>2021-07-30T18:53:07Z</time>
      </trkpt>
      <trkpt lat="42.24269" lon="2.55491">
        <ele>330.57</ele>
        <time>2021-07-30T18:53:03Z</time>
      </trkpt>
      <trkpt lat="42.24225" lon="2.55496">
        <ele>327.06</ele>
        <time>2021-07-30T18:53:00Z</time>
      </trkpt>
      <trkpt lat="42.24173" lon="2.55503">
        <ele>323.65</ele>
        <time>2021-07-30T18:52:57Z</time>
      </trkpt>
      <trkpt lat="42.24105" lon="2.55503">
        <ele>319.36</ele>
        <time>2021-07-30T18:52:53Z</time>
      </trkpt>
      <trkpt lat="42.24088" lon="2.55503">
        <ele>318.33</ele>
        <time>2021-07-30T18:52:52Z</time>
      </trkpt>
      <trkpt lat="42.24028" lon="2.55471">
        <ele>314.61</ele>
        <time>2021-07-30T18:52:48Z</time>
      </trkpt>
      <trkpt lat="42.23991" lon="2.55423">
        <ele>310.63</ele>
        <time>2021-07-30T18:52:44Z</time>
      </trkpt>
      <trkpt lat="42.23971" lon="2.55369">
        <ele>307.98</ele>
        <time>2021-07-30T18:52:40Z</time>
      </trkpt>
      <trkpt lat="42.23916" lon="2.55422">
        <ele>303.72</ele>
        <time>2021-07-30T18:52:34Z</time>
      </trkpt>
      <trkpt lat="42.23899" lon="2.55497">
        <ele>300.59</ele>
        <time>2021-07-30T18:52:29Z</time>
      </trkpt>
      <trkpt lat="42.2396" lon="2.55553">
        <ele>295.96</ele>
        <time>2021-07-30T18:52:23Z</time>
      </trkpt>
      <trkpt lat="42.24015" lon="2.55585">
        <ele>293.15</ele>
        <time>2021-07-30T18:52:18Z</time>
      </trkpt>
      <trkpt lat="42.24011" lon="2.55621">
        <ele>290.86</ele>
        <time>2021-07-30T18:52:13Z</time>
      </trkpt>
      <trkpt lat="42.2395" lon="2.55595">
        <ele>288.42</ele>
        <time>2021-07-30T18:52:07Z</time>
      </trkpt>
      <trkpt lat="42.23898" lon="2.55609">
        <ele>286.9</ele>
        <time>2021-07-30T18:52:02Z</time>
      </trkpt>
      <trkpt lat="42.23892" lon="2.55611">
        <ele>286.64</ele>
        <time>2021-07-30T18:52:01Z</time>
      </trkpt>
      <trkpt lat="42.23892" lon="2.55627">
        <ele>284.99</ele>
        <time>2021-07-30T18:51:56Z</time>
      </trkpt>
      <trkpt lat="42.23929" lon="2.55612">
        <ele>281.54</ele>
        <time>2021-07-30T18:51:52Z</time>
      </trkpt>
      <trkpt lat="42.2396" lon="2.55613">
        <ele>277.85</ele>
        <time>2021-07-30T18:51:49Z</time>
      </trkpt>
      <trkpt lat="42.23983" lon="2.55659">
        <ele>273.73</ele>
        <time>2021-07-30T18:51:45Z</time>
      </trkpt>
      <trkpt lat="42.23982" lon="2.55691">
        <ele>272.66</ele>
        <time>2021-07-30T18:51:43Z</time>
      </trkpt>
      <trkpt lat="42.23994" lon="2.55733">
        <ele>271.7</ele>
        <time>2021-07-30T18:51:40Z</time>
      </trkpt>
      <trkpt lat="42.24004" lon="2.55777">
        <ele>270.88</ele>
        <time>2021-07-30T18:51:36Z</time>
      </trkpt>
      <trkpt lat="42.23955" lon="2.55794">
        <ele>269.65</ele>
        <time>2021-07-30T18:51:29Z</time>
      </trkpt>
      <trkpt lat="42.23911" lon="2.55761">
        <ele>269.66</ele>
        <time>2021-07-30T18:51:24Z</time>
      </trkpt>
      <trkpt lat="42.23895" lon="2.55742">
        <ele>270.57</ele>
        <time>2021-07-30T18:51:21Z</time>
      </trkpt>
      <trkpt lat="42.23866" lon="2.55744">
        <ele>273.79</ele>
        <time>2021-07-30T18:51:16Z</time>
      </trkpt>
      <trkpt lat="42.23862" lon="2.55779">
        <ele>278.12</ele>
        <time>2021-07-30T18:51:11Z</time>
      </trkpt>
      <trkpt lat="42.23901" lon="2.55823">
        <ele>282.01</ele>
        <time>2021-07-30T18:51:06Z</time>
      </trkpt>
      <trkpt lat="42.23932" lon="2.55862">
        <ele>283.1</ele>
        <time>2021-07-30T18:51:02Z</time>
      </trkpt>
      <trkpt lat="42.23974" lon="2.55989">
        <ele>286.64</ele>
        <time>2021-07-30T18:50:54Z</time>
      </trkpt>
      <trkpt lat="42.23996" lon="2.56067">
        <ele>288.41</ele>
        <time>2021-07-30T18:50:49Z</time>
      </trkpt>
      <trkpt lat="42.24051" lon="2.56106">
        <ele>292.59</ele>
        <time>2021-07-30T18:50:43Z</time>
      </trkpt>
      <trkpt lat="42.24078" lon="2.5611">
        <ele>295.51</ele>
        <time>2021-07-30T18:50:40Z</time>
      </trkpt>
      <trkpt lat="42.24086" lon="2.56134">
        <ele>300.65</ele>
        <time>2021-07-30T18:50:36Z</time>
      </trkpt>
      <trkpt lat="42.24084" lon="2.56141">
        <ele>302.09</ele>
        <time>2021-07-30T18:50:35Z</time>
      </trkpt>
      <trkpt lat="42.2408" lon="2.56166">
        <ele>306.96</ele>
        <time>2021-07-30T18:50:32Z</time>
      </trkpt>
      <trkpt lat="42.24096" lon="2.56192">
        <ele>311.43</ele>
        <time>2021-07-30T18:50:29Z</time>
      </trkpt>
      <trkpt lat="42.24123" lon="2.5626">
        <ele>316.04</ele>
        <time>2021-07-30T18:50:25Z</time>
      </trkpt>
      <trkpt lat="42.24136" lon="2.56356">
        <ele>320.35</ele>
        <time>2021-07-30T18:50:19Z</time>
      </trkpt>
      <trkpt lat="42.24147" lon="2.56382">
        <ele>321.46</ele>
        <time>2021-07-30T18:50:17Z</time>
      </trkpt>
      <trkpt lat="42.2417" lon="2.5644">
        <ele>323.87</ele>
        <time>2021-07-30T18:50:13Z</time>
      </trkpt>
      <trkpt lat="42.24162" lon="2.56498">
        <ele>326.99</ele>
        <time>2021-07-30T18:50:09Z</time>
      </trkpt>
      <trkpt lat="42.24131" lon="2.5657">
        <ele>332.06</ele>
        <time>2021-07-30T18:50:03Z</time>
      </trkpt>
      <trkpt lat="42.2414" lon="2.56655">
        <ele>334.96</ele>
        <time>2021-07-30T18:49:58Z</time>
      </trkpt>
      <trkpt lat="42.24143" lon="2.5672">
        <ele>336.18</ele>
        <time>2021-07-30T18:49:54Z</time>
      </trkpt>
      <trkpt lat="42.24125" lon="2.56826">
        <ele>336.44</ele>
        <time>2021-07-30T18:49:48Z</time>
      </trkpt>
      <trkpt lat="42.24121" lon="2.5693">
        <ele>333.62</ele>
        <time>2021-07-30T18:49:43Z</time>
      </trkpt>
      <trkpt lat="42.2412" lon="2.56949">
        <ele>332.77</ele>
        <time>2021-07-30T18:49:42Z</time>
      </trkpt>
      <trkpt lat="42.24108" lon="2.57008">
        <ele>329.56</ele>
        <time>2021-07-30T18:49:38Z</time>
      </trkpt>
      <trkpt lat="42.24104" lon="2.57049">
        <ele>325.79</ele>
        <time>2021-07-30T18:49:33Z</time>
      </trkpt>
      <trkpt lat="42.24141" lon="2.5708">
        <ele>321.89</ele>
        <time>2021-07-30T18:49:29Z</time>
      </trkpt>
      <trkpt lat="42.24167" lon="2.57102">
        <ele>318</ele>
        <time>2021-07-30T18:49:26Z</time>
      </trkpt>
      <trkpt lat="42.24203" lon="2.5714">
        <ele>313.26</ele>
        <time>2021-07-30T18:49:21Z</time>
      </trkpt>
      <trkpt lat="42.24243" lon="2.57258">
        <ele>310.29</ele>
        <time>2021-07-30T18:49:14Z</time>
      </trkpt>
      <trkpt lat="42.24247" lon="2.57289">
        <ele>309.66</ele>
        <time>2021-07-30T18:49:12Z</time>
      </trkpt>
      <trkpt lat="42.2427" lon="2.57365">
        <ele>308.12</ele>
        <time>2021-07-30T18:49:06Z</time>
      </trkpt>
      <trkpt lat="42.24271" lon="2.57424">
        <ele>309.44</ele>
        <time>2021-07-30T18:49:00Z</time>
      </trkpt>
      <trkpt lat="42.24286" lon="2.57446">
        <ele>312.46</ele>
        <time>2021-07-30T18:48:55Z</time>
      </trkpt>
      <trkpt lat="42.24316" lon="2.57496">
        <ele>313.53</ele>
        <time>2021-07-30T18:48:48Z</time>
      </trkpt>
      <trkpt lat="42.24304" lon="2.57525">
        <ele>313.29</ele>
        <time>2021-07-30T18:48:45Z</time>
      </trkpt>
      <trkpt lat="42.24286" lon="2.57607">
        <ele>314.38</ele>
        <time>2021-07-30T18:48:39Z</time>
      </trkpt>
      <trkpt lat="42.24302" lon="2.57665">
        <ele>315.63</ele>
        <time>2021-07-30T18:48:34Z</time>
      </trkpt>
      <trkpt lat="42.2432" lon="2.57729">
        <ele>315.74</ele>
        <time>2021-07-30T18:48:28Z</time>
      </trkpt>
      <trkpt lat="42.24311" lon="2.57802">
        <ele>315.11</ele>
        <time>2021-07-30T18:48:23Z</time>
      </trkpt>
      <trkpt lat="42.24242" lon="2.57936">
        <ele>317.64</ele>
        <time>2021-07-30T18:48:14Z</time>
      </trkpt>
      <trkpt lat="42.24206" lon="2.57973">
        <ele>319.29</ele>
        <time>2021-07-30T18:48:10Z</time>
      </trkpt>
      <trkpt lat="42.24142" lon="2.58005">
        <ele>322.23</ele>
        <time>2021-07-30T18:48:04Z</time>
      </trkpt>
      <trkpt lat="42.24121" lon="2.58024">
        <ele>323.15</ele>
        <time>2021-07-30T18:48:01Z</time>
      </trkpt>
      <trkpt lat="42.24114" lon="2.5803">
        <ele>323.44</ele>
        <time>2021-07-30T18:48:00Z</time>
      </trkpt>
      <trkpt lat="42.241" lon="2.58058">
        <ele>325.66</ele>
        <time>2021-07-30T18:47:55Z</time>
      </trkpt>
      <trkpt lat="42.24118" lon="2.58077">
        <ele>326.45</ele>
        <time>2021-07-30T18:47:52Z</time>
      </trkpt>
      <trkpt lat="42.24144" lon="2.58094">
        <ele>326.13</ele>
        <time>2021-07-30T18:47:49Z</time>
      </trkpt>
      <trkpt lat="42.24229" lon="2.58165">
        <ele>322.4</ele>
        <time>2021-07-30T18:47:41Z</time>
      </trkpt>
      <trkpt lat="42.24246" lon="2.58221">
        <ele>320.15</ele>
        <time>2021-07-30T18:47:36Z</time>
      </trkpt>
      <trkpt lat="42.24244" lon="2.58243">
        <ele>319.62</ele>
        <time>2021-07-30T18:47:34Z</time>
      </trkpt>
      <trkpt lat="42.24258" lon="2.58271">
        <ele>317.88</ele>
        <time>2021-07-30T18:47:28Z</time>
      </trkpt>
      <trkpt lat="42.24307" lon="2.58286">
        <ele>316.19</ele>
        <time>2021-07-30T18:47:22Z</time>
      </trkpt>
      <trkpt lat="42.24312" lon="2.58298">
        <ele>315.74</ele>
        <time>2021-07-30T18:47:21Z</time>
      </trkpt>
      <trkpt lat="42.24343" lon="2.58408">
        <ele>312.62</ele>
        <time>2021-07-30T18:47:12Z</time>
      </trkpt>
      <trkpt lat="42.24359" lon="2.58449">
        <ele>313.73</ele>
        <time>2021-07-30T18:47:07Z</time>
      </trkpt>
      <trkpt lat="42.24373" lon="2.58553">
        <ele>314.14</ele>
        <time>2021-07-30T18:46:59Z</time>
      </trkpt>
      <trkpt lat="42.24376" lon="2.58568">
        <ele>313.79</ele>
        <time>2021-07-30T18:46:58Z</time>
      </trkpt>
      <trkpt lat="42.24363" lon="2.58642">
        <ele>311.12</ele>
        <time>2021-07-30T18:46:51Z</time>
      </trkpt>
      <trkpt lat="42.24348" lon="2.58655">
        <ele>310.43</ele>
        <time>2021-07-30T18:46:48Z</time>
      </trkpt>
      <trkpt lat="42.24325" lon="2.58698">
        <ele>311.73</ele>
        <time>2021-07-30T18:46:42Z</time>
      </trkpt>
      <trkpt lat="42.24334" lon="2.58742">
        <ele>312.29</ele>
        <time>2021-07-30T18:46:38Z</time>
      </trkpt>
      <trkpt lat="42.24329" lon="2.5878">
        <ele>312.55</ele>
        <time>2021-07-30T18:46:34Z</time>
      </trkpt>
      <trkpt lat="42.2432" lon="2.58801">
        <ele>313.1</ele>
        <time>2021-07-30T18:46:31Z</time>
      </trkpt>
      <trkpt lat="42.24316" lon="2.58857">
        <ele>313.9</ele>
        <time>2021-07-30T18:46:27Z</time>
      </trkpt>
      <trkpt lat="42.24317" lon="2.58885">
        <ele>314.22</ele>
        <time>2021-07-30T18:46:25Z</time>
      </trkpt>
      <trkpt lat="42.24287" lon="2.58946">
        <ele>314.75</ele>
        <time>2021-07-30T18:46:18Z</time>
      </trkpt>
      <trkpt lat="42.24284" lon="2.58965">
        <ele>315.16</ele>
        <time>2021-07-30T18:46:14Z</time>
      </trkpt>
      <trkpt lat="42.24291" lon="2.59008">
        <ele>314.93</ele>
        <time>2021-07-30T18:46:06Z</time>
      </trkpt>
      <trkpt lat="42.24303" lon="2.59063">
        <ele>313.79</ele>
        <time>2021-07-30T18:46:01Z</time>
      </trkpt>
      <trkpt lat="42.24309" lon="2.59127">
        <ele>311</ele>
        <time>2021-07-30T18:45:56Z</time>
      </trkpt>
      <trkpt lat="42.24308" lon="2.59139">
        <ele>310.32</ele>
        <time>2021-07-30T18:45:55Z</time>
      </trkpt>
      <trkpt lat="42.24291" lon="2.59231">
        <ele>306.07</ele>
        <time>2021-07-30T18:45:49Z</time>
      </trkpt>
      <trkpt lat="42.24255" lon="2.59289">
        <ele>302.23</ele>
        <time>2021-07-30T18:45:44Z</time>
      </trkpt>
      <trkpt lat="42.24236" lon="2.593">
        <ele>300.79</ele>
        <time>2021-07-30T18:45:42Z</time>
      </trkpt>
      <trkpt lat="42.24186" lon="2.59311">
        <ele>298</ele>
        <time>2021-07-30T18:45:37Z</time>
      </trkpt>
      <trkpt lat="42.24174" lon="2.59309">
        <ele>297.44</ele>
        <time>2021-07-30T18:45:36Z</time>
      </trkpt>
      <trkpt lat="42.24164" lon="2.59305">
        <ele>296.92</ele>
        <time>2021-07-30T18:45:35Z</time>
      </trkpt>
      <trkpt lat="42.24157" lon="2.59309">
        <ele>296.35</ele>
        <time>2021-07-30T18:45:34Z</time>
      </trkpt>
      <trkpt lat="42.24151" lon="2.59316">
        <ele>295.68</ele>
        <time>2021-07-30T18:45:33Z</time>
      </trkpt>
      <trkpt lat="42.24143" lon="2.59337">
        <ele>293.89</ele>
        <time>2021-07-30T18:45:31Z</time>
      </trkpt>
      <trkpt lat="42.24139" lon="2.59349">
        <ele>292.97</ele>
        <time>2021-07-30T18:45:30Z</time>
      </trkpt>
      <trkpt lat="42.24133" lon="2.5936">
        <ele>292.05</ele>
        <time>2021-07-30T18:45:29Z</time>
      </trkpt>
      <trkpt lat="42.24109" lon="2.59399">
        <ele>288.82</ele>
        <time>2021-07-30T18:45:26Z</time>
      </trkpt>
      <trkpt lat="42.24084" lon="2.59449">
        <ele>285.36</ele>
        <time>2021-07-30T18:45:23Z</time>
      </trkpt>
      <trkpt lat="42.2406" lon="2.59498">
        <ele>281.41</ele>
        <time>2021-07-30T18:45:20Z</time>
      </trkpt>
      <trkpt lat="42.24037" lon="2.59541">
        <ele>277.19</ele>
        <time>2021-07-30T18:45:17Z</time>
      </trkpt>
      <trkpt lat="42.24011" lon="2.59577">
        <ele>273.28</ele>
        <time>2021-07-30T18:45:14Z</time>
      </trkpt>
      <trkpt lat="42.23978" lon="2.59612">
        <ele>269.94</ele>
        <time>2021-07-30T18:45:11Z</time>
      </trkpt>
      <trkpt lat="42.23907" lon="2.59674">
        <ele>266.1</ele>
        <time>2021-07-30T18:45:05Z</time>
      </trkpt>
      <trkpt lat="42.23879" lon="2.59692">
        <ele>265.77</ele>
        <time>2021-07-30T18:45:02Z</time>
      </trkpt>
      <trkpt lat="42.23832" lon="2.59669">
        <ele>264.27</ele>
        <time>2021-07-30T18:44:55Z</time>
      </trkpt>
      <trkpt lat="42.23808" lon="2.59622">
        <ele>262.53</ele>
        <time>2021-07-30T18:44:50Z</time>
      </trkpt>
      <trkpt lat="42.23792" lon="2.59604">
        <ele>262.16</ele>
        <time>2021-07-30T18:44:46Z</time>
      </trkpt>
      <trkpt lat="42.2375" lon="2.59594">
        <ele>261.95</ele>
        <time>2021-07-30T18:44:40Z</time>
      </trkpt>
      <trkpt lat="42.23734" lon="2.59602">
        <ele>261.82</ele>
        <time>2021-07-30T18:44:33Z</time>
      </trkpt>
      <trkpt lat="42.23746" lon="2.59604">
        <ele>261.28</ele>
        <time>2021-07-30T18:44:27Z</time>
      </trkpt>
      <trkpt lat="42.23769" lon="2.59661">
        <ele>258.74</ele>
        <time>2021-07-30T18:44:21Z</time>
      </trkpt>
      <trkpt lat="42.23764" lon="2.59695">
        <ele>257.06</ele>
        <time>2021-07-30T18:44:19Z</time>
      </trkpt>
      <trkpt lat="42.23741" lon="2.59801">
        <ele>252.17</ele>
        <time>2021-07-30T18:44:14Z</time>
      </trkpt>
      <trkpt lat="42.23731" lon="2.59856">
        <ele>249.53</ele>
        <time>2021-07-30T18:44:11Z</time>
      </trkpt>
      <trkpt lat="42.23782" lon="2.59878">
        <ele>244.94</ele>
        <time>2021-07-30T18:44:06Z</time>
      </trkpt>
      <trkpt lat="42.23807" lon="2.59862">
        <ele>242.84</ele>
        <time>2021-07-30T18:44:04Z</time>
      </trkpt>
      <trkpt lat="42.2387" lon="2.59824">
        <ele>239.09</ele>
        <time>2021-07-30T18:44:00Z</time>
      </trkpt>
      <trkpt lat="42.23957" lon="2.59794">
        <ele>234.87</ele>
        <time>2021-07-30T18:43:54Z</time>
      </trkpt>
      <trkpt lat="42.23975" lon="2.59789">
        <ele>233.42</ele>
        <time>2021-07-30T18:43:52Z</time>
      </trkpt>
      <trkpt lat="42.23988" lon="2.59838">
        <ele>229.23</ele>
        <time>2021-07-30T18:43:46Z</time>
      </trkpt>
      <trkpt lat="42.23969" lon="2.59865">
        <ele>227.74</ele>
        <time>2021-07-30T18:43:44Z</time>
      </trkpt>
      <trkpt lat="42.23948" lon="2.59893">
        <ele>226.5</ele>
        <time>2021-07-30T18:43:42Z</time>
      </trkpt>
      <trkpt lat="42.23979" lon="2.59937">
        <ele>222.66</ele>
        <time>2021-07-30T18:43:36Z</time>
      </trkpt>
      <trkpt lat="42.24015" lon="2.59931">
        <ele>220.91</ele>
        <time>2021-07-30T18:43:33Z</time>
      </trkpt>
      <trkpt lat="42.24063" lon="2.59902">
        <ele>218.37</ele>
        <time>2021-07-30T18:43:29Z</time>
      </trkpt>
      <trkpt lat="42.24115" lon="2.59811">
        <ele>215.02</ele>
        <time>2021-07-30T18:43:23Z</time>
      </trkpt>
      <trkpt lat="42.24151" lon="2.59755">
        <ele>213.74</ele>
        <time>2021-07-30T18:43:19Z</time>
      </trkpt>
      <trkpt lat="42.24198" lon="2.59768">
        <ele>213.1</ele>
        <time>2021-07-30T18:43:14Z</time>
      </trkpt>
      <trkpt lat="42.24244" lon="2.59839">
        <ele>212.93</ele>
        <time>2021-07-30T18:43:09Z</time>
      </trkpt>
      <trkpt lat="42.24327" lon="2.59952">
        <ele>213.12</ele>
        <time>2021-07-30T18:43:02Z</time>
      </trkpt>
      <trkpt lat="42.24454" lon="2.6006">
        <ele>213.4</ele>
        <time>2021-07-30T18:42:53Z</time>
      </trkpt>
      <trkpt lat="42.24558" lon="2.60151">
        <ele>215.23</ele>
        <time>2021-07-30T18:42:43Z</time>
      </trkpt>
      <trkpt lat="42.24631" lon="2.60194">
        <ele>218.89</ele>
        <time>2021-07-30T18:42:35Z</time>
      </trkpt>
      <trkpt lat="42.2466" lon="2.60215">
        <ele>220.83</ele>
        <time>2021-07-30T18:42:31Z</time>
      </trkpt>
      <trkpt lat="42.24699" lon="2.6026">
        <ele>223.02</ele>
        <time>2021-07-30T18:42:26Z</time>
      </trkpt>
      <trkpt lat="42.24744" lon="2.60309">
        <ele>226.64</ele>
        <time>2021-07-30T18:42:18Z</time>
      </trkpt>
      <trkpt lat="42.24753" lon="2.60321">
        <ele>227.61</ele>
        <time>2021-07-30T18:42:16Z</time>
      </trkpt>
      <trkpt lat="42.24783" lon="2.60385">
        <ele>231.46</ele>
        <time>2021-07-30T18:42:09Z</time>
      </trkpt>
      <trkpt lat="42.24813" lon="2.60422">
        <ele>235</ele>
        <time>2021-07-30T18:42:03Z</time>
      </trkpt>
      <trkpt lat="42.24856" lon="2.60421">
        <ele>236.35</ele>
        <time>2021-07-30T18:41:59Z</time>
      </trkpt>
      <trkpt lat="42.24894" lon="2.60408">
        <ele>237.69</ele>
        <time>2021-07-30T18:41:55Z</time>
      </trkpt>
      <trkpt lat="42.2493" lon="2.6034">
        <ele>240.4</ele>
        <time>2021-07-30T18:41:49Z</time>
      </trkpt>
      <trkpt lat="42.25015" lon="2.60153">
        <ele>243.98</ele>
        <time>2021-07-30T18:41:39Z</time>
      </trkpt>
      <trkpt lat="42.25058" lon="2.60095">
        <ele>244.15</ele>
        <time>2021-07-30T18:41:35Z</time>
      </trkpt>
      <trkpt lat="42.25094" lon="2.60069">
        <ele>243.89</ele>
        <time>2021-07-30T18:41:32Z</time>
      </trkpt>
      <trkpt lat="42.25183" lon="2.60048">
        <ele>242.76</ele>
        <time>2021-07-30T18:41:26Z</time>
      </trkpt>
      <trkpt lat="42.25271" lon="2.60033">
        <ele>242.34</ele>
        <time>2021-07-30T18:41:19Z</time>
      </trkpt>
      <trkpt lat="42.25302" lon="2.60047">
        <ele>242.2</ele>
        <time>2021-07-30T18:41:15Z</time>
      </trkpt>
      <trkpt lat="42.2531" lon="2.60049">
        <ele>242.16</ele>
        <time>2021-07-30T18:41:12Z</time>
      </trkpt>
      <trkpt lat="42.25317" lon="2.60047">
        <ele>242.09</ele>
        <time>2021-07-30T18:41:04Z</time>
      </trkpt>
      <trkpt lat="42.25308" lon="2.60042">
        <ele>241.8</ele>
        <time>2021-07-30T18:40:53Z</time>
      </trkpt>
      <trkpt lat="42.2527" lon="2.60028">
        <ele>242.69</ele>
        <time>2021-07-30T18:40:44Z</time>
      </trkpt>
      <trkpt lat="42.25269" lon="2.60027">
        <ele>243.31</ele>
        <time>2021-07-30T18:40:41Z</time>
      </trkpt>
      <trkpt lat="42.25315" lon="2.60041">
        <ele>244.82</ele>
        <time>2021-07-30T18:40:34Z</time>
      </trkpt>
      <trkpt lat="42.25413" lon="2.60097">
        <ele>244.52</ele>
        <time>2021-07-30T18:40:26Z</time>
      </trkpt>
      <trkpt lat="42.25435" lon="2.60102">
        <ele>244.72</ele>
        <time>2021-07-30T18:40:24Z</time>
      </trkpt>
      <trkpt lat="42.25465" lon="2.60143">
        <ele>245.17</ele>
        <time>2021-07-30T18:40:19Z</time>
      </trkpt>
      <trkpt lat="42.25506" lon="2.60198">
        <ele>244.68</ele>
        <time>2021-07-30T18:40:14Z</time>
      </trkpt>
      <trkpt lat="42.25603" lon="2.60199">
        <ele>244.13</ele>
        <time>2021-07-30T18:40:07Z</time>
      </trkpt>
      <trkpt lat="42.25696" lon="2.60142">
        <ele>244.4</ele>
        <time>2021-07-30T18:40:00Z</time>
      </trkpt>
      <trkpt lat="42.25722" lon="2.6014">
        <ele>244.85</ele>
        <time>2021-07-30T18:39:58Z</time>
      </trkpt>
      <trkpt lat="42.25795" lon="2.60149">
        <ele>246.58</ele>
        <time>2021-07-30T18:39:52Z</time>
      </trkpt>
      <trkpt lat="42.25805" lon="2.6016">
        <ele>246.84</ele>
        <time>2021-07-30T18:39:51Z</time>
      </trkpt>
      <trkpt lat="42.25891" lon="2.60279">
        <ele>248.44</ele>
        <time>2021-07-30T18:39:43Z</time>
      </trkpt>
      <trkpt lat="42.2595" lon="2.60393">
        <ele>248.84</ele>
        <time>2021-07-30T18:39:37Z</time>
      </trkpt>
      <trkpt lat="42.25979" lon="2.60443">
        <ele>248.9</ele>
        <time>2021-07-30T18:39:34Z</time>
      </trkpt>
      <trkpt lat="42.26048" lon="2.60499">
        <ele>248.42</ele>
        <time>2021-07-30T18:39:28Z</time>
      </trkpt>
      <trkpt lat="42.26113" lon="2.60485">
        <ele>246.33</ele>
        <time>2021-07-30T18:39:23Z</time>
      </trkpt>
      <trkpt lat="42.26169" lon="2.6046">
        <ele>244.62</ele>
        <time>2021-07-30T18:39:19Z</time>
      </trkpt>
      <trkpt lat="42.26288" lon="2.60458">
        <ele>243.54</ele>
        <time>2021-07-30T18:39:12Z</time>
      </trkpt>
      <trkpt lat="42.26446" lon="2.60395">
        <ele>244.96</ele>
        <time>2021-07-30T18:39:03Z</time>
      </trkpt>
      <trkpt lat="42.26493" lon="2.60358">
        <ele>245.01</ele>
        <time>2021-07-30T18:39:00Z</time>
      </trkpt>
      <trkpt lat="42.26574" lon="2.60318">
        <ele>244.8</ele>
        <time>2021-07-30T18:38:55Z</time>
      </trkpt>
      <trkpt lat="42.26675" lon="2.60277">
        <ele>246.34</ele>
        <time>2021-07-30T18:38:45Z</time>
      </trkpt>
      <trkpt lat="42.26708" lon="2.60253">
        <ele>249.16</ele>
        <time>2021-07-30T18:38:39Z</time>
      </trkpt>
      <trkpt lat="42.26747" lon="2.60207">
        <ele>253.39</ele>
        <time>2021-07-30T18:38:34Z</time>
      </trkpt>
      <trkpt lat="42.2676" lon="2.60171">
        <ele>255.22</ele>
        <time>2021-07-30T18:38:32Z</time>
      </trkpt>
      <trkpt lat="42.26784" lon="2.60108">
        <ele>258.31</ele>
        <time>2021-07-30T18:38:29Z</time>
      </trkpt>
      <trkpt lat="42.26823" lon="2.6003">
        <ele>262.74</ele>
        <time>2021-07-30T18:38:25Z</time>
      </trkpt>
      <trkpt lat="42.26856" lon="2.59978">
        <ele>266.57</ele>
        <time>2021-07-30T18:38:21Z</time>
      </trkpt>
      <trkpt lat="42.26876" lon="2.59906">
        <ele>269.35</ele>
        <time>2021-07-30T18:38:17Z</time>
      </trkpt>
      <trkpt lat="42.26883" lon="2.59879">
        <ele>270.68</ele>
        <time>2021-07-30T18:38:15Z</time>
      </trkpt>
      <trkpt lat="42.26893" lon="2.5989">
        <ele>275.35</ele>
        <time>2021-07-30T18:38:08Z</time>
      </trkpt>
      <trkpt lat="42.26889" lon="2.59907">
        <ele>277.14</ele>
        <time>2021-07-30T18:38:06Z</time>
      </trkpt>
      <trkpt lat="42.26899" lon="2.59912">
        <ele>280.28</ele>
        <time>2021-07-30T18:38:03Z</time>
      </trkpt>
      <trkpt lat="42.26912" lon="2.59879">
        <ele>284.25</ele>
        <time>2021-07-30T18:37:59Z</time>
      </trkpt>
      <trkpt lat="42.26951" lon="2.59835">
        <ele>287.67</ele>
        <time>2021-07-30T18:37:54Z</time>
      </trkpt>
      <trkpt lat="42.26966" lon="2.59838">
        <ele>290.8</ele>
        <time>2021-07-30T18:37:50Z</time>
      </trkpt>
      <trkpt lat="42.26966" lon="2.59846">
        <ele>294.14</ele>
        <time>2021-07-30T18:37:47Z</time>
      </trkpt>
      <trkpt lat="42.26982" lon="2.59862">
        <ele>299.02</ele>
        <time>2021-07-30T18:37:43Z</time>
      </trkpt>
      <trkpt lat="42.26992" lon="2.59862">
        <ele>300.08</ele>
        <time>2021-07-30T18:37:42Z</time>
      </trkpt>
      <trkpt lat="42.27043" lon="2.59865">
        <ele>304.29</ele>
        <time>2021-07-30T18:37:38Z</time>
      </trkpt>
      <trkpt lat="42.27127" lon="2.59822">
        <ele>308.55</ele>
        <time>2021-07-30T18:37:31Z</time>
      </trkpt>
      <trkpt lat="42.27141" lon="2.59785">
        <ele>310</ele>
        <time>2021-07-30T18:37:28Z</time>
      </trkpt>
      <trkpt lat="42.27169" lon="2.59716">
        <ele>313.83</ele>
        <time>2021-07-30T18:37:22Z</time>
      </trkpt>
      <trkpt lat="42.27199" lon="2.59699">
        <ele>316.39</ele>
        <time>2021-07-30T18:37:19Z</time>
      </trkpt>
      <trkpt lat="42.27229" lon="2.59692">
        <ele>319.74</ele>
        <time>2021-07-30T18:37:14Z</time>
      </trkpt>
      <trkpt lat="42.2721" lon="2.59731">
        <ele>323.76</ele>
        <time>2021-07-30T18:37:09Z</time>
      </trkpt>
      <trkpt lat="42.27197" lon="2.59747">
        <ele>325.38</ele>
        <time>2021-07-30T18:37:07Z</time>
      </trkpt>
      <trkpt lat="42.27186" lon="2.59764">
        <ele>327.01</ele>
        <time>2021-07-30T18:37:05Z</time>
      </trkpt>
      <trkpt lat="42.27194" lon="2.59795">
        <ele>330.62</ele>
        <time>2021-07-30T18:37:01Z</time>
      </trkpt>
      <trkpt lat="42.27224" lon="2.59771">
        <ele>334.61</ele>
        <time>2021-07-30T18:36:56Z</time>
      </trkpt>
      <trkpt lat="42.27257" lon="2.59766">
        <ele>335.69</ele>
        <time>2021-07-30T18:36:53Z</time>
      </trkpt>
      <trkpt lat="42.2729" lon="2.59759">
        <ele>336.57</ele>
        <time>2021-07-30T18:36:50Z</time>
      </trkpt>
      <trkpt lat="42.27312" lon="2.59722">
        <ele>339.87</ele>
        <time>2021-07-30T18:36:45Z</time>
      </trkpt>
      <trkpt lat="42.27309" lon="2.59712">
        <ele>340.54</ele>
        <time>2021-07-30T18:36:44Z</time>
      </trkpt>
      <trkpt lat="42.27305" lon="2.59699">
        <ele>341.18</ele>
        <time>2021-07-30T18:36:43Z</time>
      </trkpt>
      <trkpt lat="42.27302" lon="2.59685">
        <ele>341.82</ele>
        <time>2021-07-30T18:36:42Z</time>
      </trkpt>
      <trkpt lat="42.27308" lon="2.59592">
        <ele>344.55</ele>
        <time>2021-07-30T18:36:35Z</time>
      </trkpt>
      <trkpt lat="42.2731" lon="2.59582">
        <ele>344.87</ele>
        <time>2021-07-30T18:36:34Z</time>
      </trkpt>
      <trkpt lat="42.27311" lon="2.59572">
        <ele>345.23</ele>
        <time>2021-07-30T18:36:33Z</time>
      </trkpt>
      <trkpt lat="42.27314" lon="2.59562">
        <ele>345.65</ele>
        <time>2021-07-30T18:36:32Z</time>
      </trkpt>
      <trkpt lat="42.27317" lon="2.59553">
        <ele>346.09</ele>
        <time>2021-07-30T18:36:31Z</time>
      </trkpt>
      <trkpt lat="42.27321" lon="2.59546">
        <ele>346.54</ele>
        <time>2021-07-30T18:36:30Z</time>
      </trkpt>
      <trkpt lat="42.27326" lon="2.59541">
        <ele>347.04</ele>
        <time>2021-07-30T18:36:29Z</time>
      </trkpt>
      <trkpt lat="42.27331" lon="2.59538">
        <ele>347.57</ele>
        <time>2021-07-30T18:36:28Z</time>
      </trkpt>
      <trkpt lat="42.2735" lon="2.59538">
        <ele>349.33</ele>
        <time>2021-07-30T18:36:25Z</time>
      </trkpt>
      <trkpt lat="42.27386" lon="2.59542">
        <ele>352.98</ele>
        <time>2021-07-30T18:36:20Z</time>
      </trkpt>
      <trkpt lat="42.27418" lon="2.59544">
        <ele>356.97</ele>
        <time>2021-07-30T18:36:16Z</time>
      </trkpt>
      <trkpt lat="42.27433" lon="2.59554">
        <ele>358.97</ele>
        <time>2021-07-30T18:36:13Z</time>
      </trkpt>
      <trkpt lat="42.27405" lon="2.59609">
        <ele>363.32</ele>
        <time>2021-07-30T18:36:06Z</time>
      </trkpt>
      <trkpt lat="42.27397" lon="2.59627">
        <ele>364.83</ele>
        <time>2021-07-30T18:36:04Z</time>
      </trkpt>
      <trkpt lat="42.27414" lon="2.59639">
        <ele>369.3</ele>
        <time>2021-07-30T18:35:59Z</time>
      </trkpt>
      <trkpt lat="42.27445" lon="2.59611">
        <ele>372.32</ele>
        <time>2021-07-30T18:35:55Z</time>
      </trkpt>
      <trkpt lat="42.27458" lon="2.59602">
        <ele>373.79</ele>
        <time>2021-07-30T18:35:53Z</time>
      </trkpt>
      <trkpt lat="42.27464" lon="2.59598">
        <ele>374.47</ele>
        <time>2021-07-30T18:35:52Z</time>
      </trkpt>
      <trkpt lat="42.2748" lon="2.59602">
        <ele>377.76</ele>
        <time>2021-07-30T18:35:48Z</time>
      </trkpt>
      <trkpt lat="42.27462" lon="2.59633">
        <ele>382.37</ele>
        <time>2021-07-30T18:35:43Z</time>
      </trkpt>
      <trkpt lat="42.27454" lon="2.59666">
        <ele>384.54</ele>
        <time>2021-07-30T18:35:40Z</time>
      </trkpt>
      <trkpt lat="42.27449" lon="2.59705">
        <ele>387.58</ele>
        <time>2021-07-30T18:35:36Z</time>
      </trkpt>
      <trkpt lat="42.27446" lon="2.59768">
        <ele>391.84</ele>
        <time>2021-07-30T18:35:31Z</time>
      </trkpt>
      <trkpt lat="42.27433" lon="2.59818">
        <ele>396.39</ele>
        <time>2021-07-30T18:35:27Z</time>
      </trkpt>
      <trkpt lat="42.27425" lon="2.5983">
        <ele>397.5</ele>
        <time>2021-07-30T18:35:26Z</time>
      </trkpt>
      <trkpt lat="42.27395" lon="2.5988">
        <ele>401.33</ele>
        <time>2021-07-30T18:35:22Z</time>
      </trkpt>
      <trkpt lat="42.27375" lon="2.59932">
        <ele>406.13</ele>
        <time>2021-07-30T18:35:17Z</time>
      </trkpt>
      <trkpt lat="42.27371" lon="2.59942">
        <ele>407.35</ele>
        <time>2021-07-30T18:35:16Z</time>
      </trkpt>
      <trkpt lat="42.27364" lon="2.59983">
        <ele>411.61</ele>
        <time>2021-07-30T18:35:12Z</time>
      </trkpt>
      <trkpt lat="42.27366" lon="2.60014">
        <ele>414.84</ele>
        <time>2021-07-30T18:35:09Z</time>
      </trkpt>
      <trkpt lat="42.27369" lon="2.60038">
        <ele>416.43</ele>
        <time>2021-07-30T18:35:07Z</time>
      </trkpt>
      <trkpt lat="42.2739" lon="2.6008">
        <ele>420.08</ele>
        <time>2021-07-30T18:35:02Z</time>
      </trkpt>
      <trkpt lat="42.27405" lon="2.60059">
        <ele>423.15</ele>
        <time>2021-07-30T18:34:58Z</time>
      </trkpt>
      <trkpt lat="42.27421" lon="2.60012">
        <ele>427.23</ele>
        <time>2021-07-30T18:34:53Z</time>
      </trkpt>
      <trkpt lat="42.27433" lon="2.59997">
        <ele>428.67</ele>
        <time>2021-07-30T18:34:51Z</time>
      </trkpt>
      <trkpt lat="42.27439" lon="2.5999">
        <ele>429.41</ele>
        <time>2021-07-30T18:34:50Z</time>
      </trkpt>
      <trkpt lat="42.27462" lon="2.59989">
        <ele>433.25</ele>
        <time>2021-07-30T18:34:45Z</time>
      </trkpt>
      <trkpt lat="42.27457" lon="2.60027">
        <ele>436.49</ele>
        <time>2021-07-30T18:34:41Z</time>
      </trkpt>
      <trkpt lat="42.27457" lon="2.60057">
        <ele>438.93</ele>
        <time>2021-07-30T18:34:38Z</time>
      </trkpt>
      <trkpt lat="42.27453" lon="2.60085">
        <ele>440.48</ele>
        <time>2021-07-30T18:34:35Z</time>
      </trkpt>
      <trkpt lat="42.27453" lon="2.60103">
        <ele>442.2</ele>
        <time>2021-07-30T18:34:32Z</time>
      </trkpt>
      <trkpt lat="42.27473" lon="2.60098">
        <ele>445.44</ele>
        <time>2021-07-30T18:34:26Z</time>
      </trkpt>
      <trkpt lat="42.27496" lon="2.6004">
        <ele>448.86</ele>
        <time>2021-07-30T18:34:20Z</time>
      </trkpt>
      <trkpt lat="42.27502" lon="2.60007">
        <ele>450.6</ele>
        <time>2021-07-30T18:34:17Z</time>
      </trkpt>
      <trkpt lat="42.27505" lon="2.59995">
        <ele>451.19</ele>
        <time>2021-07-30T18:34:16Z</time>
      </trkpt>
      <trkpt lat="42.27523" lon="2.59974">
        <ele>453.98</ele>
        <time>2021-07-30T18:34:12Z</time>
      </trkpt>
      <trkpt lat="42.27518" lon="2.60022">
        <ele>458.46</ele>
        <time>2021-07-30T18:34:06Z</time>
      </trkpt>
      <trkpt lat="42.27518" lon="2.60033">
        <ele>459.34</ele>
        <time>2021-07-30T18:34:05Z</time>
      </trkpt>
      <trkpt lat="42.27517" lon="2.60095">
        <ele>463.95</ele>
        <time>2021-07-30T18:33:59Z</time>
      </trkpt>
      <trkpt lat="42.27517" lon="2.60117">
        <ele>466.79</ele>
        <time>2021-07-30T18:33:56Z</time>
      </trkpt>
      <trkpt lat="42.2753" lon="2.60166">
        <ele>471.3</ele>
        <time>2021-07-30T18:33:51Z</time>
      </trkpt>
      <trkpt lat="42.27533" lon="2.60176">
        <ele>472.08</ele>
        <time>2021-07-30T18:33:50Z</time>
      </trkpt>
      <trkpt lat="42.27543" lon="2.60234">
        <ele>476.41</ele>
        <time>2021-07-30T18:33:45Z</time>
      </trkpt>
      <trkpt lat="42.27542" lon="2.60247">
        <ele>477.19</ele>
        <time>2021-07-30T18:33:44Z</time>
      </trkpt>
      <trkpt lat="42.27536" lon="2.6029">
        <ele>480.45</ele>
        <time>2021-07-30T18:33:40Z</time>
      </trkpt>
      <trkpt lat="42.27532" lon="2.60344">
        <ele>484.84</ele>
        <time>2021-07-30T18:33:35Z</time>
      </trkpt>
      <trkpt lat="42.27524" lon="2.60392">
        <ele>487.7</ele>
        <time>2021-07-30T18:33:31Z</time>
      </trkpt>
      <trkpt lat="42.27514" lon="2.60458">
        <ele>491.17</ele>
        <time>2021-07-30T18:33:26Z</time>
      </trkpt>
      <trkpt lat="42.275" lon="2.60521">
        <ele>495.65</ele>
        <time>2021-07-30T18:33:21Z</time>
      </trkpt>
      <trkpt lat="42.27499" lon="2.60561">
        <ele>500.33</ele>
        <time>2021-07-30T18:33:17Z</time>
      </trkpt>
      <trkpt lat="42.27513" lon="2.60588">
        <ele>503.57</ele>
        <time>2021-07-30T18:33:14Z</time>
      </trkpt>
      <trkpt lat="42.27533" lon="2.60607">
        <ele>508.46</ele>
        <time>2021-07-30T18:33:10Z</time>
      </trkpt>
      <trkpt lat="42.27548" lon="2.60609">
        <ele>510.25</ele>
        <time>2021-07-30T18:33:08Z</time>
      </trkpt>
      <trkpt lat="42.27577" lon="2.60612">
        <ele>513.84</ele>
        <time>2021-07-30T18:33:04Z</time>
      </trkpt>
      <trkpt lat="42.27622" lon="2.60609">
        <ele>518.18</ele>
        <time>2021-07-30T18:32:58Z</time>
      </trkpt>
      <trkpt lat="42.27664" lon="2.60608">
        <ele>520.82</ele>
        <time>2021-07-30T18:32:52Z</time>
      </trkpt>
      <trkpt lat="42.27677" lon="2.60613">
        <ele>521.83</ele>
        <time>2021-07-30T18:32:50Z</time>
      </trkpt>
      <trkpt lat="42.27729" lon="2.60603">
        <ele>523.74</ele>
        <time>2021-07-30T18:32:44Z</time>
      </trkpt>
      <trkpt lat="42.27744" lon="2.60593">
        <ele>523.74</ele>
        <time>2021-07-30T18:32:42Z</time>
      </trkpt>
      <trkpt lat="42.27797" lon="2.60569">
        <ele>523.75</ele>
        <time>2021-07-30T18:32:34Z</time>
      </trkpt>
      <trkpt lat="42.27826" lon="2.60567">
        <ele>524.92</ele>
        <time>2021-07-30T18:32:31Z</time>
      </trkpt>
      <trkpt lat="42.27884" lon="2.60547">
        <ele>527.01</ele>
        <time>2021-07-30T18:32:25Z</time>
      </trkpt>
      <trkpt lat="42.27949" lon="2.60536">
        <ele>528.33</ele>
        <time>2021-07-30T18:32:19Z</time>
      </trkpt>
      <trkpt lat="42.27993" lon="2.60522">
        <ele>529.99</ele>
        <time>2021-07-30T18:32:14Z</time>
      </trkpt>
      <trkpt lat="42.28023" lon="2.60525">
        <ele>531.68</ele>
        <time>2021-07-30T18:32:11Z</time>
      </trkpt>
      <trkpt lat="42.28032" lon="2.60525">
        <ele>532.32</ele>
        <time>2021-07-30T18:32:10Z</time>
      </trkpt>
      <trkpt lat="42.28082" lon="2.60569">
        <ele>537.52</ele>
        <time>2021-07-30T18:32:03Z</time>
      </trkpt>
      <trkpt lat="42.28103" lon="2.60581">
        <ele>540.24</ele>
        <time>2021-07-30T18:32:00Z</time>
      </trkpt>
      <trkpt lat="42.28142" lon="2.60586">
        <ele>544.69</ele>
        <time>2021-07-30T18:31:55Z</time>
      </trkpt>
      <trkpt lat="42.2815" lon="2.60584">
        <ele>545.49</ele>
        <time>2021-07-30T18:31:54Z</time>
      </trkpt>
      <trkpt lat="42.28222" lon="2.60575">
        <ele>549.12</ele>
        <time>2021-07-30T18:31:47Z</time>
      </trkpt>
      <trkpt lat="42.28258" lon="2.60564">
        <ele>551.24</ele>
        <time>2021-07-30T18:31:43Z</time>
      </trkpt>
      <trkpt lat="42.28264" lon="2.60531">
        <ele>555.75</ele>
        <time>2021-07-30T18:31:38Z</time>
      </trkpt>
      <trkpt lat="42.28243" lon="2.60498">
        <ele>558.12</ele>
        <time>2021-07-30T18:31:34Z</time>
      </trkpt>
      <trkpt lat="42.28214" lon="2.6043">
        <ele>560.49</ele>
        <time>2021-07-30T18:31:26Z</time>
      </trkpt>
      <trkpt lat="42.28208" lon="2.60386">
        <ele>561.39</ele>
        <time>2021-07-30T18:31:22Z</time>
      </trkpt>
      <trkpt lat="42.28221" lon="2.60309">
        <ele>562.83</ele>
        <time>2021-07-30T18:31:16Z</time>
      </trkpt>
      <trkpt lat="42.28193" lon="2.60215">
        <ele>565.21</ele>
        <time>2021-07-30T18:31:07Z</time>
      </trkpt>
      <trkpt lat="42.28174" lon="2.60181">
        <ele>567.02</ele>
        <time>2021-07-30T18:31:03Z</time>
      </trkpt>
      <trkpt lat="42.28164" lon="2.6012">
        <ele>570.18</ele>
        <time>2021-07-30T18:30:58Z</time>
      </trkpt>
      <trkpt lat="42.28153" lon="2.6003">
        <ele>574.73</ele>
        <time>2021-07-30T18:30:50Z</time>
      </trkpt>
      <trkpt lat="42.28143" lon="2.59975">
        <ele>575.85</ele>
        <time>2021-07-30T18:30:45Z</time>
      </trkpt>
      <trkpt lat="42.28145" lon="2.59876">
        <ele>577.78</ele>
        <time>2021-07-30T18:30:37Z</time>
      </trkpt>
      <trkpt lat="42.28158" lon="2.59839">
        <ele>580.34</ele>
        <time>2021-07-30T18:30:32Z</time>
      </trkpt>
      <trkpt lat="42.28178" lon="2.59825">
        <ele>582.14</ele>
        <time>2021-07-30T18:30:29Z</time>
      </trkpt>
      <trkpt lat="42.282" lon="2.59814">
        <ele>583.98</ele>
        <time>2021-07-30T18:30:26Z</time>
      </trkpt>
      <trkpt lat="42.28241" lon="2.59828">
        <ele>587.67</ele>
        <time>2021-07-30T18:30:20Z</time>
      </trkpt>
      <trkpt lat="42.28246" lon="2.59835">
        <ele>588.3</ele>
        <time>2021-07-30T18:30:19Z</time>
      </trkpt>
      <trkpt lat="42.28266" lon="2.59878">
        <ele>591.52</ele>
        <time>2021-07-30T18:30:14Z</time>
      </trkpt>
      <trkpt lat="42.28287" lon="2.59926">
        <ele>594.81</ele>
        <time>2021-07-30T18:30:08Z</time>
      </trkpt>
      <trkpt lat="42.28298" lon="2.5996">
        <ele>597.9</ele>
        <time>2021-07-30T18:30:03Z</time>
      </trkpt>
      <trkpt lat="42.28311" lon="2.60005">
        <ele>601.91</ele>
        <time>2021-07-30T18:29:57Z</time>
      </trkpt>
      <trkpt lat="42.28314" lon="2.60015">
        <ele>602.52</ele>
        <time>2021-07-30T18:29:56Z</time>
      </trkpt>
      <trkpt lat="42.28342" lon="2.60065">
        <ele>606.6</ele>
        <time>2021-07-30T18:29:49Z</time>
      </trkpt>
      <trkpt lat="42.28352" lon="2.60069">
        <ele>607.84</ele>
        <time>2021-07-30T18:29:47Z</time>
      </trkpt>
      <trkpt lat="42.28402" lon="2.60091">
        <ele>611.96</ele>
        <time>2021-07-30T18:29:40Z</time>
      </trkpt>
      <trkpt lat="42.28417" lon="2.60091">
        <ele>613.39</ele>
        <time>2021-07-30T18:29:37Z</time>
      </trkpt>
      <trkpt lat="42.28435" lon="2.60097">
        <ele>614.67</ele>
        <time>2021-07-30T18:29:34Z</time>
      </trkpt>
      <trkpt lat="42.28399" lon="2.60104">
        <ele>618.06</ele>
        <time>2021-07-30T18:29:27Z</time>
      </trkpt>
      <trkpt lat="42.28384" lon="2.60103">
        <ele>619.39</ele>
        <time>2021-07-30T18:29:25Z</time>
      </trkpt>
      <trkpt lat="42.28328" lon="2.60112">
        <ele>623.05</ele>
        <time>2021-07-30T18:29:18Z</time>
      </trkpt>
      <trkpt lat="42.28282" lon="2.60103">
        <ele>624.97</ele>
        <time>2021-07-30T18:29:11Z</time>
      </trkpt>
      <trkpt lat="42.28271" lon="2.60134">
        <ele>628.19</ele>
        <time>2021-07-30T18:29:05Z</time>
      </trkpt>
      <trkpt lat="42.28291" lon="2.60157">
        <ele>629.97</ele>
        <time>2021-07-30T18:29:02Z</time>
      </trkpt>
      <trkpt lat="42.28296" lon="2.60165">
        <ele>630.59</ele>
        <time>2021-07-30T18:29:01Z</time>
      </trkpt>
      <trkpt lat="42.28317" lon="2.60192">
        <ele>633.61</ele>
        <time>2021-07-30T18:28:57Z</time>
      </trkpt>
      <trkpt lat="42.28328" lon="2.60237">
        <ele>638.2</ele>
        <time>2021-07-30T18:28:52Z</time>
      </trkpt>
      <trkpt lat="42.2834" lon="2.60246">
        <ele>640.42</ele>
        <time>2021-07-30T18:28:50Z</time>
      </trkpt>
      <trkpt lat="42.2836" lon="2.60262">
        <ele>643.48</ele>
        <time>2021-07-30T18:28:47Z</time>
      </trkpt>
      <trkpt lat="42.28394" lon="2.60281">
        <ele>647.7</ele>
        <time>2021-07-30T18:28:42Z</time>
      </trkpt>
      <trkpt lat="42.28405" lon="2.60293">
        <ele>649.02</ele>
        <time>2021-07-30T18:28:40Z</time>
      </trkpt>
      <trkpt lat="42.28415" lon="2.60307">
        <ele>650.2</ele>
        <time>2021-07-30T18:28:38Z</time>
      </trkpt>
      <trkpt lat="42.28436" lon="2.60323">
        <ele>653.7</ele>
        <time>2021-07-30T18:28:33Z</time>
      </trkpt>
      <trkpt lat="42.28448" lon="2.60282">
        <ele>657.29</ele>
        <time>2021-07-30T18:28:27Z</time>
      </trkpt>
      <trkpt lat="42.28463" lon="2.60287">
        <ele>661.43</ele>
        <time>2021-07-30T18:28:22Z</time>
      </trkpt>
      <trkpt lat="42.28466" lon="2.60336">
        <ele>664.86</ele>
        <time>2021-07-30T18:28:17Z</time>
      </trkpt>
      <trkpt lat="42.28481" lon="2.60391">
        <ele>670.04</ele>
        <time>2021-07-30T18:28:10Z</time>
      </trkpt>
      <trkpt lat="42.28491" lon="2.60423">
        <ele>672.84</ele>
        <time>2021-07-30T18:28:06Z</time>
      </trkpt>
      <trkpt lat="42.28513" lon="2.60428">
        <ele>677.88</ele>
        <time>2021-07-30T18:28:01Z</time>
      </trkpt>
      <trkpt lat="42.28508" lon="2.60405">
        <ele>680.56</ele>
        <time>2021-07-30T18:27:58Z</time>
      </trkpt>
      <trkpt lat="42.28513" lon="2.60357">
        <ele>685.06</ele>
        <time>2021-07-30T18:27:53Z</time>
      </trkpt>
      <trkpt lat="42.28523" lon="2.6034">
        <ele>687.04</ele>
        <time>2021-07-30T18:27:51Z</time>
      </trkpt>
      <trkpt lat="42.28547" lon="2.60307">
        <ele>691.99</ele>
        <time>2021-07-30T18:27:46Z</time>
      </trkpt>
      <trkpt lat="42.28556" lon="2.60293">
        <ele>694.24</ele>
        <time>2021-07-30T18:27:44Z</time>
      </trkpt>
      <trkpt lat="42.2857" lon="2.60264">
        <ele>697.45</ele>
        <time>2021-07-30T18:27:41Z</time>
      </trkpt>
      <trkpt lat="42.28587" lon="2.60226">
        <ele>702.56</ele>
        <time>2021-07-30T18:27:37Z</time>
      </trkpt>
      <trkpt lat="42.28591" lon="2.60219">
        <ele>704.01</ele>
        <time>2021-07-30T18:27:36Z</time>
      </trkpt>
      <trkpt lat="42.28617" lon="2.60209">
        <ele>709.62</ele>
        <time>2021-07-30T18:27:32Z</time>
      </trkpt>
      <trkpt lat="42.28633" lon="2.60198">
        <ele>712.46</ele>
        <time>2021-07-30T18:27:30Z</time>
      </trkpt>
      <trkpt lat="42.28643" lon="2.60193">
        <ele>713.81</ele>
        <time>2021-07-30T18:27:29Z</time>
      </trkpt>
      <trkpt lat="42.28692" lon="2.60181">
        <ele>720.15</ele>
        <time>2021-07-30T18:27:24Z</time>
      </trkpt>
      <trkpt lat="42.28727" lon="2.60175">
        <ele>724.13</ele>
        <time>2021-07-30T18:27:20Z</time>
      </trkpt>
      <trkpt lat="42.28745" lon="2.60172">
        <ele>725.75</ele>
        <time>2021-07-30T18:27:18Z</time>
      </trkpt>
      <trkpt lat="42.28767" lon="2.60164">
        <ele>728.25</ele>
        <time>2021-07-30T18:27:15Z</time>
      </trkpt>
      <trkpt lat="42.28771" lon="2.6012">
        <ele>732.73</ele>
        <time>2021-07-30T18:27:10Z</time>
      </trkpt>
      <trkpt lat="42.28797" lon="2.60091">
        <ele>736.46</ele>
        <time>2021-07-30T18:27:06Z</time>
      </trkpt>
      <trkpt lat="42.28826" lon="2.60071">
        <ele>740.79</ele>
        <time>2021-07-30T18:27:02Z</time>
      </trkpt>
      <trkpt lat="42.28834" lon="2.6005">
        <ele>742.95</ele>
        <time>2021-07-30T18:27:00Z</time>
      </trkpt>
      <trkpt lat="42.28848" lon="2.6001">
        <ele>747.17</ele>
        <time>2021-07-30T18:26:56Z</time>
      </trkpt>
      <trkpt lat="42.28854" lon="2.59988">
        <ele>749.08</ele>
        <time>2021-07-30T18:26:54Z</time>
      </trkpt>
      <trkpt lat="42.28881" lon="2.59929">
        <ele>753.03</ele>
        <time>2021-07-30T18:26:49Z</time>
      </trkpt>
      <trkpt lat="42.28904" lon="2.59891">
        <ele>755.04</ele>
        <time>2021-07-30T18:26:46Z</time>
      </trkpt>
      <trkpt lat="42.2892" lon="2.5989">
        <ele>759.4</ele>
        <time>2021-07-30T18:26:40Z</time>
      </trkpt>
      <trkpt lat="42.28917" lon="2.59898">
        <ele>760.18</ele>
        <time>2021-07-30T18:26:39Z</time>
      </trkpt>
      <trkpt lat="42.28907" lon="2.59938">
        <ele>763.26</ele>
        <time>2021-07-30T18:26:35Z</time>
      </trkpt>
      <trkpt lat="42.28901" lon="2.59991">
        <ele>767.04</ele>
        <time>2021-07-30T18:26:30Z</time>
      </trkpt>
      <trkpt lat="42.28899" lon="2.60026">
        <ele>770.66</ele>
        <time>2021-07-30T18:26:26Z</time>
      </trkpt>
      <trkpt lat="42.28901" lon="2.60053">
        <ele>774.04</ele>
        <time>2021-07-30T18:26:23Z</time>
      </trkpt>
      <trkpt lat="42.28902" lon="2.60102">
        <ele>778.2</ele>
        <time>2021-07-30T18:26:18Z</time>
      </trkpt>
      <trkpt lat="42.289" lon="2.60153">
        <ele>781.5</ele>
        <time>2021-07-30T18:26:13Z</time>
      </trkpt>
      <trkpt lat="42.28904" lon="2.6021">
        <ele>783.95</ele>
        <time>2021-07-30T18:26:07Z</time>
      </trkpt>
      <trkpt lat="42.28909" lon="2.60224">
        <ele>784.86</ele>
        <time>2021-07-30T18:26:05Z</time>
      </trkpt>
      <trkpt lat="42.28918" lon="2.60257">
        <ele>785.75</ele>
        <time>2021-07-30T18:26:02Z</time>
      </trkpt>
      <trkpt lat="42.28908" lon="2.60322">
        <ele>787.79</ele>
        <time>2021-07-30T18:25:56Z</time>
      </trkpt>
      <trkpt lat="42.28901" lon="2.60327">
        <ele>788.19</ele>
        <time>2021-07-30T18:25:55Z</time>
      </trkpt>
      <trkpt lat="42.28855" lon="2.60361">
        <ele>791.83</ele>
        <time>2021-07-30T18:25:48Z</time>
      </trkpt>
      <trkpt lat="42.2883" lon="2.60398">
        <ele>795.31</ele>
        <time>2021-07-30T18:25:42Z</time>
      </trkpt>
      <trkpt lat="42.2883" lon="2.60428">
        <ele>797.19</ele>
        <time>2021-07-30T18:25:38Z</time>
      </trkpt>
      <trkpt lat="42.28833" lon="2.60439">
        <ele>797.95</ele>
        <time>2021-07-30T18:25:36Z</time>
      </trkpt>
      <trkpt lat="42.28835" lon="2.60444">
        <ele>798.38</ele>
        <time>2021-07-30T18:25:35Z</time>
      </trkpt>
      <trkpt lat="42.28813" lon="2.6046">
        <ele>801.81</ele>
        <time>2021-07-30T18:25:28Z</time>
      </trkpt>
      <trkpt lat="42.28768" lon="2.60494">
        <ele>805.16</ele>
        <time>2021-07-30T18:25:20Z</time>
      </trkpt>
      <trkpt lat="42.28752" lon="2.60517">
        <ele>806.33</ele>
        <time>2021-07-30T18:25:17Z</time>
      </trkpt>
      <trkpt lat="42.28739" lon="2.60551">
        <ele>808</ele>
        <time>2021-07-30T18:25:13Z</time>
      </trkpt>
      <trkpt lat="42.28734" lon="2.60572">
        <ele>809.14</ele>
        <time>2021-07-30T18:25:11Z</time>
      </trkpt>
      <trkpt lat="42.28732" lon="2.60616">
        <ele>812.5</ele>
        <time>2021-07-30T18:25:06Z</time>
      </trkpt>
      <trkpt lat="42.2874" lon="2.60628">
        <ele>813.78</ele>
        <time>2021-07-30T18:25:04Z</time>
      </trkpt>
      <trkpt lat="42.28755" lon="2.60657">
        <ele>816.47</ele>
        <time>2021-07-30T18:25:00Z</time>
      </trkpt>
      <trkpt lat="42.28759" lon="2.60678">
        <ele>817.76</ele>
        <time>2021-07-30T18:24:58Z</time>
      </trkpt>
      <trkpt lat="42.28764" lon="2.60728">
        <ele>820.1</ele>
        <time>2021-07-30T18:24:54Z</time>
      </trkpt>
      <trkpt lat="42.28758" lon="2.60767">
        <ele>821.64</ele>
        <time>2021-07-30T18:24:51Z</time>
      </trkpt>
      <trkpt lat="42.28755" lon="2.60833">
        <ele>826.29</ele>
        <time>2021-07-30T18:24:45Z</time>
      </trkpt>
      <trkpt lat="42.28757" lon="2.60846">
        <ele>827.18</ele>
        <time>2021-07-30T18:24:44Z</time>
      </trkpt>
      <trkpt lat="42.28769" lon="2.6091">
        <ele>831.65</ele>
        <time>2021-07-30T18:24:38Z</time>
      </trkpt>
      <trkpt lat="42.28776" lon="2.60927">
        <ele>833.23</ele>
        <time>2021-07-30T18:24:36Z</time>
      </trkpt>
      <trkpt lat="42.28794" lon="2.60991">
        <ele>837.56</ele>
        <time>2021-07-30T18:24:30Z</time>
      </trkpt>
      <trkpt lat="42.28809" lon="2.61014">
        <ele>839.38</ele>
        <time>2021-07-30T18:24:27Z</time>
      </trkpt>
      <trkpt lat="42.2882" lon="2.61055">
        <ele>841.87</ele>
        <time>2021-07-30T18:24:23Z</time>
      </trkpt>
      <trkpt lat="42.28823" lon="2.61091">
        <ele>844.32</ele>
        <time>2021-07-30T18:24:19Z</time>
      </trkpt>
      <trkpt lat="42.28829" lon="2.61117">
        <ele>845.86</ele>
        <time>2021-07-30T18:24:16Z</time>
      </trkpt>
      <trkpt lat="42.28836" lon="2.61193">
        <ele>849.38</ele>
        <time>2021-07-30T18:24:08Z</time>
      </trkpt>
      <trkpt lat="42.28836" lon="2.61201">
        <ele>849.79</ele>
        <time>2021-07-30T18:24:07Z</time>
      </trkpt>
      <trkpt lat="42.28856" lon="2.61198">
        <ele>852.79</ele>
        <time>2021-07-30T18:24:01Z</time>
      </trkpt>
      <trkpt lat="42.28855" lon="2.61131">
        <ele>855.87</ele>
        <time>2021-07-30T18:23:54Z</time>
      </trkpt>
      <trkpt lat="42.28857" lon="2.61049">
        <ele>858.75</ele>
        <time>2021-07-30T18:23:46Z</time>
      </trkpt>
      <trkpt lat="42.28851" lon="2.60987">
        <ele>862.35</ele>
        <time>2021-07-30T18:23:38Z</time>
      </trkpt>
      <trkpt lat="42.28849" lon="2.6098">
        <ele>862.93</ele>
        <time>2021-07-30T18:23:37Z</time>
      </trkpt>
      <trkpt lat="42.28855" lon="2.6098">
        <ele>867.04</ele>
        <time>2021-07-30T18:23:31Z</time>
      </trkpt>
      <trkpt lat="42.28856" lon="2.61004">
        <ele>869.57</ele>
        <time>2021-07-30T18:23:28Z</time>
      </trkpt>
      <trkpt lat="42.28861" lon="2.61032">
        <ele>872.19</ele>
        <time>2021-07-30T18:23:25Z</time>
      </trkpt>
      <trkpt lat="42.28877" lon="2.61091">
        <ele>876.04</ele>
        <time>2021-07-30T18:23:19Z</time>
      </trkpt>
      <trkpt lat="42.28896" lon="2.61138">
        <ele>877.74</ele>
        <time>2021-07-30T18:23:14Z</time>
      </trkpt>
      <trkpt lat="42.289" lon="2.61167">
        <ele>878.82</ele>
        <time>2021-07-30T18:23:10Z</time>
      </trkpt>
      <trkpt lat="42.28893" lon="2.61212">
        <ele>879.74</ele>
        <time>2021-07-30T18:23:06Z</time>
      </trkpt>
      <trkpt lat="42.28891" lon="2.61231">
        <ele>879.98</ele>
        <time>2021-07-30T18:23:04Z</time>
      </trkpt>
      <trkpt lat="42.28907" lon="2.61286">
        <ele>880.33</ele>
        <time>2021-07-30T18:22:57Z</time>
      </trkpt>
      <trkpt lat="42.28903" lon="2.61296">
        <ele>880.69</ele>
        <time>2021-07-30T18:22:54Z</time>
      </trkpt>
      <trkpt lat="42.28891" lon="2.61313">
        <ele>881.27</ele>
        <time>2021-07-30T18:22:50Z</time>
      </trkpt>
      <trkpt lat="42.28878" lon="2.6137">
        <ele>881.15</ele>
        <time>2021-07-30T18:22:45Z</time>
      </trkpt>
      <trkpt lat="42.28869" lon="2.61404">
        <ele>880.96</ele>
        <time>2021-07-30T18:22:41Z</time>
      </trkpt>
      <trkpt lat="42.2887" lon="2.61408">
        <ele>881.06</ele>
        <time>2021-07-30T18:22:40Z</time>
      </trkpt>
      <trkpt lat="42.28883" lon="2.61441">
        <ele>883.65</ele>
        <time>2021-07-30T18:22:34Z</time>
      </trkpt>
      <trkpt lat="42.28877" lon="2.61472">
        <ele>885.39</ele>
        <time>2021-07-30T18:22:31Z</time>
      </trkpt>
      <trkpt lat="42.28864" lon="2.6157">
        <ele>888.67</ele>
        <time>2021-07-30T18:22:23Z</time>
      </trkpt>
      <trkpt lat="42.2885" lon="2.61607">
        <ele>889.89</ele>
        <time>2021-07-30T18:22:19Z</time>
      </trkpt>
      <trkpt lat="42.28829" lon="2.61638">
        <ele>890.02</ele>
        <time>2021-07-30T18:22:16Z</time>
      </trkpt>
      <trkpt lat="42.28824" lon="2.61649">
        <ele>890.04</ele>
        <time>2021-07-30T18:22:15Z</time>
      </trkpt>
      <trkpt lat="42.28799" lon="2.61732">
        <ele>889.44</ele>
        <time>2021-07-30T18:22:08Z</time>
      </trkpt>
      <trkpt lat="42.28773" lon="2.61757">
        <ele>889.66</ele>
        <time>2021-07-30T18:22:04Z</time>
      </trkpt>
      <trkpt lat="42.28749" lon="2.61804">
        <ele>891.69</ele>
        <time>2021-07-30T18:21:58Z</time>
      </trkpt>
      <trkpt lat="42.2875" lon="2.61814">
        <ele>892.08</ele>
        <time>2021-07-30T18:21:57Z</time>
      </trkpt>
      <trkpt lat="42.28753" lon="2.61837">
        <ele>892.89</ele>
        <time>2021-07-30T18:21:55Z</time>
      </trkpt>
      <trkpt lat="42.28756" lon="2.61847">
        <ele>893.21</ele>
        <time>2021-07-30T18:21:54Z</time>
      </trkpt>
      <trkpt lat="42.28758" lon="2.61883">
        <ele>894.33</ele>
        <time>2021-07-30T18:21:51Z</time>
      </trkpt>
      <trkpt lat="42.28758" lon="2.61895">
        <ele>894.74</ele>
        <time>2021-07-30T18:21:50Z</time>
      </trkpt>
      <trkpt lat="42.28759" lon="2.61908">
        <ele>895.06</ele>
        <time>2021-07-30T18:21:49Z</time>
      </trkpt>
      <trkpt lat="42.28758" lon="2.61919">
        <ele>895.37</ele>
        <time>2021-07-30T18:21:48Z</time>
      </trkpt>
      <trkpt lat="42.28754" lon="2.61935">
        <ele>896.25</ele>
        <time>2021-07-30T18:21:46Z</time>
      </trkpt>
      <trkpt lat="42.28742" lon="2.61952">
        <ele>897.4</ele>
        <time>2021-07-30T18:21:43Z</time>
      </trkpt>
      <trkpt lat="42.28729" lon="2.61984">
        <ele>899.12</ele>
        <time>2021-07-30T18:21:39Z</time>
      </trkpt>
      <trkpt lat="42.28718" lon="2.62042">
        <ele>900.79</ele>
        <time>2021-07-30T18:21:33Z</time>
      </trkpt>
      <trkpt lat="42.28716" lon="2.62094">
        <ele>902.38</ele>
        <time>2021-07-30T18:21:24Z</time>
      </trkpt>
      <trkpt lat="42.28717" lon="2.62116">
        <ele>902.53</ele>
        <time>2021-07-30T18:21:20Z</time>
      </trkpt>
      <trkpt lat="42.28721" lon="2.6213">
        <ele>903.08</ele>
        <time>2021-07-30T18:21:13Z</time>
      </trkpt>
      <trkpt lat="42.28722" lon="2.62142">
        <ele>905.3</ele>
        <time>2021-07-30T18:21:01Z</time>
      </trkpt>
      <trkpt lat="42.28725" lon="2.62175">
        <ele>909.67</ele>
        <time>2021-07-30T18:20:53Z</time>
      </trkpt>
      <trkpt lat="42.28728" lon="2.62225">
        <ele>912</ele>
        <time>2021-07-30T18:20:49Z</time>
      </trkpt>
      <trkpt lat="42.28726" lon="2.62266">
        <ele>914.16</ele>
        <time>2021-07-30T18:20:46Z</time>
      </trkpt>
      <trkpt lat="42.28728" lon="2.62301">
        <ele>916.16</ele>
        <time>2021-07-30T18:20:43Z</time>
      </trkpt>
      <trkpt lat="42.28744" lon="2.62346">
        <ele>920.15</ele>
        <time>2021-07-30T18:20:37Z</time>
      </trkpt>
      <trkpt lat="42.28763" lon="2.62373">
        <ele>922.74</ele>
        <time>2021-07-30T18:20:33Z</time>
      </trkpt>
      <trkpt lat="42.28785" lon="2.624">
        <ele>925.42</ele>
        <time>2021-07-30T18:20:29Z</time>
      </trkpt>
      <trkpt lat="42.28797" lon="2.62419">
        <ele>927.33</ele>
        <time>2021-07-30T18:20:26Z</time>
      </trkpt>
      <trkpt lat="42.28801" lon="2.62433">
        <ele>929.75</ele>
        <time>2021-07-30T18:20:23Z</time>
      </trkpt>
      <trkpt lat="42.28803" lon="2.62439">
        <ele>930.5</ele>
        <time>2021-07-30T18:20:22Z</time>
      </trkpt>
      <trkpt lat="42.28808" lon="2.62494">
        <ele>934.35</ele>
        <time>2021-07-30T18:20:17Z</time>
      </trkpt>
      <trkpt lat="42.28819" lon="2.62557">
        <ele>937.51</ele>
        <time>2021-07-30T18:20:12Z</time>
      </trkpt>
      <trkpt lat="42.28831" lon="2.62581">
        <ele>939.52</ele>
        <time>2021-07-30T18:20:09Z</time>
      </trkpt>
      <trkpt lat="42.28833" lon="2.62593">
        <ele>941</ele>
        <time>2021-07-30T18:20:07Z</time>
      </trkpt>
      <trkpt lat="42.2884" lon="2.62658">
        <ele>944.63</ele>
        <time>2021-07-30T18:20:01Z</time>
      </trkpt>
      <trkpt lat="42.28833" lon="2.62743">
        <ele>947.54</ele>
        <time>2021-07-30T18:19:54Z</time>
      </trkpt>
      <trkpt lat="42.28833" lon="2.62773">
        <ele>948.96</ele>
        <time>2021-07-30T18:19:49Z</time>
      </trkpt>
      <trkpt lat="42.28817" lon="2.62792">
        <ele>948.84</ele>
        <time>2021-07-30T18:19:46Z</time>
      </trkpt>
      <trkpt lat="42.28812" lon="2.62801">
        <ele>948.59</ele>
        <time>2021-07-30T18:19:45Z</time>
      </trkpt>
      <trkpt lat="42.2879" lon="2.62845">
        <ele>944.76</ele>
        <time>2021-07-30T18:19:39Z</time>
      </trkpt>
      <trkpt lat="42.28787" lon="2.62891">
        <ele>941.51</ele>
        <time>2021-07-30T18:19:35Z</time>
      </trkpt>
      <trkpt lat="42.28784" lon="2.62913">
        <ele>939.74</ele>
        <time>2021-07-30T18:19:33Z</time>
      </trkpt>
      <trkpt lat="42.28774" lon="2.62976">
        <ele>935.48</ele>
        <time>2021-07-30T18:19:28Z</time>
      </trkpt>
      <trkpt lat="42.28751" lon="2.63036">
        <ele>931.93</ele>
        <time>2021-07-30T18:19:23Z</time>
      </trkpt>
      <trkpt lat="42.28745" lon="2.63045">
        <ele>931.32</ele>
        <time>2021-07-30T18:19:22Z</time>
      </trkpt>
      <trkpt lat="42.2872" lon="2.63097">
        <ele>926.52</ele>
        <time>2021-07-30T18:19:15Z</time>
      </trkpt>
      <trkpt lat="42.28718" lon="2.63118">
        <ele>925.47</ele>
        <time>2021-07-30T18:19:13Z</time>
      </trkpt>
      <trkpt lat="42.2871" lon="2.63173">
        <ele>920.44</ele>
        <time>2021-07-30T18:19:05Z</time>
      </trkpt>
      <trkpt lat="42.28727" lon="2.63222">
        <ele>915.98</ele>
        <time>2021-07-30T18:18:59Z</time>
      </trkpt>
      <trkpt lat="42.28727" lon="2.63254">
        <ele>913.49</ele>
        <time>2021-07-30T18:18:56Z</time>
      </trkpt>
      <trkpt lat="42.28737" lon="2.6332">
        <ele>909.47</ele>
        <time>2021-07-30T18:18:51Z</time>
      </trkpt>
      <trkpt lat="42.28739" lon="2.63376">
        <ele>906.33</ele>
        <time>2021-07-30T18:18:47Z</time>
      </trkpt>
      <trkpt lat="42.28731" lon="2.63442">
        <ele>902.59</ele>
        <time>2021-07-30T18:18:42Z</time>
      </trkpt>
      <trkpt lat="42.2872" lon="2.63528">
        <ele>898.25</ele>
        <time>2021-07-30T18:18:35Z</time>
      </trkpt>
      <trkpt lat="42.28719" lon="2.63533">
        <ele>897.63</ele>
        <time>2021-07-30T18:18:34Z</time>
      </trkpt>
      <trkpt lat="42.28728" lon="2.6354">
        <ele>894.8</ele>
        <time>2021-07-30T18:18:29Z</time>
      </trkpt>
      <trkpt lat="42.28746" lon="2.63492">
        <ele>891.23</ele>
        <time>2021-07-30T18:18:23Z</time>
      </trkpt>
      <trkpt lat="42.28758" lon="2.63478">
        <ele>890.14</ele>
        <time>2021-07-30T18:18:21Z</time>
      </trkpt>
      <trkpt lat="42.28803" lon="2.63418">
        <ele>886.4</ele>
        <time>2021-07-30T18:18:12Z</time>
      </trkpt>
      <trkpt lat="42.2881" lon="2.63404">
        <ele>884.35</ele>
        <time>2021-07-30T18:18:08Z</time>
      </trkpt>
      <trkpt lat="42.28822" lon="2.63384">
        <ele>882.39</ele>
        <time>2021-07-30T18:18:04Z</time>
      </trkpt>
      <trkpt lat="42.28829" lon="2.63365">
        <ele>881.33</ele>
        <time>2021-07-30T18:18:01Z</time>
      </trkpt>
      <trkpt lat="42.28837" lon="2.63356">
        <ele>880.58</ele>
        <time>2021-07-30T18:17:59Z</time>
      </trkpt>
      <trkpt lat="42.28867" lon="2.63324">
        <ele>878.78</ele>
        <time>2021-07-30T18:17:53Z</time>
      </trkpt>
      <trkpt lat="42.28904" lon="2.63322">
        <ele>877.78</ele>
        <time>2021-07-30T18:17:48Z</time>
      </trkpt>
      <trkpt lat="42.28935" lon="2.63329">
        <ele>877.37</ele>
        <time>2021-07-30T18:17:44Z</time>
      </trkpt>
      <trkpt lat="42.2895" lon="2.63346">
        <ele>877.23</ele>
        <time>2021-07-30T18:17:42Z</time>
      </trkpt>
      <trkpt lat="42.28986" lon="2.634">
        <ele>876.11</ele>
        <time>2021-07-30T18:17:35Z</time>
      </trkpt>
      <trkpt lat="42.29008" lon="2.63398">
        <ele>874.21</ele>
        <time>2021-07-30T18:17:31Z</time>
      </trkpt>
      <trkpt lat="42.29032" lon="2.634">
        <ele>872.06</ele>
        <time>2021-07-30T18:17:27Z</time>
      </trkpt>
      <trkpt lat="42.29043" lon="2.63412">
        <ele>870.92</ele>
        <time>2021-07-30T18:17:25Z</time>
      </trkpt>
      <trkpt lat="42.29064" lon="2.6343">
        <ele>867.76</ele>
        <time>2021-07-30T18:17:20Z</time>
      </trkpt>
      <trkpt lat="42.29074" lon="2.63431">
        <ele>866.58</ele>
        <time>2021-07-30T18:17:18Z</time>
      </trkpt>
      <trkpt lat="42.29089" lon="2.63439">
        <ele>864.74</ele>
        <time>2021-07-30T18:17:15Z</time>
      </trkpt>
      <trkpt lat="42.2911" lon="2.63442">
        <ele>861.96</ele>
        <time>2021-07-30T18:17:11Z</time>
      </trkpt>
      <trkpt lat="42.29119" lon="2.6345">
        <ele>860.88</ele>
        <time>2021-07-30T18:17:09Z</time>
      </trkpt>
      <trkpt lat="42.29128" lon="2.6346">
        <ele>859.7</ele>
        <time>2021-07-30T18:17:07Z</time>
      </trkpt>
      <trkpt lat="42.29134" lon="2.63463">
        <ele>859.09</ele>
        <time>2021-07-30T18:17:06Z</time>
      </trkpt>
      <trkpt lat="42.2916" lon="2.63488">
        <ele>855.47</ele>
        <time>2021-07-30T18:17:00Z</time>
      </trkpt>
      <trkpt lat="42.29174" lon="2.63503">
        <ele>853.51</ele>
        <time>2021-07-30T18:16:57Z</time>
      </trkpt>
      <trkpt lat="42.29203" lon="2.63535">
        <ele>849.59</ele>
        <time>2021-07-30T18:16:51Z</time>
      </trkpt>
      <trkpt lat="42.29221" lon="2.63542">
        <ele>847.51</ele>
        <time>2021-07-30T18:16:48Z</time>
      </trkpt>
      <trkpt lat="42.2925" lon="2.63551">
        <ele>844.38</ele>
        <time>2021-07-30T18:16:43Z</time>
      </trkpt>
      <trkpt lat="42.29302" lon="2.63574">
        <ele>840.14</ele>
        <time>2021-07-30T18:16:36Z</time>
      </trkpt>
      <trkpt lat="42.29323" lon="2.63583">
        <ele>838.7</ele>
        <time>2021-07-30T18:16:33Z</time>
      </trkpt>
      <trkpt lat="42.29351" lon="2.63584">
        <ele>836.42</ele>
        <time>2021-07-30T18:16:28Z</time>
      </trkpt>
      <trkpt lat="42.29382" lon="2.63604">
        <ele>834.48</ele>
        <time>2021-07-30T18:16:21Z</time>
      </trkpt>
      <trkpt lat="42.29381" lon="2.63632">
        <ele>833.21</ele>
        <time>2021-07-30T18:16:18Z</time>
      </trkpt>
      <trkpt lat="42.2937" lon="2.63689">
        <ele>830.13</ele>
        <time>2021-07-30T18:16:11Z</time>
      </trkpt>
      <trkpt lat="42.29366" lon="2.63711">
        <ele>827.05</ele>
        <time>2021-07-30T18:16:06Z</time>
      </trkpt>
      <trkpt lat="42.29366" lon="2.63757">
        <ele>822.78</ele>
        <time>2021-07-30T18:15:59Z</time>
      </trkpt>
      <trkpt lat="42.29364" lon="2.63783">
        <ele>821.34</ele>
        <time>2021-07-30T18:15:56Z</time>
      </trkpt>
      <trkpt lat="42.29355" lon="2.63826">
        <ele>818.2</ele>
        <time>2021-07-30T18:15:49Z</time>
      </trkpt>
      <trkpt lat="42.29347" lon="2.63856">
        <ele>816.44</ele>
        <time>2021-07-30T18:15:44Z</time>
      </trkpt>
      <trkpt lat="42.29337" lon="2.63922">
        <ele>812.56</ele>
        <time>2021-07-30T18:15:35Z</time>
      </trkpt>
      <trkpt lat="42.29323" lon="2.63968">
        <ele>809.52</ele>
        <time>2021-07-30T18:15:28Z</time>
      </trkpt>
      <trkpt lat="42.29311" lon="2.64028">
        <ele>805.93</ele>
        <time>2021-07-30T18:15:21Z</time>
      </trkpt>
      <trkpt lat="42.2931" lon="2.64074">
        <ele>802.78</ele>
        <time>2021-07-30T18:15:15Z</time>
      </trkpt>
      <trkpt lat="42.29316" lon="2.64109">
        <ele>800.11</ele>
        <time>2021-07-30T18:15:10Z</time>
      </trkpt>
      <trkpt lat="42.29321" lon="2.64158">
        <ele>796.78</ele>
        <time>2021-07-30T18:15:02Z</time>
      </trkpt>
      <trkpt lat="42.29325" lon="2.64191">
        <ele>794.64</ele>
        <time>2021-07-30T18:14:57Z</time>
      </trkpt>
      <trkpt lat="42.29326" lon="2.64244">
        <ele>791.09</ele>
        <time>2021-07-30T18:14:48Z</time>
      </trkpt>
      <trkpt lat="42.29325" lon="2.64255">
        <ele>790.23</ele>
        <time>2021-07-30T18:14:46Z</time>
      </trkpt>
      <trkpt lat="42.2933" lon="2.64304">
        <ele>786.4</ele>
        <time>2021-07-30T18:14:38Z</time>
      </trkpt>
      <trkpt lat="42.29338" lon="2.64319">
        <ele>785.26</ele>
        <time>2021-07-30T18:14:35Z</time>
      </trkpt>
      <trkpt lat="42.29344" lon="2.64327">
        <ele>784.3</ele>
        <time>2021-07-30T18:14:33Z</time>
      </trkpt>
      <trkpt lat="42.29347" lon="2.64331">
        <ele>783.87</ele>
        <time>2021-07-30T18:14:32Z</time>
      </trkpt>
      <trkpt lat="42.29345" lon="2.64351">
        <ele>781.35</ele>
        <time>2021-07-30T18:14:25Z</time>
      </trkpt>
      <trkpt lat="42.29327" lon="2.64342">
        <ele>779.84</ele>
        <time>2021-07-30T18:14:21Z</time>
      </trkpt>
      <trkpt lat="42.29285" lon="2.64332">
        <ele>776</ele>
        <time>2021-07-30T18:14:12Z</time>
      </trkpt>
      <trkpt lat="42.29275" lon="2.64343">
        <ele>774.17</ele>
        <time>2021-07-30T18:14:07Z</time>
      </trkpt>
      <trkpt lat="42.29295" lon="2.64367">
        <ele>772.17</ele>
        <time>2021-07-30T18:14:01Z</time>
      </trkpt>
      <trkpt lat="42.29302" lon="2.64383">
        <ele>771.48</ele>
        <time>2021-07-30T18:13:58Z</time>
      </trkpt>
      <trkpt lat="42.29325" lon="2.64407">
        <ele>770.66</ele>
        <time>2021-07-30T18:13:53Z</time>
      </trkpt>
      <trkpt lat="42.29347" lon="2.64462">
        <ele>768.55</ele>
        <time>2021-07-30T18:13:46Z</time>
      </trkpt>
      <trkpt lat="42.29349" lon="2.64487">
        <ele>766.87</ele>
        <time>2021-07-30T18:13:43Z</time>
      </trkpt>
      <trkpt lat="42.29388" lon="2.64509">
        <ele>763.25</ele>
        <time>2021-07-30T18:13:35Z</time>
      </trkpt>
      <trkpt lat="42.29408" lon="2.64502">
        <ele>760.89</ele>
        <time>2021-07-30T18:13:29Z</time>
      </trkpt>
      <trkpt lat="42.29431" lon="2.64505">
        <ele>757.72</ele>
        <time>2021-07-30T18:13:22Z</time>
      </trkpt>
      <trkpt lat="42.29455" lon="2.64534">
        <ele>754.28</ele>
        <time>2021-07-30T18:13:14Z</time>
      </trkpt>
      <trkpt lat="42.29475" lon="2.64574">
        <ele>750.99</ele>
        <time>2021-07-30T18:13:04Z</time>
      </trkpt>
      <trkpt lat="42.29481" lon="2.64585">
        <ele>749.21</ele>
        <time>2021-07-30T18:13:00Z</time>
      </trkpt>
      <trkpt lat="42.29482" lon="2.64589">
        <ele>748.84</ele>
        <time>2021-07-30T18:12:59Z</time>
      </trkpt>
      <trkpt lat="42.29473" lon="2.64651">
        <ele>745.57</ele>
        <time>2021-07-30T18:12:49Z</time>
      </trkpt>
      <trkpt lat="42.29472" lon="2.64666">
        <ele>745.39</ele>
        <time>2021-07-30T18:12:47Z</time>
      </trkpt>
      <trkpt lat="42.29463" lon="2.64724">
        <ele>743.15</ele>
        <time>2021-07-30T18:12:33Z</time>
      </trkpt>
      <trkpt lat="42.29448" lon="2.64779">
        <ele>740.42</ele>
        <time>2021-07-30T18:12:23Z</time>
      </trkpt>
      <trkpt lat="42.29442" lon="2.64803">
        <ele>739.59</ele>
        <time>2021-07-30T18:12:20Z</time>
      </trkpt>
      <trkpt lat="42.29443" lon="2.64809">
        <ele>739.35</ele>
        <time>2021-07-30T18:12:19Z</time>
      </trkpt>
      <trkpt lat="42.29446" lon="2.64815">
        <ele>739.04</ele>
        <time>2021-07-30T18:12:18Z</time>
      </trkpt>
      <trkpt lat="42.29452" lon="2.64823">
        <ele>738.41</ele>
        <time>2021-07-30T18:12:16Z</time>
      </trkpt>
      <trkpt lat="42.29456" lon="2.64826">
        <ele>738.21</ele>
        <time>2021-07-30T18:12:15Z</time>
      </trkpt>
      <trkpt lat="42.2946" lon="2.64829">
        <ele>738</ele>
        <time>2021-07-30T18:12:14Z</time>
      </trkpt>
      <trkpt lat="42.29466" lon="2.64839">
        <ele>737.41</ele>
        <time>2021-07-30T18:12:12Z</time>
      </trkpt>
      <trkpt lat="42.29472" lon="2.64848">
        <ele>737.03</ele>
        <time>2021-07-30T18:12:10Z</time>
      </trkpt>
      <trkpt lat="42.29476" lon="2.64858">
        <ele>736.75</ele>
        <time>2021-07-30T18:12:08Z</time>
      </trkpt>
      <trkpt lat="42.29483" lon="2.64875">
        <ele>736.74</ele>
        <time>2021-07-30T18:12:05Z</time>
      </trkpt>
      <trkpt lat="42.29485" lon="2.64881">
        <ele>736.87</ele>
        <time>2021-07-30T18:12:04Z</time>
      </trkpt>
      <trkpt lat="42.29487" lon="2.64887">
        <ele>737.14</ele>
        <time>2021-07-30T18:12:03Z</time>
      </trkpt>
      <trkpt lat="42.29494" lon="2.64902">
        <ele>738.1</ele>
        <time>2021-07-30T18:12:01Z</time>
      </trkpt>
      <trkpt lat="42.29499" lon="2.64909">
        <ele>738.66</ele>
        <time>2021-07-30T18:12:00Z</time>
      </trkpt>
      <trkpt lat="42.29507" lon="2.64925">
        <ele>739.97</ele>
        <time>2021-07-30T18:11:58Z</time>
      </trkpt>
      <trkpt lat="42.29511" lon="2.64934">
        <ele>740.6</ele>
        <time>2021-07-30T18:11:57Z</time>
      </trkpt>
      <trkpt lat="42.29515" lon="2.64951">
        <ele>741.96</ele>
        <time>2021-07-30T18:11:55Z</time>
      </trkpt>
      <trkpt lat="42.29523" lon="2.64994">
        <ele>745.59</ele>
        <time>2021-07-30T18:11:50Z</time>
      </trkpt>
      <trkpt lat="42.29529" lon="2.65045">
        <ele>749.86</ele>
        <time>2021-07-30T18:11:43Z</time>
      </trkpt>
      <trkpt lat="42.29529" lon="2.65055">
        <ele>751.15</ele>
        <time>2021-07-30T18:11:41Z</time>
      </trkpt>
      <trkpt lat="42.2952" lon="2.65089">
        <ele>754.23</ele>
        <time>2021-07-30T18:11:36Z</time>
      </trkpt>
      <trkpt lat="42.29518" lon="2.651">
        <ele>755.41</ele>
        <time>2021-07-30T18:11:34Z</time>
      </trkpt>
      <trkpt lat="42.29517" lon="2.65105">
        <ele>756.01</ele>
        <time>2021-07-30T18:11:33Z</time>
      </trkpt>
      <trkpt lat="42.29532" lon="2.65149">
        <ele>759.86</ele>
        <time>2021-07-30T18:11:25Z</time>
      </trkpt>
      <trkpt lat="42.29536" lon="2.65152">
        <ele>760.32</ele>
        <time>2021-07-30T18:11:24Z</time>
      </trkpt>
      <trkpt lat="42.2957" lon="2.65177">
        <ele>763.84</ele>
        <time>2021-07-30T18:11:16Z</time>
      </trkpt>
      <trkpt lat="42.29586" lon="2.65204">
        <ele>766.32</ele>
        <time>2021-07-30T18:11:10Z</time>
      </trkpt>
      <trkpt lat="42.29614" lon="2.65258">
        <ele>769.65</ele>
        <time>2021-07-30T18:10:58Z</time>
      </trkpt>
      <trkpt lat="42.29624" lon="2.6527">
        <ele>770.14</ele>
        <time>2021-07-30T18:10:55Z</time>
      </trkpt>
      <trkpt lat="42.29628" lon="2.65273">
        <ele>770.36</ele>
        <time>2021-07-30T18:10:54Z</time>
      </trkpt>
      <trkpt lat="42.29672" lon="2.65292">
        <ele>771.99</ele>
        <time>2021-07-30T18:10:41Z</time>
      </trkpt>
      <trkpt lat="42.29706" lon="2.65291">
        <ele>772.16</ele>
        <time>2021-07-30T18:10:30Z</time>
      </trkpt>
      <trkpt lat="42.29709" lon="2.65289">
        <ele>772.16</ele>
        <time>2021-07-30T18:09:35Z</time>
      </trkpt>
      <trkpt lat="42.29708" lon="2.65289">
        <ele>772.16</ele>
        <time>2021-07-30T18:08:50Z</time>
      </trkpt>
      <trkpt lat="42.29708" lon="2.6529">
        <ele>772.06</ele>
        <time>2021-07-30T18:04:09Z</time>
      </trkpt>
      <trkpt lat="42.29711" lon="2.65289">
        <ele>771</ele>
        <time>2021-07-30T18:03:59Z</time>
      </trkpt>
      <trkpt lat="42.29772" lon="2.6527">
        <ele>768.65</ele>
        <time>2021-07-30T18:03:48Z</time>
      </trkpt>
      <trkpt lat="42.29782" lon="2.65261">
        <ele>768.54</ele>
        <time>2021-07-30T18:03:46Z</time>
      </trkpt>
      <trkpt lat="42.29843" lon="2.65207">
        <ele>767.83</ele>
        <time>2021-07-30T18:03:35Z</time>
      </trkpt>
      <trkpt lat="42.299" lon="2.65176">
        <ele>767.12</ele>
        <time>2021-07-30T18:03:25Z</time>
      </trkpt>
      <trkpt lat="42.29914" lon="2.65172">
        <ele>766.7</ele>
        <time>2021-07-30T18:03:23Z</time>
      </trkpt>
      <trkpt lat="42.29941" lon="2.65141">
        <ele>764.59</ele>
        <time>2021-07-30T18:03:17Z</time>
      </trkpt>
      <trkpt lat="42.29944" lon="2.65126">
        <ele>763.5</ele>
        <time>2021-07-30T18:03:14Z</time>
      </trkpt>
      <trkpt lat="42.29962" lon="2.65088">
        <ele>759.59</ele>
        <time>2021-07-30T18:03:05Z</time>
      </trkpt>
      <trkpt lat="42.29975" lon="2.65057">
        <ele>756.56</ele>
        <time>2021-07-30T18:02:57Z</time>
      </trkpt>
      <trkpt lat="42.29995" lon="2.65017">
        <ele>753.01</ele>
        <time>2021-07-30T18:02:49Z</time>
      </trkpt>
      <trkpt lat="42.29998" lon="2.65005">
        <ele>751.96</ele>
        <time>2021-07-30T18:02:47Z</time>
      </trkpt>
      <trkpt lat="42.30011" lon="2.64971">
        <ele>748.96</ele>
        <time>2021-07-30T18:02:41Z</time>
      </trkpt>
      <trkpt lat="42.30022" lon="2.64932">
        <ele>745.52</ele>
        <time>2021-07-30T18:02:35Z</time>
      </trkpt>
      <trkpt lat="42.30031" lon="2.64877">
        <ele>741.31</ele>
        <time>2021-07-30T18:02:27Z</time>
      </trkpt>
      <trkpt lat="42.30028" lon="2.64841">
        <ele>738.19</ele>
        <time>2021-07-30T18:02:22Z</time>
      </trkpt>
      <trkpt lat="42.30013" lon="2.64816">
        <ele>735.14</ele>
        <time>2021-07-30T18:02:18Z</time>
      </trkpt>
      <trkpt lat="42.30011" lon="2.64793">
        <ele>731.79</ele>
        <time>2021-07-30T18:02:14Z</time>
      </trkpt>
      <trkpt lat="42.30022" lon="2.64754">
        <ele>727.28</ele>
        <time>2021-07-30T18:02:09Z</time>
      </trkpt>
      <trkpt lat="42.30022" lon="2.64746">
        <ele>726.38</ele>
        <time>2021-07-30T18:02:08Z</time>
      </trkpt>
      <trkpt lat="42.30022" lon="2.64709">
        <ele>722.06</ele>
        <time>2021-07-30T18:02:03Z</time>
      </trkpt>
      <trkpt lat="42.30021" lon="2.64682">
        <ele>719.04</ele>
        <time>2021-07-30T18:01:59Z</time>
      </trkpt>
      <trkpt lat="42.3002" lon="2.64669">
        <ele>717.68</ele>
        <time>2021-07-30T18:01:57Z</time>
      </trkpt>
      <trkpt lat="42.3002" lon="2.64654">
        <ele>716.15</ele>
        <time>2021-07-30T18:01:55Z</time>
      </trkpt>
      <trkpt lat="42.30021" lon="2.64616">
        <ele>712.9</ele>
        <time>2021-07-30T18:01:50Z</time>
      </trkpt>
      <trkpt lat="42.30021" lon="2.64565">
        <ele>708.83</ele>
        <time>2021-07-30T18:01:43Z</time>
      </trkpt>
      <trkpt lat="42.30021" lon="2.6454">
        <ele>707.39</ele>
        <time>2021-07-30T18:01:39Z</time>
      </trkpt>
      <trkpt lat="42.3002" lon="2.64523">
        <ele>706.32</ele>
        <time>2021-07-30T18:01:36Z</time>
      </trkpt>
      <trkpt lat="42.30019" lon="2.64479">
        <ele>702.81</ele>
        <time>2021-07-30T18:01:27Z</time>
      </trkpt>
      <trkpt lat="42.30015" lon="2.64462">
        <ele>702.37</ele>
        <time>2021-07-30T18:01:25Z</time>
      </trkpt>
      <trkpt lat="42.30002" lon="2.6439">
        <ele>700.36</ele>
        <time>2021-07-30T18:01:15Z</time>
      </trkpt>
      <trkpt lat="42.30013" lon="2.64374">
        <ele>698.91</ele>
        <time>2021-07-30T18:01:12Z</time>
      </trkpt>
      <trkpt lat="42.30025" lon="2.64313">
        <ele>695.29</ele>
        <time>2021-07-30T18:01:03Z</time>
      </trkpt>
      <trkpt lat="42.30022" lon="2.64278">
        <ele>693.92</ele>
        <time>2021-07-30T18:00:58Z</time>
      </trkpt>
      <trkpt lat="42.30021" lon="2.64262">
        <ele>692.62</ele>
        <time>2021-07-30T18:00:54Z</time>
      </trkpt>
      <trkpt lat="42.30036" lon="2.64231">
        <ele>690.42</ele>
        <time>2021-07-30T18:00:46Z</time>
      </trkpt>
      <trkpt lat="42.30045" lon="2.64218">
        <ele>688.69</ele>
        <time>2021-07-30T18:00:40Z</time>
      </trkpt>
      <trkpt lat="42.30048" lon="2.64258">
        <ele>685.46</ele>
        <time>2021-07-30T18:00:31Z</time>
      </trkpt>
      <trkpt lat="42.30047" lon="2.6429">
        <ele>684.32</ele>
        <time>2021-07-30T18:00:27Z</time>
      </trkpt>
      <trkpt lat="42.30054" lon="2.64317">
        <ele>683.42</ele>
        <time>2021-07-30T18:00:23Z</time>
      </trkpt>
      <trkpt lat="42.30049" lon="2.64382">
        <ele>682.75</ele>
        <time>2021-07-30T18:00:16Z</time>
      </trkpt>
      <trkpt lat="42.30044" lon="2.64408">
        <ele>682.61</ele>
        <time>2021-07-30T18:00:13Z</time>
      </trkpt>
      <trkpt lat="42.30048" lon="2.64442">
        <ele>682.66</ele>
        <time>2021-07-30T18:00:08Z</time>
      </trkpt>
      <trkpt lat="42.3006" lon="2.64472">
        <ele>682.64</ele>
        <time>2021-07-30T18:00:04Z</time>
      </trkpt>
      <trkpt lat="42.30066" lon="2.64506">
        <ele>682.4</ele>
        <time>2021-07-30T18:00:00Z</time>
      </trkpt>
      <trkpt lat="42.30073" lon="2.64535">
        <ele>681.63</ele>
        <time>2021-07-30T17:59:56Z</time>
      </trkpt>
      <trkpt lat="42.30073" lon="2.64543">
        <ele>681.48</ele>
        <time>2021-07-30T17:59:55Z</time>
      </trkpt>
      <trkpt lat="42.3007" lon="2.6457">
        <ele>680.25</ele>
        <time>2021-07-30T17:59:52Z</time>
      </trkpt>
      <trkpt lat="42.30069" lon="2.64589">
        <ele>679.45</ele>
        <time>2021-07-30T17:59:50Z</time>
      </trkpt>
      <trkpt lat="42.30072" lon="2.64642">
        <ele>676.32</ele>
        <time>2021-07-30T17:59:41Z</time>
      </trkpt>
      <trkpt lat="42.30098" lon="2.64685">
        <ele>672.63</ele>
        <time>2021-07-30T17:59:33Z</time>
      </trkpt>
      <trkpt lat="42.30115" lon="2.64704">
        <ele>670.81</ele>
        <time>2021-07-30T17:59:29Z</time>
      </trkpt>
      <trkpt lat="42.30139" lon="2.64734">
        <ele>668.45</ele>
        <time>2021-07-30T17:59:22Z</time>
      </trkpt>
      <trkpt lat="42.30155" lon="2.64739">
        <ele>665.41</ele>
        <time>2021-07-30T17:59:16Z</time>
      </trkpt>
      <trkpt lat="42.3017" lon="2.64781">
        <ele>661.26</ele>
        <time>2021-07-30T17:59:09Z</time>
      </trkpt>
      <trkpt lat="42.30177" lon="2.64796">
        <ele>659.97</ele>
        <time>2021-07-30T17:59:07Z</time>
      </trkpt>
      <trkpt lat="42.30184" lon="2.64826">
        <ele>657.28</ele>
        <time>2021-07-30T17:59:03Z</time>
      </trkpt>
      <trkpt lat="42.3018" lon="2.64866">
        <ele>654.69</ele>
        <time>2021-07-30T17:58:58Z</time>
      </trkpt>
      <trkpt lat="42.30176" lon="2.64887">
        <ele>653.12</ele>
        <time>2021-07-30T17:58:55Z</time>
      </trkpt>
      <trkpt lat="42.30176" lon="2.6491">
        <ele>651.74</ele>
        <time>2021-07-30T17:58:52Z</time>
      </trkpt>
      <trkpt lat="42.30177" lon="2.6494">
        <ele>649.78</ele>
        <time>2021-07-30T17:58:48Z</time>
      </trkpt>
      <trkpt lat="42.30172" lon="2.64965">
        <ele>647.81</ele>
        <time>2021-07-30T17:58:44Z</time>
      </trkpt>
      <trkpt lat="42.30168" lon="2.65007">
        <ele>645.92</ele>
        <time>2021-07-30T17:58:39Z</time>
      </trkpt>
      <trkpt lat="42.30165" lon="2.65078">
        <ele>642.4</ele>
        <time>2021-07-30T17:58:29Z</time>
      </trkpt>
      <trkpt lat="42.30167" lon="2.65088">
        <ele>641.55</ele>
        <time>2021-07-30T17:58:27Z</time>
      </trkpt>
      <trkpt lat="42.30178" lon="2.65121">
        <ele>638</ele>
        <time>2021-07-30T17:58:17Z</time>
      </trkpt>
      <trkpt lat="42.30186" lon="2.65133">
        <ele>635.02</ele>
        <time>2021-07-30T17:58:11Z</time>
      </trkpt>
      <trkpt lat="42.3019" lon="2.65088">
        <ele>631.77</ele>
        <time>2021-07-30T17:58:04Z</time>
      </trkpt>
      <trkpt lat="42.30197" lon="2.65055">
        <ele>630.34</ele>
        <time>2021-07-30T17:58:00Z</time>
      </trkpt>
      <trkpt lat="42.30207" lon="2.65032">
        <ele>628.91</ele>
        <time>2021-07-30T17:57:56Z</time>
      </trkpt>
      <trkpt lat="42.30214" lon="2.6499">
        <ele>626.2</ele>
        <time>2021-07-30T17:57:48Z</time>
      </trkpt>
      <trkpt lat="42.30246" lon="2.64964">
        <ele>623.89</ele>
        <time>2021-07-30T17:57:38Z</time>
      </trkpt>
      <trkpt lat="42.30256" lon="2.64965">
        <ele>624.41</ele>
        <time>2021-07-30T17:57:33Z</time>
      </trkpt>
      <trkpt lat="42.30251" lon="2.64978">
        <ele>624.82</ele>
        <time>2021-07-30T17:57:30Z</time>
      </trkpt>
      <trkpt lat="42.30243" lon="2.65032">
        <ele>625.74</ele>
        <time>2021-07-30T17:57:23Z</time>
      </trkpt>
      <trkpt lat="42.30251" lon="2.65075">
        <ele>626.36</ele>
        <time>2021-07-30T17:57:19Z</time>
      </trkpt>
      <trkpt lat="42.30251" lon="2.65094">
        <ele>626.59</ele>
        <time>2021-07-30T17:57:17Z</time>
      </trkpt>
      <trkpt lat="42.30261" lon="2.6515">
        <ele>627.43</ele>
        <time>2021-07-30T17:57:11Z</time>
      </trkpt>
      <trkpt lat="42.3028" lon="2.65256">
        <ele>627.62</ele>
        <time>2021-07-30T17:56:58Z</time>
      </trkpt>
      <trkpt lat="42.30283" lon="2.65298">
        <ele>627.62</ele>
        <time>2021-07-30T17:56:53Z</time>
      </trkpt>
      <trkpt lat="42.30272" lon="2.6538">
        <ele>626.64</ele>
        <time>2021-07-30T17:56:44Z</time>
      </trkpt>
      <trkpt lat="42.30274" lon="2.65399">
        <ele>626.22</ele>
        <time>2021-07-30T17:56:42Z</time>
      </trkpt>
      <trkpt lat="42.30288" lon="2.65436">
        <ele>625.3</ele>
        <time>2021-07-30T17:56:37Z</time>
      </trkpt>
      <trkpt lat="42.30299" lon="2.65433">
        <ele>624.4</ele>
        <time>2021-07-30T17:56:35Z</time>
      </trkpt>
      <trkpt lat="42.30342" lon="2.65402">
        <ele>622.35</ele>
        <time>2021-07-30T17:56:29Z</time>
      </trkpt>
      <trkpt lat="42.30381" lon="2.65384">
        <ele>620.69</ele>
        <time>2021-07-30T17:56:24Z</time>
      </trkpt>
      <trkpt lat="42.30401" lon="2.65382">
        <ele>619.42</ele>
        <time>2021-07-30T17:56:20Z</time>
      </trkpt>
      <trkpt lat="42.3042" lon="2.65385">
        <ele>618.19</ele>
        <time>2021-07-30T17:56:16Z</time>
      </trkpt>
      <trkpt lat="42.30447" lon="2.65377">
        <ele>617.79</ele>
        <time>2021-07-30T17:56:07Z</time>
      </trkpt>
      <trkpt lat="42.30457" lon="2.65376">
        <ele>620.64</ele>
        <time>2021-07-30T17:56:01Z</time>
      </trkpt>
      <trkpt lat="42.3044" lon="2.65412">
        <ele>623.79</ele>
        <time>2021-07-30T17:55:54Z</time>
      </trkpt>
      <trkpt lat="42.30454" lon="2.65414">
        <ele>627.05</ele>
        <time>2021-07-30T17:55:45Z</time>
      </trkpt>
      <trkpt lat="42.30463" lon="2.65409">
        <ele>627.69</ele>
        <time>2021-07-30T17:55:43Z</time>
      </trkpt>
      <trkpt lat="42.30467" lon="2.65407">
        <ele>628.08</ele>
        <time>2021-07-30T17:55:42Z</time>
      </trkpt>
      <trkpt lat="42.30477" lon="2.65417">
        <ele>629.51</ele>
        <time>2021-07-30T17:55:36Z</time>
      </trkpt>
      <trkpt lat="42.30466" lon="2.65424">
        <ele>630.42</ele>
        <time>2021-07-30T17:55:33Z</time>
      </trkpt>
      <trkpt lat="42.30454" lon="2.65433">
        <ele>631.31</ele>
        <time>2021-07-30T17:55:30Z</time>
      </trkpt>
      <trkpt lat="42.30435" lon="2.65445">
        <ele>633.04</ele>
        <time>2021-07-30T17:55:26Z</time>
      </trkpt>
      <trkpt lat="42.30427" lon="2.65456">
        <ele>633.85</ele>
        <time>2021-07-30T17:55:24Z</time>
      </trkpt>
      <trkpt lat="42.30416" lon="2.65475">
        <ele>634.96</ele>
        <time>2021-07-30T17:55:21Z</time>
      </trkpt>
      <trkpt lat="42.30395" lon="2.65502">
        <ele>636.43</ele>
        <time>2021-07-30T17:55:16Z</time>
      </trkpt>
      <trkpt lat="42.30381" lon="2.65529">
        <ele>637.9</ele>
        <time>2021-07-30T17:55:11Z</time>
      </trkpt>
      <trkpt lat="42.30366" lon="2.65555">
        <ele>640.04</ele>
        <time>2021-07-30T17:55:06Z</time>
      </trkpt>
      <trkpt lat="42.30354" lon="2.65618">
        <ele>643.98</ele>
        <time>2021-07-30T17:54:56Z</time>
      </trkpt>
      <trkpt lat="42.30343" lon="2.65689">
        <ele>647.4</ele>
        <time>2021-07-30T17:54:44Z</time>
      </trkpt>
      <trkpt lat="42.30333" lon="2.65707">
        <ele>648.6</ele>
        <time>2021-07-30T17:54:39Z</time>
      </trkpt>
      <trkpt lat="42.30318" lon="2.6568">
        <ele>651.29</ele>
        <time>2021-07-30T17:54:31Z</time>
      </trkpt>
      <trkpt lat="42.303" lon="2.65659">
        <ele>652.42</ele>
        <time>2021-07-30T17:54:27Z</time>
      </trkpt>
      <trkpt lat="42.3029" lon="2.65651">
        <ele>653.04</ele>
        <time>2021-07-30T17:54:25Z</time>
      </trkpt>
      <trkpt lat="42.30275" lon="2.65642">
        <ele>653.81</ele>
        <time>2021-07-30T17:54:22Z</time>
      </trkpt>
      <trkpt lat="42.30272" lon="2.6564">
        <ele>654.1</ele>
        <time>2021-07-30T17:54:21Z</time>
      </trkpt>
      <trkpt lat="42.30262" lon="2.6565">
        <ele>656.18</ele>
        <time>2021-07-30T17:54:14Z</time>
      </trkpt>
      <trkpt lat="42.30285" lon="2.65664">
        <ele>658.29</ele>
        <time>2021-07-30T17:54:07Z</time>
      </trkpt>
      <trkpt lat="42.30298" lon="2.65683">
        <ele>659.62</ele>
        <time>2021-07-30T17:54:02Z</time>
      </trkpt>
      <trkpt lat="42.30311" lon="2.65721">
        <ele>660.9</ele>
        <time>2021-07-30T17:53:56Z</time>
      </trkpt>
      <trkpt lat="42.30313" lon="2.65739">
        <ele>661.58</ele>
        <time>2021-07-30T17:53:53Z</time>
      </trkpt>
      <trkpt lat="42.30314" lon="2.65744">
        <ele>661.82</ele>
        <time>2021-07-30T17:53:52Z</time>
      </trkpt>
      <trkpt lat="42.30331" lon="2.65755">
        <ele>663.5</ele>
        <time>2021-07-30T17:53:45Z</time>
      </trkpt>
      <trkpt lat="42.30372" lon="2.65693">
        <ele>665.41</ele>
        <time>2021-07-30T17:53:36Z</time>
      </trkpt>
      <trkpt lat="42.30387" lon="2.65658">
        <ele>666.62</ele>
        <time>2021-07-30T17:53:32Z</time>
      </trkpt>
      <trkpt lat="42.30396" lon="2.65629">
        <ele>667.16</ele>
        <time>2021-07-30T17:53:28Z</time>
      </trkpt>
      <trkpt lat="42.30403" lon="2.65618">
        <ele>668.05</ele>
        <time>2021-07-30T17:53:24Z</time>
      </trkpt>
      <trkpt lat="42.30412" lon="2.65613">
        <ele>668.86</ele>
        <time>2021-07-30T17:53:19Z</time>
      </trkpt>
      <trkpt lat="42.30413" lon="2.65612">
        <ele>669.7</ele>
        <time>2021-07-30T17:53:17Z</time>
      </trkpt>
      <trkpt lat="42.30413" lon="2.6561">
        <ele>672.87</ele>
        <time>2021-07-30T17:53:11Z</time>
      </trkpt>
      <trkpt lat="42.30425" lon="2.65597">
        <ele>675.92</ele>
        <time>2021-07-30T17:53:07Z</time>
      </trkpt>
      <trkpt lat="42.30472" lon="2.65561">
        <ele>679.46</ele>
        <time>2021-07-30T17:53:01Z</time>
      </trkpt>
      <trkpt lat="42.30525" lon="2.65536">
        <ele>682.91</ele>
        <time>2021-07-30T17:52:55Z</time>
      </trkpt>
      <trkpt lat="42.30594" lon="2.655">
        <ele>686.51</ele>
        <time>2021-07-30T17:52:47Z</time>
      </trkpt>
      <trkpt lat="42.30639" lon="2.65486">
        <ele>689.61</ele>
        <time>2021-07-30T17:52:41Z</time>
      </trkpt>
      <trkpt lat="42.30711" lon="2.65467">
        <ele>692.02</ele>
        <time>2021-07-30T17:52:34Z</time>
      </trkpt>
      <trkpt lat="42.30826" lon="2.65422">
        <ele>693.86</ele>
        <time>2021-07-30T17:52:22Z</time>
      </trkpt>
      <trkpt lat="42.30864" lon="2.6541">
        <ele>695.2</ele>
        <time>2021-07-30T17:52:16Z</time>
      </trkpt>
      <trkpt lat="42.30897" lon="2.65426">
        <ele>696.1</ele>
        <time>2021-07-30T17:52:11Z</time>
      </trkpt>
      <trkpt lat="42.30919" lon="2.65465">
        <ele>697.15</ele>
        <time>2021-07-30T17:52:05Z</time>
      </trkpt>
      <trkpt lat="42.30945" lon="2.65516">
        <ele>701.15</ele>
        <time>2021-07-30T17:51:58Z</time>
      </trkpt>
      <trkpt lat="42.30972" lon="2.65539">
        <ele>703.33</ele>
        <time>2021-07-30T17:51:54Z</time>
      </trkpt>
      <trkpt lat="42.30997" lon="2.65586">
        <ele>704.29</ele>
        <time>2021-07-30T17:51:49Z</time>
      </trkpt>
      <trkpt lat="42.31027" lon="2.65681">
        <ele>702.06</ele>
        <time>2021-07-30T17:51:40Z</time>
      </trkpt>
      <trkpt lat="42.3103" lon="2.65712">
        <ele>700.2</ele>
        <time>2021-07-30T17:51:37Z</time>
      </trkpt>
      <trkpt lat="42.31047" lon="2.65817">
        <ele>696.61</ele>
        <time>2021-07-30T17:51:27Z</time>
      </trkpt>
      <trkpt lat="42.31054" lon="2.65838">
        <ele>695.97</ele>
        <time>2021-07-30T17:51:25Z</time>
      </trkpt>
      <trkpt lat="42.31058" lon="2.65847">
        <ele>695.57</ele>
        <time>2021-07-30T17:51:24Z</time>
      </trkpt>
      <trkpt lat="42.31051" lon="2.65911">
        <ele>692.06</ele>
        <time>2021-07-30T17:51:17Z</time>
      </trkpt>
      <trkpt lat="42.31045" lon="2.66016">
        <ele>688.38</ele>
        <time>2021-07-30T17:51:08Z</time>
      </trkpt>
      <trkpt lat="42.31045" lon="2.66029">
        <ele>687.97</ele>
        <time>2021-07-30T17:51:07Z</time>
      </trkpt>
      <trkpt lat="42.31066" lon="2.66073">
        <ele>685.87</ele>
        <time>2021-07-30T17:51:00Z</time>
      </trkpt>
      <trkpt lat="42.31099" lon="2.66075">
        <ele>683.65</ele>
        <time>2021-07-30T17:50:52Z</time>
      </trkpt>
      <trkpt lat="42.31115" lon="2.66077">
        <ele>683.44</ele>
        <time>2021-07-30T17:50:50Z</time>
      </trkpt>
      <trkpt lat="42.31195" lon="2.66085">
        <ele>683.1</ele>
        <time>2021-07-30T17:50:41Z</time>
      </trkpt>
      <trkpt lat="42.31226" lon="2.66096">
        <ele>683.03</ele>
        <time>2021-07-30T17:50:37Z</time>
      </trkpt>
      <trkpt lat="42.31241" lon="2.66098">
        <ele>682.8</ele>
        <time>2021-07-30T17:50:35Z</time>
      </trkpt>
      <trkpt lat="42.31322" lon="2.66102">
        <ele>680.89</ele>
        <time>2021-07-30T17:50:26Z</time>
      </trkpt>
      <trkpt lat="42.31346" lon="2.66115">
        <ele>680.57</ele>
        <time>2021-07-30T17:50:23Z</time>
      </trkpt>
      <trkpt lat="42.31379" lon="2.66109">
        <ele>680.07</ele>
        <time>2021-07-30T17:50:17Z</time>
      </trkpt>
      <trkpt lat="42.31387" lon="2.66102">
        <ele>679.85</ele>
        <time>2021-07-30T17:50:15Z</time>
      </trkpt>
      <trkpt lat="42.3142" lon="2.66146">
        <ele>679.24</ele>
        <time>2021-07-30T17:50:07Z</time>
      </trkpt>
      <trkpt lat="42.3144" lon="2.66161">
        <ele>678.91</ele>
        <time>2021-07-30T17:50:04Z</time>
      </trkpt>
      <trkpt lat="42.31446" lon="2.66166">
        <ele>678.81</ele>
        <time>2021-07-30T17:50:03Z</time>
      </trkpt>
      <trkpt lat="42.3148" lon="2.66203">
        <ele>678.09</ele>
        <time>2021-07-30T17:49:56Z</time>
      </trkpt>
      <trkpt lat="42.31478" lon="2.66266">
        <ele>677.23</ele>
        <time>2021-07-30T17:49:50Z</time>
      </trkpt>
      <trkpt lat="42.31474" lon="2.66326">
        <ele>675.44</ele>
        <time>2021-07-30T17:49:45Z</time>
      </trkpt>
      <trkpt lat="42.31479" lon="2.66365">
        <ele>673.39</ele>
        <time>2021-07-30T17:49:41Z</time>
      </trkpt>
      <trkpt lat="42.31497" lon="2.6641">
        <ele>670.65</ele>
        <time>2021-07-30T17:49:36Z</time>
      </trkpt>
      <trkpt lat="42.315" lon="2.6642">
        <ele>670.14</ele>
        <time>2021-07-30T17:49:35Z</time>
      </trkpt>
      <trkpt lat="42.31503" lon="2.6643">
        <ele>669.66</ele>
        <time>2021-07-30T17:49:34Z</time>
      </trkpt>
      <trkpt lat="42.31506" lon="2.6644">
        <ele>669.15</ele>
        <time>2021-07-30T17:49:33Z</time>
      </trkpt>
      <trkpt lat="42.31507" lon="2.66449">
        <ele>668.74</ele>
        <time>2021-07-30T17:49:32Z</time>
      </trkpt>
      <trkpt lat="42.31503" lon="2.66498">
        <ele>666.75</ele>
        <time>2021-07-30T17:49:27Z</time>
      </trkpt>
      <trkpt lat="42.31502" lon="2.66508">
        <ele>666.47</ele>
        <time>2021-07-30T17:49:26Z</time>
      </trkpt>
      <trkpt lat="42.31498" lon="2.66528">
        <ele>665.95</ele>
        <time>2021-07-30T17:49:24Z</time>
      </trkpt>
      <trkpt lat="42.31496" lon="2.66537">
        <ele>665.72</ele>
        <time>2021-07-30T17:49:23Z</time>
      </trkpt>
      <trkpt lat="42.31497" lon="2.66595">
        <ele>664.82</ele>
        <time>2021-07-30T17:49:17Z</time>
      </trkpt>
      <trkpt lat="42.31499" lon="2.66619">
        <ele>664.47</ele>
        <time>2021-07-30T17:49:15Z</time>
      </trkpt>
      <trkpt lat="42.31499" lon="2.66656">
        <ele>663.5</ele>
        <time>2021-07-30T17:49:12Z</time>
      </trkpt>
      <trkpt lat="42.31482" lon="2.66749">
        <ele>661.3</ele>
        <time>2021-07-30T17:49:05Z</time>
      </trkpt>
      <trkpt lat="42.31473" lon="2.66764">
        <ele>660.73</ele>
        <time>2021-07-30T17:49:03Z</time>
      </trkpt>
      <trkpt lat="42.31447" lon="2.66776">
        <ele>659.01</ele>
        <time>2021-07-30T17:48:57Z</time>
      </trkpt>
      <trkpt lat="42.31413" lon="2.66802">
        <ele>656.59</ele>
        <time>2021-07-30T17:48:49Z</time>
      </trkpt>
      <trkpt lat="42.31394" lon="2.66927">
        <ele>655.31</ele>
        <time>2021-07-30T17:48:38Z</time>
      </trkpt>
      <trkpt lat="42.31365" lon="2.67001">
        <ele>656.14</ele>
        <time>2021-07-30T17:48:30Z</time>
      </trkpt>
      <trkpt lat="42.31358" lon="2.67075">
        <ele>657.26</ele>
        <time>2021-07-30T17:48:23Z</time>
      </trkpt>
      <trkpt lat="42.31365" lon="2.6711">
        <ele>657.37</ele>
        <time>2021-07-30T17:48:19Z</time>
      </trkpt>
      <trkpt lat="42.31365" lon="2.67157">
        <ele>656.68</ele>
        <time>2021-07-30T17:48:14Z</time>
      </trkpt>
      <trkpt lat="42.31356" lon="2.67202">
        <ele>655.85</ele>
        <time>2021-07-30T17:48:10Z</time>
      </trkpt>
      <trkpt lat="42.31352" lon="2.67213">
        <ele>655.58</ele>
        <time>2021-07-30T17:48:09Z</time>
      </trkpt>
      <trkpt lat="42.31349" lon="2.67223">
        <ele>655.26</ele>
        <time>2021-07-30T17:48:08Z</time>
      </trkpt>
      <trkpt lat="42.31345" lon="2.67266">
        <ele>653.7</ele>
        <time>2021-07-30T17:48:04Z</time>
      </trkpt>
      <trkpt lat="42.31344" lon="2.67279">
        <ele>653.32</ele>
        <time>2021-07-30T17:48:03Z</time>
      </trkpt>
      <trkpt lat="42.31343" lon="2.67293">
        <ele>652.84</ele>
        <time>2021-07-30T17:48:02Z</time>
      </trkpt>
      <trkpt lat="42.31342" lon="2.67306">
        <ele>652.26</ele>
        <time>2021-07-30T17:48:01Z</time>
      </trkpt>
      <trkpt lat="42.31339" lon="2.67318">
        <ele>651.7</ele>
        <time>2021-07-30T17:48:00Z</time>
      </trkpt>
      <trkpt lat="42.31336" lon="2.67328">
        <ele>651.25</ele>
        <time>2021-07-30T17:47:59Z</time>
      </trkpt>
      <trkpt lat="42.31332" lon="2.67337">
        <ele>650.79</ele>
        <time>2021-07-30T17:47:58Z</time>
      </trkpt>
      <trkpt lat="42.31328" lon="2.67346">
        <ele>650.28</ele>
        <time>2021-07-30T17:47:57Z</time>
      </trkpt>
      <trkpt lat="42.31325" lon="2.67354">
        <ele>649.82</ele>
        <time>2021-07-30T17:47:56Z</time>
      </trkpt>
      <trkpt lat="42.31322" lon="2.67362">
        <ele>649.5</ele>
        <time>2021-07-30T17:47:55Z</time>
      </trkpt>
      <trkpt lat="42.3132" lon="2.67371">
        <ele>649.26</ele>
        <time>2021-07-30T17:47:54Z</time>
      </trkpt>
      <trkpt lat="42.31341" lon="2.67428">
        <ele>648.19</ele>
        <time>2021-07-30T17:47:45Z</time>
      </trkpt>
      <trkpt lat="42.31363" lon="2.67441">
        <ele>648.28</ele>
        <time>2021-07-30T17:47:41Z</time>
      </trkpt>
      <trkpt lat="42.31393" lon="2.67466">
        <ele>648.44</ele>
        <time>2021-07-30T17:47:36Z</time>
      </trkpt>
      <trkpt lat="42.31424" lon="2.67486">
        <ele>649.16</ele>
        <time>2021-07-30T17:47:30Z</time>
      </trkpt>
      <trkpt lat="42.31463" lon="2.67476">
        <ele>649.82</ele>
        <time>2021-07-30T17:47:24Z</time>
      </trkpt>
      <trkpt lat="42.315" lon="2.6743">
        <ele>649.78</ele>
        <time>2021-07-30T17:47:17Z</time>
      </trkpt>
      <trkpt lat="42.31544" lon="2.67408">
        <ele>649.25</ele>
        <time>2021-07-30T17:47:11Z</time>
      </trkpt>
      <trkpt lat="42.31571" lon="2.6741">
        <ele>648.18</ele>
        <time>2021-07-30T17:47:07Z</time>
      </trkpt>
      <trkpt lat="42.31601" lon="2.67428">
        <ele>646.77</ele>
        <time>2021-07-30T17:47:03Z</time>
      </trkpt>
      <trkpt lat="42.31633" lon="2.67446">
        <ele>644.9</ele>
        <time>2021-07-30T17:46:59Z</time>
      </trkpt>
      <trkpt lat="42.31648" lon="2.67471">
        <ele>643.28</ele>
        <time>2021-07-30T17:46:55Z</time>
      </trkpt>
      <trkpt lat="42.31652" lon="2.67493">
        <ele>642.27</ele>
        <time>2021-07-30T17:46:52Z</time>
      </trkpt>
      <trkpt lat="42.31653" lon="2.67515">
        <ele>641.7</ele>
        <time>2021-07-30T17:46:50Z</time>
      </trkpt>
      <trkpt lat="42.31673" lon="2.67575">
        <ele>640.31</ele>
        <time>2021-07-30T17:46:44Z</time>
      </trkpt>
      <trkpt lat="42.31679" lon="2.67584">
        <ele>640.04</ele>
        <time>2021-07-30T17:46:43Z</time>
      </trkpt>
      <trkpt lat="42.31697" lon="2.67626">
        <ele>637.65</ele>
        <time>2021-07-30T17:46:38Z</time>
      </trkpt>
      <trkpt lat="42.31696" lon="2.67644">
        <ele>636.62</ele>
        <time>2021-07-30T17:46:36Z</time>
      </trkpt>
      <trkpt lat="42.31692" lon="2.67707">
        <ele>633.19</ele>
        <time>2021-07-30T17:46:30Z</time>
      </trkpt>
      <trkpt lat="42.31683" lon="2.67824">
        <ele>629.26</ele>
        <time>2021-07-30T17:46:21Z</time>
      </trkpt>
      <trkpt lat="42.31673" lon="2.67874">
        <ele>628.25</ele>
        <time>2021-07-30T17:46:17Z</time>
      </trkpt>
      <trkpt lat="42.31664" lon="2.67982">
        <ele>625.27</ele>
        <time>2021-07-30T17:46:07Z</time>
      </trkpt>
      <trkpt lat="42.31661" lon="2.68008">
        <ele>623.95</ele>
        <time>2021-07-30T17:46:04Z</time>
      </trkpt>
      <trkpt lat="42.31661" lon="2.68016">
        <ele>623.52</ele>
        <time>2021-07-30T17:46:03Z</time>
      </trkpt>
      <trkpt lat="42.31654" lon="2.68008">
        <ele>619.42</ele>
        <time>2021-07-30T17:45:57Z</time>
      </trkpt>
      <trkpt lat="42.31656" lon="2.67972">
        <ele>616.88</ele>
        <time>2021-07-30T17:45:54Z</time>
      </trkpt>
      <trkpt lat="42.3165" lon="2.67898">
        <ele>613.1</ele>
        <time>2021-07-30T17:45:49Z</time>
      </trkpt>
      <trkpt lat="42.31651" lon="2.6783">
        <ele>609.17</ele>
        <time>2021-07-30T17:45:44Z</time>
      </trkpt>
      <trkpt lat="42.31651" lon="2.67817">
        <ele>608.42</ele>
        <time>2021-07-30T17:45:43Z</time>
      </trkpt>
      <trkpt lat="42.31651" lon="2.67745">
        <ele>604.67</ele>
        <time>2021-07-30T17:45:37Z</time>
      </trkpt>
      <trkpt lat="42.31644" lon="2.67722">
        <ele>601.09</ele>
        <time>2021-07-30T17:45:31Z</time>
      </trkpt>
      <trkpt lat="42.3164" lon="2.67731">
        <ele>599.54</ele>
        <time>2021-07-30T17:45:29Z</time>
      </trkpt>
      <trkpt lat="42.31621" lon="2.67797">
        <ele>595.21</ele>
        <time>2021-07-30T17:45:23Z</time>
      </trkpt>
      <trkpt lat="42.31618" lon="2.67823">
        <ele>593.63</ele>
        <time>2021-07-30T17:45:21Z</time>
      </trkpt>
      <trkpt lat="42.31605" lon="2.67874">
        <ele>589.87</ele>
        <time>2021-07-30T17:45:16Z</time>
      </trkpt>
      <trkpt lat="42.316" lon="2.67895">
        <ele>588.44</ele>
        <time>2021-07-30T17:45:14Z</time>
      </trkpt>
      <trkpt lat="42.31585" lon="2.67964">
        <ele>584.2</ele>
        <time>2021-07-30T17:45:08Z</time>
      </trkpt>
      <trkpt lat="42.31574" lon="2.67981">
        <ele>582.67</ele>
        <time>2021-07-30T17:45:06Z</time>
      </trkpt>
      <trkpt lat="42.31548" lon="2.68034">
        <ele>578.29</ele>
        <time>2021-07-30T17:45:01Z</time>
      </trkpt>
      <trkpt lat="42.31546" lon="2.68045">
        <ele>577.6</ele>
        <time>2021-07-30T17:45:00Z</time>
      </trkpt>
      <trkpt lat="42.31542" lon="2.68128">
        <ele>573.34</ele>
        <time>2021-07-30T17:44:53Z</time>
      </trkpt>
      <trkpt lat="42.31546" lon="2.68148">
        <ele>572.38</ele>
        <time>2021-07-30T17:44:51Z</time>
      </trkpt>
      <trkpt lat="42.3154" lon="2.68187">
        <ele>568.78</ele>
        <time>2021-07-30T17:44:44Z</time>
      </trkpt>
      <trkpt lat="42.31555" lon="2.68205">
        <ele>566.77</ele>
        <time>2021-07-30T17:44:41Z</time>
      </trkpt>
      <trkpt lat="42.31568" lon="2.68235">
        <ele>564.88</ele>
        <time>2021-07-30T17:44:38Z</time>
      </trkpt>
      <trkpt lat="42.3158" lon="2.68267">
        <ele>563.2</ele>
        <time>2021-07-30T17:44:35Z</time>
      </trkpt>
      <trkpt lat="42.31626" lon="2.68269">
        <ele>559.2</ele>
        <time>2021-07-30T17:44:28Z</time>
      </trkpt>
      <trkpt lat="42.31642" lon="2.68244">
        <ele>557.33</ele>
        <time>2021-07-30T17:44:25Z</time>
      </trkpt>
      <trkpt lat="42.31661" lon="2.68225">
        <ele>554.21</ele>
        <time>2021-07-30T17:44:21Z</time>
      </trkpt>
      <trkpt lat="42.31691" lon="2.68239">
        <ele>550.67</ele>
        <time>2021-07-30T17:44:17Z</time>
      </trkpt>
      <trkpt lat="42.31701" lon="2.68242">
        <ele>549.6</ele>
        <time>2021-07-30T17:44:16Z</time>
      </trkpt>
      <trkpt lat="42.31735" lon="2.68273">
        <ele>544.76</ele>
        <time>2021-07-30T17:44:11Z</time>
      </trkpt>
      <trkpt lat="42.31763" lon="2.68312">
        <ele>540.83</ele>
        <time>2021-07-30T17:44:06Z</time>
      </trkpt>
      <trkpt lat="42.31782" lon="2.68337">
        <ele>537.14</ele>
        <time>2021-07-30T17:44:02Z</time>
      </trkpt>
      <trkpt lat="42.31782" lon="2.6837">
        <ele>534.64</ele>
        <time>2021-07-30T17:43:59Z</time>
      </trkpt>
      <trkpt lat="42.31784" lon="2.68396">
        <ele>533.02</ele>
        <time>2021-07-30T17:43:57Z</time>
      </trkpt>
      <trkpt lat="42.31786" lon="2.68421">
        <ele>531.28</ele>
        <time>2021-07-30T17:43:55Z</time>
      </trkpt>
      <trkpt lat="42.31772" lon="2.68479">
        <ele>527.31</ele>
        <time>2021-07-30T17:43:50Z</time>
      </trkpt>
      <trkpt lat="42.31769" lon="2.68529">
        <ele>524.28</ele>
        <time>2021-07-30T17:43:46Z</time>
      </trkpt>
      <trkpt lat="42.31767" lon="2.68541">
        <ele>523.61</ele>
        <time>2021-07-30T17:43:45Z</time>
      </trkpt>
      <trkpt lat="42.31753" lon="2.68605">
        <ele>519.53</ele>
        <time>2021-07-30T17:43:39Z</time>
      </trkpt>
      <trkpt lat="42.31752" lon="2.68684">
        <ele>515.09</ele>
        <time>2021-07-30T17:43:33Z</time>
      </trkpt>
      <trkpt lat="42.31754" lon="2.68697">
        <ele>514.37</ele>
        <time>2021-07-30T17:43:32Z</time>
      </trkpt>
      <trkpt lat="42.31756" lon="2.68711">
        <ele>513.75</ele>
        <time>2021-07-30T17:43:31Z</time>
      </trkpt>
      <trkpt lat="42.31758" lon="2.68723">
        <ele>513.16</ele>
        <time>2021-07-30T17:43:30Z</time>
      </trkpt>
      <trkpt lat="42.31763" lon="2.68735">
        <ele>512.53</ele>
        <time>2021-07-30T17:43:29Z</time>
      </trkpt>
      <trkpt lat="42.31796" lon="2.68782">
        <ele>509.75</ele>
        <time>2021-07-30T17:43:24Z</time>
      </trkpt>
      <trkpt lat="42.31801" lon="2.68793">
        <ele>509.44</ele>
        <time>2021-07-30T17:43:23Z</time>
      </trkpt>
      <trkpt lat="42.31812" lon="2.6881">
        <ele>508.6</ele>
        <time>2021-07-30T17:43:21Z</time>
      </trkpt>
      <trkpt lat="42.31808" lon="2.68819">
        <ele>505.66</ele>
        <time>2021-07-30T17:43:15Z</time>
      </trkpt>
      <trkpt lat="42.31777" lon="2.68777">
        <ele>502.98</ele>
        <time>2021-07-30T17:43:10Z</time>
      </trkpt>
      <trkpt lat="42.31771" lon="2.68771">
        <ele>502.41</ele>
        <time>2021-07-30T17:43:09Z</time>
      </trkpt>
      <trkpt lat="42.31766" lon="2.68764">
        <ele>501.93</ele>
        <time>2021-07-30T17:43:08Z</time>
      </trkpt>
      <trkpt lat="42.31757" lon="2.68777">
        <ele>499.07</ele>
        <time>2021-07-30T17:43:03Z</time>
      </trkpt>
      <trkpt lat="42.31769" lon="2.68791">
        <ele>497.52</ele>
        <time>2021-07-30T17:43:01Z</time>
      </trkpt>
      <trkpt lat="42.3178" lon="2.68812">
        <ele>495.84</ele>
        <time>2021-07-30T17:42:59Z</time>
      </trkpt>
      <trkpt lat="42.31802" lon="2.68858">
        <ele>492.51</ele>
        <time>2021-07-30T17:42:55Z</time>
      </trkpt>
      <trkpt lat="42.31824" lon="2.68905">
        <ele>488.71</ele>
        <time>2021-07-30T17:42:49Z</time>
      </trkpt>
      <trkpt lat="42.31829" lon="2.68932">
        <ele>485.41</ele>
        <time>2021-07-30T17:42:43Z</time>
      </trkpt>
      <trkpt lat="42.31854" lon="2.68977">
        <ele>481.65</ele>
        <time>2021-07-30T17:42:36Z</time>
      </trkpt>
      <trkpt lat="42.31859" lon="2.68994">
        <ele>480.6</ele>
        <time>2021-07-30T17:42:34Z</time>
      </trkpt>
      <trkpt lat="42.31876" lon="2.69057">
        <ele>476.72</ele>
        <time>2021-07-30T17:42:26Z</time>
      </trkpt>
      <trkpt lat="42.31879" lon="2.69063">
        <ele>476.3</ele>
        <time>2021-07-30T17:42:25Z</time>
      </trkpt>
      <trkpt lat="42.31915" lon="2.69103">
        <ele>472.45</ele>
        <time>2021-07-30T17:42:16Z</time>
      </trkpt>
      <trkpt lat="42.31921" lon="2.69117">
        <ele>470.01</ele>
        <time>2021-07-30T17:42:10Z</time>
      </trkpt>
      <trkpt lat="42.31918" lon="2.69117">
        <ele>469.61</ele>
        <time>2021-07-30T17:42:09Z</time>
      </trkpt>
      <trkpt lat="42.31877" lon="2.69093">
        <ele>466.18</ele>
        <time>2021-07-30T17:42:01Z</time>
      </trkpt>
      <trkpt lat="42.31868" lon="2.69083">
        <ele>465.5</ele>
        <time>2021-07-30T17:41:59Z</time>
      </trkpt>
      <trkpt lat="42.31854" lon="2.69084">
        <ele>463.45</ele>
        <time>2021-07-30T17:41:53Z</time>
      </trkpt>
      <trkpt lat="42.31871" lon="2.69108">
        <ele>460.49</ele>
        <time>2021-07-30T17:41:46Z</time>
      </trkpt>
      <trkpt lat="42.31899" lon="2.69166">
        <ele>456.79</ele>
        <time>2021-07-30T17:41:38Z</time>
      </trkpt>
      <trkpt lat="42.31904" lon="2.69177">
        <ele>456</ele>
        <time>2021-07-30T17:41:36Z</time>
      </trkpt>
      <trkpt lat="42.31895" lon="2.69185">
        <ele>453.2</ele>
        <time>2021-07-30T17:41:30Z</time>
      </trkpt>
      <trkpt lat="42.31877" lon="2.69158">
        <ele>450.97</ele>
        <time>2021-07-30T17:41:25Z</time>
      </trkpt>
      <trkpt lat="42.31858" lon="2.69137">
        <ele>449.17</ele>
        <time>2021-07-30T17:41:21Z</time>
      </trkpt>
      <trkpt lat="42.31838" lon="2.69124">
        <ele>447.46</ele>
        <time>2021-07-30T17:41:17Z</time>
      </trkpt>
      <trkpt lat="42.31825" lon="2.69124">
        <ele>445.92</ele>
        <time>2021-07-30T17:41:13Z</time>
      </trkpt>
      <trkpt lat="42.31845" lon="2.69142">
        <ele>442.64</ele>
        <time>2021-07-30T17:41:07Z</time>
      </trkpt>
      <trkpt lat="42.31861" lon="2.69175">
        <ele>438.39</ele>
        <time>2021-07-30T17:41:01Z</time>
      </trkpt>
      <trkpt lat="42.31856" lon="2.69207">
        <ele>435.23</ele>
        <time>2021-07-30T17:40:57Z</time>
      </trkpt>
      <trkpt lat="42.31854" lon="2.69249">
        <ele>431.43</ele>
        <time>2021-07-30T17:40:52Z</time>
      </trkpt>
      <trkpt lat="42.31856" lon="2.69265">
        <ele>430.08</ele>
        <time>2021-07-30T17:40:50Z</time>
      </trkpt>
      <trkpt lat="42.3186" lon="2.69333">
        <ele>426.38</ele>
        <time>2021-07-30T17:40:42Z</time>
      </trkpt>
      <trkpt lat="42.31847" lon="2.69389">
        <ele>423.89</ele>
        <time>2021-07-30T17:40:36Z</time>
      </trkpt>
      <trkpt lat="42.31839" lon="2.69402">
        <ele>423.24</ele>
        <time>2021-07-30T17:40:34Z</time>
      </trkpt>
      <trkpt lat="42.31834" lon="2.69413">
        <ele>422.54</ele>
        <time>2021-07-30T17:40:32Z</time>
      </trkpt>
      <trkpt lat="42.31847" lon="2.69429">
        <ele>419.79</ele>
        <time>2021-07-30T17:40:24Z</time>
      </trkpt>
      <trkpt lat="42.31882" lon="2.69394">
        <ele>416.96</ele>
        <time>2021-07-30T17:40:18Z</time>
      </trkpt>
      <trkpt lat="42.31893" lon="2.69381">
        <ele>415.99</ele>
        <time>2021-07-30T17:40:16Z</time>
      </trkpt>
      <trkpt lat="42.31905" lon="2.69373">
        <ele>412.72</ele>
        <time>2021-07-30T17:40:09Z</time>
      </trkpt>
      <trkpt lat="42.31892" lon="2.69392">
        <ele>409.63</ele>
        <time>2021-07-30T17:40:04Z</time>
      </trkpt>
      <trkpt lat="42.31875" lon="2.69429">
        <ele>406.92</ele>
        <time>2021-07-30T17:39:59Z</time>
      </trkpt>
      <trkpt lat="42.31853" lon="2.69479">
        <ele>403.75</ele>
        <time>2021-07-30T17:39:53Z</time>
      </trkpt>
      <trkpt lat="42.31814" lon="2.69558">
        <ele>400.05</ele>
        <time>2021-07-30T17:39:44Z</time>
      </trkpt>
      <trkpt lat="42.31809" lon="2.69586">
        <ele>398.93</ele>
        <time>2021-07-30T17:39:41Z</time>
      </trkpt>
      <trkpt lat="42.31804" lon="2.69603">
        <ele>398.29</ele>
        <time>2021-07-30T17:39:39Z</time>
      </trkpt>
      <trkpt lat="42.31784" lon="2.69628">
        <ele>395.96</ele>
        <time>2021-07-30T17:39:32Z</time>
      </trkpt>
      <trkpt lat="42.31781" lon="2.69625">
        <ele>395.53</ele>
        <time>2021-07-30T17:39:31Z</time>
      </trkpt>
      <trkpt lat="42.3177" lon="2.69586">
        <ele>392.29</ele>
        <time>2021-07-30T17:39:24Z</time>
      </trkpt>
      <trkpt lat="42.31749" lon="2.69571">
        <ele>388.63</ele>
        <time>2021-07-30T17:39:15Z</time>
      </trkpt>
      <trkpt lat="42.31742" lon="2.69575">
        <ele>387.92</ele>
        <time>2021-07-30T17:39:13Z</time>
      </trkpt>
      <trkpt lat="42.3174" lon="2.69606">
        <ele>384.93</ele>
        <time>2021-07-30T17:39:06Z</time>
      </trkpt>
      <trkpt lat="42.31754" lon="2.69638">
        <ele>381.19</ele>
        <time>2021-07-30T17:39:00Z</time>
      </trkpt>
      <trkpt lat="42.31761" lon="2.69679">
        <ele>378.49</ele>
        <time>2021-07-30T17:38:56Z</time>
      </trkpt>
      <trkpt lat="42.31758" lon="2.69718">
        <ele>375.96</ele>
        <time>2021-07-30T17:38:52Z</time>
      </trkpt>
      <trkpt lat="42.31747" lon="2.69758">
        <ele>373.36</ele>
        <time>2021-07-30T17:38:48Z</time>
      </trkpt>
      <trkpt lat="42.31733" lon="2.69783">
        <ele>371.48</ele>
        <time>2021-07-30T17:38:45Z</time>
      </trkpt>
      <trkpt lat="42.31705" lon="2.69834">
        <ele>367.69</ele>
        <time>2021-07-30T17:38:39Z</time>
      </trkpt>
      <trkpt lat="42.31695" lon="2.69883">
        <ele>364.58</ele>
        <time>2021-07-30T17:38:34Z</time>
      </trkpt>
      <trkpt lat="42.31697" lon="2.69909">
        <ele>363.05</ele>
        <time>2021-07-30T17:38:31Z</time>
      </trkpt>
      <trkpt lat="42.31697" lon="2.69928">
        <ele>361.9</ele>
        <time>2021-07-30T17:38:29Z</time>
      </trkpt>
      <trkpt lat="42.31669" lon="2.69976">
        <ele>358.17</ele>
        <time>2021-07-30T17:38:22Z</time>
      </trkpt>
      <trkpt lat="42.31643" lon="2.69995">
        <ele>356.58</ele>
        <time>2021-07-30T17:38:16Z</time>
      </trkpt>
      <trkpt lat="42.31645" lon="2.7">
        <ele>356.32</ele>
        <time>2021-07-30T17:38:15Z</time>
      </trkpt>
      <trkpt lat="42.31675" lon="2.70044">
        <ele>353.1</ele>
        <time>2021-07-30T17:38:04Z</time>
      </trkpt>
      <trkpt lat="42.31679" lon="2.70053">
        <ele>352.35</ele>
        <time>2021-07-30T17:38:02Z</time>
      </trkpt>
      <trkpt lat="42.31669" lon="2.70045">
        <ele>349.16</ele>
        <time>2021-07-30T17:37:55Z</time>
      </trkpt>
      <trkpt lat="42.3163" lon="2.70028">
        <ele>345.21</ele>
        <time>2021-07-30T17:37:48Z</time>
      </trkpt>
      <trkpt lat="42.31599" lon="2.70034">
        <ele>342.97</ele>
        <time>2021-07-30T17:37:44Z</time>
      </trkpt>
      <trkpt lat="42.31553" lon="2.70032">
        <ele>339.99</ele>
        <time>2021-07-30T17:37:39Z</time>
      </trkpt>
      <trkpt lat="42.31512" lon="2.70014">
        <ele>336.84</ele>
        <time>2021-07-30T17:37:34Z</time>
      </trkpt>
      <trkpt lat="42.31487" lon="2.70012">
        <ele>335.13</ele>
        <time>2021-07-30T17:37:31Z</time>
      </trkpt>
      <trkpt lat="42.31498" lon="2.70036">
        <ele>331.14</ele>
        <time>2021-07-30T17:37:24Z</time>
      </trkpt>
      <trkpt lat="42.31546" lon="2.70056">
        <ele>328.3</ele>
        <time>2021-07-30T17:37:19Z</time>
      </trkpt>
      <trkpt lat="42.31581" lon="2.70075">
        <ele>326.34</ele>
        <time>2021-07-30T17:37:14Z</time>
      </trkpt>
      <trkpt lat="42.31587" lon="2.70083">
        <ele>324.45</ele>
        <time>2021-07-30T17:37:10Z</time>
      </trkpt>
      <trkpt lat="42.3154" lon="2.70077">
        <ele>320.93</ele>
        <time>2021-07-30T17:37:03Z</time>
      </trkpt>
      <trkpt lat="42.31505" lon="2.70066">
        <ele>318.85</ele>
        <time>2021-07-30T17:36:59Z</time>
      </trkpt>
      <trkpt lat="42.31431" lon="2.70059">
        <ele>314.15</ele>
        <time>2021-07-30T17:36:51Z</time>
      </trkpt>
      <trkpt lat="42.31415" lon="2.70045">
        <ele>312.16</ele>
        <time>2021-07-30T17:36:48Z</time>
      </trkpt>
      <trkpt lat="42.31419" lon="2.70066">
        <ele>308.33</ele>
        <time>2021-07-30T17:36:44Z</time>
      </trkpt>
      <trkpt lat="42.3144" lon="2.70082">
        <ele>306.15</ele>
        <time>2021-07-30T17:36:41Z</time>
      </trkpt>
      <trkpt lat="42.3145" lon="2.70088">
        <ele>305.51</ele>
        <time>2021-07-30T17:36:40Z</time>
      </trkpt>
      <trkpt lat="42.31509" lon="2.70101">
        <ele>302.06</ele>
        <time>2021-07-30T17:36:34Z</time>
      </trkpt>
      <trkpt lat="42.31513" lon="2.70116">
        <ele>301.19</ele>
        <time>2021-07-30T17:36:32Z</time>
      </trkpt>
      <trkpt lat="42.31519" lon="2.70169">
        <ele>299.69</ele>
        <time>2021-07-30T17:36:26Z</time>
      </trkpt>
      <trkpt lat="42.31521" lon="2.70173">
        <ele>299.5</ele>
        <time>2021-07-30T17:36:25Z</time>
      </trkpt>
      <trkpt lat="42.31511" lon="2.70162">
        <ele>298.13</ele>
        <time>2021-07-30T17:36:20Z</time>
      </trkpt>
      <trkpt lat="42.31505" lon="2.70121">
        <ele>296.49</ele>
        <time>2021-07-30T17:36:16Z</time>
      </trkpt>
      <trkpt lat="42.31469" lon="2.70122">
        <ele>293.25</ele>
        <time>2021-07-30T17:36:11Z</time>
      </trkpt>
      <trkpt lat="42.31452" lon="2.70123">
        <ele>290.76</ele>
        <time>2021-07-30T17:36:07Z</time>
      </trkpt>
      <trkpt lat="42.31473" lon="2.7013">
        <ele>287.45</ele>
        <time>2021-07-30T17:36:03Z</time>
      </trkpt>
      <trkpt lat="42.31491" lon="2.70153">
        <ele>282.49</ele>
        <time>2021-07-30T17:35:58Z</time>
      </trkpt>
      <trkpt lat="42.31488" lon="2.70174">
        <ele>280.52</ele>
        <time>2021-07-30T17:35:56Z</time>
      </trkpt>
      <trkpt lat="42.31489" lon="2.70218">
        <ele>276.74</ele>
        <time>2021-07-30T17:35:52Z</time>
      </trkpt>
      <trkpt lat="42.31495" lon="2.70238">
        <ele>275.37</ele>
        <time>2021-07-30T17:35:50Z</time>
      </trkpt>
      <trkpt lat="42.31498" lon="2.70247">
        <ele>274.77</ele>
        <time>2021-07-30T17:35:49Z</time>
      </trkpt>
      <trkpt lat="42.31521" lon="2.7026">
        <ele>271.69</ele>
        <time>2021-07-30T17:35:44Z</time>
      </trkpt>
      <trkpt lat="42.31506" lon="2.70286">
        <ele>267.91</ele>
        <time>2021-07-30T17:35:38Z</time>
      </trkpt>
      <trkpt lat="42.31494" lon="2.70299">
        <ele>266.76</ele>
        <time>2021-07-30T17:35:36Z</time>
      </trkpt>
      <trkpt lat="42.31473" lon="2.70307">
        <ele>263.72</ele>
        <time>2021-07-30T17:35:31Z</time>
      </trkpt>
      <trkpt lat="42.31491" lon="2.70319">
        <ele>260.51</ele>
        <time>2021-07-30T17:35:26Z</time>
      </trkpt>
      <trkpt lat="42.31508" lon="2.70309">
        <ele>259.29</ele>
        <time>2021-07-30T17:35:24Z</time>
      </trkpt>
      <trkpt lat="42.3154" lon="2.70302">
        <ele>257.6</ele>
        <time>2021-07-30T17:35:20Z</time>
      </trkpt>
      <trkpt lat="42.31522" lon="2.70347">
        <ele>255.56</ele>
        <time>2021-07-30T17:35:12Z</time>
      </trkpt>
      <trkpt lat="42.31496" lon="2.70367">
        <ele>255.11</ele>
        <time>2021-07-30T17:35:07Z</time>
      </trkpt>
      <trkpt lat="42.31456" lon="2.70383">
        <ele>253.85</ele>
        <time>2021-07-30T17:35:02Z</time>
      </trkpt>
      <trkpt lat="42.31384" lon="2.70379">
        <ele>251.99</ele>
        <time>2021-07-30T17:34:55Z</time>
      </trkpt>
      <trkpt lat="42.31356" lon="2.7036">
        <ele>250.87</ele>
        <time>2021-07-30T17:34:52Z</time>
      </trkpt>
      <trkpt lat="42.31339" lon="2.70346">
        <ele>249.98</ele>
        <time>2021-07-30T17:34:50Z</time>
      </trkpt>
      <trkpt lat="42.31328" lon="2.70276">
        <ele>246.88</ele>
        <time>2021-07-30T17:34:43Z</time>
      </trkpt>
      <trkpt lat="42.31294" lon="2.70202">
        <ele>247.46</ele>
        <time>2021-07-30T17:34:35Z</time>
      </trkpt>
      <trkpt lat="42.31247" lon="2.70199">
        <ele>248.14</ele>
        <time>2021-07-30T17:34:29Z</time>
      </trkpt>
      <trkpt lat="42.31203" lon="2.70231">
        <ele>247.59</ele>
        <time>2021-07-30T17:34:24Z</time>
      </trkpt>
      <trkpt lat="42.31138" lon="2.70352">
        <ele>248.08</ele>
        <time>2021-07-30T17:34:14Z</time>
      </trkpt>
      <trkpt lat="42.31105" lon="2.70383">
        <ele>247.66</ele>
        <time>2021-07-30T17:34:09Z</time>
      </trkpt>
      <trkpt lat="42.31075" lon="2.70382">
        <ele>245.46</ele>
        <time>2021-07-30T17:34:00Z</time>
      </trkpt>
      <trkpt lat="42.3101" lon="2.70391">
        <ele>242.27</ele>
        <time>2021-07-30T17:33:52Z</time>
      </trkpt>
      <trkpt lat="42.30946" lon="2.70409">
        <ele>241.54</ele>
        <time>2021-07-30T17:33:45Z</time>
      </trkpt>
      <trkpt lat="42.30931" lon="2.7041">
        <ele>241.19</ele>
        <time>2021-07-30T17:33:34Z</time>
      </trkpt>
      <trkpt lat="42.30901" lon="2.7042">
        <ele>241.55</ele>
        <time>2021-07-30T17:33:26Z</time>
      </trkpt>
      <trkpt lat="42.30876" lon="2.70434">
        <ele>242.72</ele>
        <time>2021-07-30T17:33:22Z</time>
      </trkpt>
      <trkpt lat="42.30815" lon="2.70482">
        <ele>240.42</ele>
        <time>2021-07-30T17:33:13Z</time>
      </trkpt>
      <trkpt lat="42.30802" lon="2.70484">
        <ele>239.34</ele>
        <time>2021-07-30T17:33:11Z</time>
      </trkpt>
      <trkpt lat="42.30754" lon="2.70507">
        <ele>237.21</ele>
        <time>2021-07-30T17:33:04Z</time>
      </trkpt>
      <trkpt lat="42.30722" lon="2.70534">
        <ele>237.27</ele>
        <time>2021-07-30T17:32:57Z</time>
      </trkpt>
      <trkpt lat="42.30725" lon="2.70583">
        <ele>238.15</ele>
        <time>2021-07-30T17:32:54Z</time>
      </trkpt>
      <trkpt lat="42.30733" lon="2.70621">
        <ele>239.05</ele>
        <time>2021-07-30T17:32:52Z</time>
      </trkpt>
      <trkpt lat="42.30761" lon="2.70728">
        <ele>239.82</ele>
        <time>2021-07-30T17:32:46Z</time>
      </trkpt>
      <trkpt lat="42.30764" lon="2.7074">
        <ele>239.84</ele>
        <time>2021-07-30T17:32:45Z</time>
      </trkpt>
      <trkpt lat="42.30758" lon="2.70858">
        <ele>240.06</ele>
        <time>2021-07-30T17:32:36Z</time>
      </trkpt>
      <trkpt lat="42.30749" lon="2.70897">
        <ele>240.23</ele>
        <time>2021-07-30T17:32:31Z</time>
      </trkpt>
      <trkpt lat="42.30743" lon="2.70911">
        <ele>240.21</ele>
        <time>2021-07-30T17:32:29Z</time>
      </trkpt>
      <trkpt lat="42.30714" lon="2.70923">
        <ele>240.57</ele>
        <time>2021-07-30T17:32:22Z</time>
      </trkpt>
      <trkpt lat="42.30699" lon="2.70915">
        <ele>240.95</ele>
        <time>2021-07-30T17:32:19Z</time>
      </trkpt>
      <trkpt lat="42.30686" lon="2.70906">
        <ele>241.43</ele>
        <time>2021-07-30T17:32:16Z</time>
      </trkpt>
      <trkpt lat="42.30673" lon="2.70903">
        <ele>242.44</ele>
        <time>2021-07-30T17:32:12Z</time>
      </trkpt>
      <trkpt lat="42.30656" lon="2.7091">
        <ele>245.91</ele>
        <time>2021-07-30T17:32:00Z</time>
      </trkpt>
      <trkpt lat="42.30645" lon="2.7094">
        <ele>247.63</ele>
        <time>2021-07-30T17:31:54Z</time>
      </trkpt>
      <trkpt lat="42.30642" lon="2.70984">
        <ele>247.37</ele>
        <time>2021-07-30T17:31:50Z</time>
      </trkpt>
      <trkpt lat="42.30633" lon="2.71026">
        <ele>246.57</ele>
        <time>2021-07-30T17:31:47Z</time>
      </trkpt>
      <trkpt lat="42.30632" lon="2.71139">
        <ele>243.4</ele>
        <time>2021-07-30T17:31:38Z</time>
      </trkpt>
      <trkpt lat="42.30638" lon="2.71278">
        <ele>240.82</ele>
        <time>2021-07-30T17:31:28Z</time>
      </trkpt>
      <trkpt lat="42.30631" lon="2.71378">
        <ele>237.69</ele>
        <time>2021-07-30T17:31:20Z</time>
      </trkpt>
      <trkpt lat="42.30632" lon="2.71482">
        <ele>233.92</ele>
        <time>2021-07-30T17:31:11Z</time>
      </trkpt>
      <trkpt lat="42.30627" lon="2.71518">
        <ele>232.43</ele>
        <time>2021-07-30T17:31:07Z</time>
      </trkpt>
      <trkpt lat="42.30605" lon="2.71553">
        <ele>231.03</ele>
        <time>2021-07-30T17:31:00Z</time>
      </trkpt>
      <trkpt lat="42.30608" lon="2.71605">
        <ele>231.16</ele>
        <time>2021-07-30T17:30:54Z</time>
      </trkpt>
      <trkpt lat="42.30616" lon="2.71635">
        <ele>232.3</ele>
        <time>2021-07-30T17:30:47Z</time>
      </trkpt>
      <trkpt lat="42.30612" lon="2.71662">
        <ele>233.64</ele>
        <time>2021-07-30T17:30:41Z</time>
      </trkpt>
      <trkpt lat="42.30576" lon="2.71711">
        <ele>233.9</ele>
        <time>2021-07-30T17:30:34Z</time>
      </trkpt>
      <trkpt lat="42.30554" lon="2.71747">
        <ele>233.88</ele>
        <time>2021-07-30T17:30:30Z</time>
      </trkpt>
      <trkpt lat="42.30552" lon="2.71757">
        <ele>233.84</ele>
        <time>2021-07-30T17:30:29Z</time>
      </trkpt>
      <trkpt lat="42.30543" lon="2.71893">
        <ele>232.11</ele>
        <time>2021-07-30T17:30:18Z</time>
      </trkpt>
      <trkpt lat="42.30547" lon="2.71918">
        <ele>231.74</ele>
        <time>2021-07-30T17:30:16Z</time>
      </trkpt>
      <trkpt lat="42.30546" lon="2.71952">
        <ele>230.37</ele>
        <time>2021-07-30T17:30:10Z</time>
      </trkpt>
      <trkpt lat="42.30509" lon="2.71961">
        <ele>229.63</ele>
        <time>2021-07-30T17:30:01Z</time>
      </trkpt>
      <trkpt lat="42.30494" lon="2.7197">
        <ele>229.62</ele>
        <time>2021-07-30T17:29:57Z</time>
      </trkpt>
      <trkpt lat="42.30499" lon="2.72001">
        <ele>229.56</ele>
        <time>2021-07-30T17:29:49Z</time>
      </trkpt>
      <trkpt lat="42.30531" lon="2.7206">
        <ele>229.54</ele>
        <time>2021-07-30T17:29:40Z</time>
      </trkpt>
      <trkpt lat="42.30559" lon="2.72115">
        <ele>229.75</ele>
        <time>2021-07-30T17:29:30Z</time>
      </trkpt>
      <trkpt lat="42.30588" lon="2.72169">
        <ele>230.62</ele>
        <time>2021-07-30T17:29:21Z</time>
      </trkpt>
      <trkpt lat="42.306" lon="2.72216">
        <ele>230.86</ele>
        <time>2021-07-30T17:29:16Z</time>
      </trkpt>
      <trkpt lat="42.30596" lon="2.72283">
        <ele>230.47</ele>
        <time>2021-07-30T17:29:12Z</time>
      </trkpt>
      <trkpt lat="42.30582" lon="2.72529">
        <ele>227.82</ele>
        <time>2021-07-30T17:29:02Z</time>
      </trkpt>
      <trkpt lat="42.30569" lon="2.7276">
        <ele>224.77</ele>
        <time>2021-07-30T17:28:54Z</time>
      </trkpt>
      <trkpt lat="42.30563" lon="2.72959">
        <ele>223.47</ele>
        <time>2021-07-30T17:28:47Z</time>
      </trkpt>
      <trkpt lat="42.30621" lon="2.73283">
        <ele>222.78</ele>
        <time>2021-07-30T17:28:36Z</time>
      </trkpt>
      <trkpt lat="42.30667" lon="2.73636">
        <ele>219.89</ele>
        <time>2021-07-30T17:28:24Z</time>
      </trkpt>
      <trkpt lat="42.30696" lon="2.73915">
        <ele>217.98</ele>
        <time>2021-07-30T17:28:14Z</time>
      </trkpt>
      <trkpt lat="42.30749" lon="2.74093">
        <ele>216.62</ele>
        <time>2021-07-30T17:28:07Z</time>
      </trkpt>
      <trkpt lat="42.30826" lon="2.74363">
        <ele>213.71</ele>
        <time>2021-07-30T17:27:57Z</time>
      </trkpt>
      <trkpt lat="42.30837" lon="2.74501">
        <ele>211.62</ele>
        <time>2021-07-30T17:27:52Z</time>
      </trkpt>
      <trkpt lat="42.30855" lon="2.74725">
        <ele>208.32</ele>
        <time>2021-07-30T17:27:44Z</time>
      </trkpt>
      <trkpt lat="42.30885" lon="2.74906">
        <ele>207.39</ele>
        <time>2021-07-30T17:27:37Z</time>
      </trkpt>
      <trkpt lat="42.30885" lon="2.74933">
        <ele>207.53</ele>
        <time>2021-07-30T17:27:36Z</time>
      </trkpt>
      <trkpt lat="42.30891" lon="2.75275">
        <ele>209.05</ele>
        <time>2021-07-30T17:27:25Z</time>
      </trkpt>
      <trkpt lat="42.30908" lon="2.75715">
        <ele>208.64</ele>
        <time>2021-07-30T17:27:11Z</time>
      </trkpt>
      <trkpt lat="42.3092" lon="2.7603">
        <ele>208.83</ele>
        <time>2021-07-30T17:27:00Z</time>
      </trkpt>
      <trkpt lat="42.30918" lon="2.76077">
        <ele>208.56</ele>
        <time>2021-07-30T17:26:58Z</time>
      </trkpt>
      <trkpt lat="42.30886" lon="2.76156">
        <ele>207.54</ele>
        <time>2021-07-30T17:26:54Z</time>
      </trkpt>
      <trkpt lat="42.30911" lon="2.76228">
        <ele>204.15</ele>
        <time>2021-07-30T17:26:49Z</time>
      </trkpt>
      <trkpt lat="42.30972" lon="2.76256">
        <ele>200.91</ele>
        <time>2021-07-30T17:26:45Z</time>
      </trkpt>
      <trkpt lat="42.30988" lon="2.76263">
        <ele>200.2</ele>
        <time>2021-07-30T17:26:44Z</time>
      </trkpt>
      <trkpt lat="42.31069" lon="2.7634">
        <ele>196.81</ele>
        <time>2021-07-30T17:26:38Z</time>
      </trkpt>
      <trkpt lat="42.31125" lon="2.76512">
        <ele>194.57</ele>
        <time>2021-07-30T17:26:30Z</time>
      </trkpt>
      <trkpt lat="42.31193" lon="2.76742">
        <ele>194.97</ele>
        <time>2021-07-30T17:26:20Z</time>
      </trkpt>
      <trkpt lat="42.31197" lon="2.76786">
        <ele>195.56</ele>
        <time>2021-07-30T17:26:18Z</time>
      </trkpt>
      <trkpt lat="42.31204" lon="2.7702">
        <ele>196.39</ele>
        <time>2021-07-30T17:26:08Z</time>
      </trkpt>
      <trkpt lat="42.31219" lon="2.77118">
        <ele>194.46</ele>
        <time>2021-07-30T17:26:03Z</time>
      </trkpt>
      <trkpt lat="42.31219" lon="2.77179">
        <ele>193.14</ele>
        <time>2021-07-30T17:26:00Z</time>
      </trkpt>
      <trkpt lat="42.31229" lon="2.7726">
        <ele>191.95</ele>
        <time>2021-07-30T17:25:56Z</time>
      </trkpt>
      <trkpt lat="42.31253" lon="2.77337">
        <ele>190.67</ele>
        <time>2021-07-30T17:25:52Z</time>
      </trkpt>
      <trkpt lat="42.31377" lon="2.77516">
        <ele>187.51</ele>
        <time>2021-07-30T17:25:42Z</time>
      </trkpt>
      <trkpt lat="42.31498" lon="2.77684">
        <ele>184.49</ele>
        <time>2021-07-30T17:25:32Z</time>
      </trkpt>
      <trkpt lat="42.31595" lon="2.77822">
        <ele>180.62</ele>
        <time>2021-07-30T17:25:24Z</time>
      </trkpt>
      <trkpt lat="42.31631" lon="2.77912">
        <ele>179.48</ele>
        <time>2021-07-30T17:25:19Z</time>
      </trkpt>
      <trkpt lat="42.31653" lon="2.7807">
        <ele>179.14</ele>
        <time>2021-07-30T17:25:11Z</time>
      </trkpt>
      <trkpt lat="42.31659" lon="2.781">
        <ele>179.02</ele>
        <time>2021-07-30T17:25:09Z</time>
      </trkpt>
      <trkpt lat="42.31718" lon="2.78129">
        <ele>177.61</ele>
        <time>2021-07-30T17:25:03Z</time>
      </trkpt>
      <trkpt lat="42.31829" lon="2.78079">
        <ele>174.57</ele>
        <time>2021-07-30T17:24:55Z</time>
      </trkpt>
      <trkpt lat="42.31938" lon="2.78068">
        <ele>172.9</ele>
        <time>2021-07-30T17:24:47Z</time>
      </trkpt>
      <trkpt lat="42.31976" lon="2.78088">
        <ele>173.33</ele>
        <time>2021-07-30T17:24:42Z</time>
      </trkpt>
      <trkpt lat="42.32016" lon="2.7818">
        <ele>175.01</ele>
        <time>2021-07-30T17:24:36Z</time>
      </trkpt>
      <trkpt lat="42.32057" lon="2.78353">
        <ele>175.05</ele>
        <time>2021-07-30T17:24:27Z</time>
      </trkpt>
      <trkpt lat="42.32058" lon="2.78371">
        <ele>174.76</ele>
        <time>2021-07-30T17:24:26Z</time>
      </trkpt>
      <trkpt lat="42.32048" lon="2.78494">
        <ele>172.71</ele>
        <time>2021-07-30T17:24:18Z</time>
      </trkpt>
      <trkpt lat="42.32039" lon="2.78604">
        <ele>170.88</ele>
        <time>2021-07-30T17:24:09Z</time>
      </trkpt>
      <trkpt lat="42.32029" lon="2.78736">
        <ele>169.5</ele>
        <time>2021-07-30T17:24:00Z</time>
      </trkpt>
      <trkpt lat="42.32056" lon="2.78829">
        <ele>168.55</ele>
        <time>2021-07-30T17:23:52Z</time>
      </trkpt>
      <trkpt lat="42.32095" lon="2.78876">
        <ele>168</ele>
        <time>2021-07-30T17:23:45Z</time>
      </trkpt>
      <trkpt lat="42.32118" lon="2.78905">
        <ele>167.32</ele>
        <time>2021-07-30T17:23:37Z</time>
      </trkpt>
      <trkpt lat="42.32165" lon="2.78916">
        <ele>166.77</ele>
        <time>2021-07-30T17:23:31Z</time>
      </trkpt>
      <trkpt lat="42.32204" lon="2.789">
        <ele>166.53</ele>
        <time>2021-07-30T17:23:26Z</time>
      </trkpt>
      <trkpt lat="42.32268" lon="2.7887">
        <ele>165.63</ele>
        <time>2021-07-30T17:23:17Z</time>
      </trkpt>
      <trkpt lat="42.32293" lon="2.78875">
        <ele>165.21</ele>
        <time>2021-07-30T17:23:13Z</time>
      </trkpt>
      <trkpt lat="42.32301" lon="2.78896">
        <ele>165.28</ele>
        <time>2021-07-30T17:23:10Z</time>
      </trkpt>
      <trkpt lat="42.32322" lon="2.78895">
        <ele>165.94</ele>
        <time>2021-07-30T17:23:05Z</time>
      </trkpt>
      <trkpt lat="42.32335" lon="2.78896">
        <ele>166.86</ele>
        <time>2021-07-30T17:23:03Z</time>
      </trkpt>
      <trkpt lat="42.32351" lon="2.78877">
        <ele>169.87</ele>
        <time>2021-07-30T17:22:58Z</time>
      </trkpt>
      <trkpt lat="42.32364" lon="2.78848">
        <ele>174.02</ele>
        <time>2021-07-30T17:22:53Z</time>
      </trkpt>
      <trkpt lat="42.32422" lon="2.78847">
        <ele>177.64</ele>
        <time>2021-07-30T17:22:48Z</time>
      </trkpt>
      <trkpt lat="42.32526" lon="2.78866">
        <ele>181.45</ele>
        <time>2021-07-30T17:22:41Z</time>
      </trkpt>
      <trkpt lat="42.32581" lon="2.78849">
        <ele>184.24</ele>
        <time>2021-07-30T17:22:37Z</time>
      </trkpt>
      <trkpt lat="42.32608" lon="2.78834">
        <ele>185.98</ele>
        <time>2021-07-30T17:22:35Z</time>
      </trkpt>
      <trkpt lat="42.32659" lon="2.78802">
        <ele>190.24</ele>
        <time>2021-07-30T17:22:31Z</time>
      </trkpt>
      <trkpt lat="42.32689" lon="2.78772">
        <ele>195.33</ele>
        <time>2021-07-30T17:22:27Z</time>
      </trkpt>
      <trkpt lat="42.32691" lon="2.78743">
        <ele>197.77</ele>
        <time>2021-07-30T17:22:25Z</time>
      </trkpt>
      <trkpt lat="42.32697" lon="2.78651">
        <ele>202.5</ele>
        <time>2021-07-30T17:22:20Z</time>
      </trkpt>
      <trkpt lat="42.3269" lon="2.78616">
        <ele>204.22</ele>
        <time>2021-07-30T17:22:18Z</time>
      </trkpt>
      <trkpt lat="42.32687" lon="2.78598">
        <ele>205.02</ele>
        <time>2021-07-30T17:22:17Z</time>
      </trkpt>
      <trkpt lat="42.32702" lon="2.78508">
        <ele>209</ele>
        <time>2021-07-30T17:22:11Z</time>
      </trkpt>
      <trkpt lat="42.32758" lon="2.78463">
        <ele>211.97</ele>
        <time>2021-07-30T17:22:06Z</time>
      </trkpt>
      <trkpt lat="42.32762" lon="2.78479">
        <ele>215.12</ele>
        <time>2021-07-30T17:22:02Z</time>
      </trkpt>
      <trkpt lat="42.32755" lon="2.78516">
        <ele>217.43</ele>
        <time>2021-07-30T17:21:59Z</time>
      </trkpt>
      <trkpt lat="42.32752" lon="2.78556">
        <ele>220.27</ele>
        <time>2021-07-30T17:21:56Z</time>
      </trkpt>
      <trkpt lat="42.32764" lon="2.78575">
        <ele>223.55</ele>
        <time>2021-07-30T17:21:54Z</time>
      </trkpt>
      <trkpt lat="42.32812" lon="2.78568">
        <ele>227.57</ele>
        <time>2021-07-30T17:21:49Z</time>
      </trkpt>
      <trkpt lat="42.32831" lon="2.78548">
        <ele>228.43</ele>
        <time>2021-07-30T17:21:47Z</time>
      </trkpt>
      <trkpt lat="42.3284" lon="2.78538">
        <ele>228.72</ele>
        <time>2021-07-30T17:21:46Z</time>
      </trkpt>
      <trkpt lat="42.32884" lon="2.78538">
        <ele>228.88</ele>
        <time>2021-07-30T17:21:38Z</time>
      </trkpt>
      <trkpt lat="42.32911" lon="2.78547">
        <ele>226.66</ele>
        <time>2021-07-30T17:21:34Z</time>
      </trkpt>
      <trkpt lat="42.32943" lon="2.78541">
        <ele>221.68</ele>
        <time>2021-07-30T17:21:29Z</time>
      </trkpt>
      <trkpt lat="42.32953" lon="2.78548">
        <ele>220.49</ele>
        <time>2021-07-30T17:21:28Z</time>
      </trkpt>
      <trkpt lat="42.32993" lon="2.78571">
        <ele>216.79</ele>
        <time>2021-07-30T17:21:25Z</time>
      </trkpt>
      <trkpt lat="42.33037" lon="2.786">
        <ele>213.2</ele>
        <time>2021-07-30T17:21:22Z</time>
      </trkpt>
      <trkpt lat="42.33095" lon="2.78631">
        <ele>208.93</ele>
        <time>2021-07-30T17:21:18Z</time>
      </trkpt>
      <trkpt lat="42.33123" lon="2.78638">
        <ele>206.91</ele>
        <time>2021-07-30T17:21:16Z</time>
      </trkpt>
      <trkpt lat="42.33177" lon="2.78651">
        <ele>203.1</ele>
        <time>2021-07-30T17:21:12Z</time>
      </trkpt>
      <trkpt lat="42.33265" lon="2.78659">
        <ele>197.88</ele>
        <time>2021-07-30T17:21:06Z</time>
      </trkpt>
      <trkpt lat="42.33291" lon="2.78657">
        <ele>195.81</ele>
        <time>2021-07-30T17:21:04Z</time>
      </trkpt>
      <trkpt lat="42.33331" lon="2.78692">
        <ele>191.74</ele>
        <time>2021-07-30T17:21:00Z</time>
      </trkpt>
      <trkpt lat="42.33366" lon="2.78759">
        <ele>187.09</ele>
        <time>2021-07-30T17:20:55Z</time>
      </trkpt>
      <trkpt lat="42.33409" lon="2.78798">
        <ele>182.74</ele>
        <time>2021-07-30T17:20:50Z</time>
      </trkpt>
      <trkpt lat="42.33425" lon="2.78808">
        <ele>180.96</ele>
        <time>2021-07-30T17:20:48Z</time>
      </trkpt>
      <trkpt lat="42.33452" lon="2.7882">
        <ele>176.58</ele>
        <time>2021-07-30T17:20:44Z</time>
      </trkpt>
      <trkpt lat="42.33459" lon="2.78824">
        <ele>175.36</ele>
        <time>2021-07-30T17:20:43Z</time>
      </trkpt>
      <trkpt lat="42.33472" lon="2.78858">
        <ele>170.19</ele>
        <time>2021-07-30T17:20:39Z</time>
      </trkpt>
      <trkpt lat="42.33471" lon="2.78901">
        <ele>166.4</ele>
        <time>2021-07-30T17:20:36Z</time>
      </trkpt>
      <trkpt lat="42.33474" lon="2.78943">
        <ele>163.29</ele>
        <time>2021-07-30T17:20:33Z</time>
      </trkpt>
      <trkpt lat="42.33477" lon="2.79038">
        <ele>160.13</ele>
        <time>2021-07-30T17:20:26Z</time>
      </trkpt>
      <trkpt lat="42.33488" lon="2.79074">
        <ele>160.29</ele>
        <time>2021-07-30T17:20:22Z</time>
      </trkpt>
      <trkpt lat="42.33498" lon="2.79082">
        <ele>160.45</ele>
        <time>2021-07-30T17:20:20Z</time>
      </trkpt>
      <trkpt lat="42.33521" lon="2.79076">
        <ele>161.28</ele>
        <time>2021-07-30T17:20:15Z</time>
      </trkpt>
      <trkpt lat="42.33531" lon="2.79066">
        <ele>161.52</ele>
        <time>2021-07-30T17:20:12Z</time>
      </trkpt>
      <trkpt lat="42.33554" lon="2.79063">
        <ele>161.53</ele>
        <time>2021-07-30T17:20:06Z</time>
      </trkpt>
      <trkpt lat="42.33664" lon="2.79049">
        <ele>161.45</ele>
        <time>2021-07-30T17:19:56Z</time>
      </trkpt>
      <trkpt lat="42.33711" lon="2.79018">
        <ele>162.23</ele>
        <time>2021-07-30T17:19:50Z</time>
      </trkpt>
      <trkpt lat="42.33719" lon="2.78995">
        <ele>162.76</ele>
        <time>2021-07-30T17:19:48Z</time>
      </trkpt>
      <trkpt lat="42.33733" lon="2.79">
        <ele>163.96</ele>
        <time>2021-07-30T17:19:41Z</time>
      </trkpt>
      <trkpt lat="42.33732" lon="2.79034">
        <ele>164.49</ele>
        <time>2021-07-30T17:19:38Z</time>
      </trkpt>
      <trkpt lat="42.33738" lon="2.79076">
        <ele>166.95</ele>
        <time>2021-07-30T17:19:34Z</time>
      </trkpt>
      <trkpt lat="42.33762" lon="2.791">
        <ele>169.2</ele>
        <time>2021-07-30T17:19:31Z</time>
      </trkpt>
      <trkpt lat="42.3379" lon="2.79097">
        <ele>172.83</ele>
        <time>2021-07-30T17:19:26Z</time>
      </trkpt>
      <trkpt lat="42.33834" lon="2.78992">
        <ele>173.4</ele>
        <time>2021-07-30T17:19:19Z</time>
      </trkpt>
      <trkpt lat="42.33873" lon="2.78903">
        <ele>170.27</ele>
        <time>2021-07-30T17:19:14Z</time>
      </trkpt>
      <trkpt lat="42.33909" lon="2.78839">
        <ele>165.96</ele>
        <time>2021-07-30T17:19:09Z</time>
      </trkpt>
      <trkpt lat="42.33947" lon="2.78786">
        <ele>162.69</ele>
        <time>2021-07-30T17:19:04Z</time>
      </trkpt>
      <trkpt lat="42.34006" lon="2.78684">
        <ele>162.05</ele>
        <time>2021-07-30T17:18:54Z</time>
      </trkpt>
      <trkpt lat="42.34036" lon="2.78654">
        <ele>163.97</ele>
        <time>2021-07-30T17:18:50Z</time>
      </trkpt>
      <trkpt lat="42.3407" lon="2.78648">
        <ele>166.05</ele>
        <time>2021-07-30T17:18:44Z</time>
      </trkpt>
      <trkpt lat="42.34077" lon="2.7866">
        <ele>166.84</ele>
        <time>2021-07-30T17:18:42Z</time>
      </trkpt>
      <trkpt lat="42.34088" lon="2.78678">
        <ele>168.19</ele>
        <time>2021-07-30T17:18:39Z</time>
      </trkpt>
      <trkpt lat="42.34107" lon="2.78674">
        <ele>171.92</ele>
        <time>2021-07-30T17:18:33Z</time>
      </trkpt>
      <trkpt lat="42.34109" lon="2.78645">
        <ele>174.53</ele>
        <time>2021-07-30T17:18:29Z</time>
      </trkpt>
      <trkpt lat="42.34114" lon="2.78633">
        <ele>176.12</ele>
        <time>2021-07-30T17:18:27Z</time>
      </trkpt>
      <trkpt lat="42.34146" lon="2.7857">
        <ele>179.61</ele>
        <time>2021-07-30T17:18:20Z</time>
      </trkpt>
      <trkpt lat="42.34185" lon="2.78498">
        <ele>178.34</ele>
        <time>2021-07-30T17:18:12Z</time>
      </trkpt>
      <trkpt lat="42.34194" lon="2.78461">
        <ele>176.44</ele>
        <time>2021-07-30T17:18:06Z</time>
      </trkpt>
      <trkpt lat="42.34196" lon="2.78451">
        <ele>176.15</ele>
        <time>2021-07-30T17:18:04Z</time>
      </trkpt>
      <trkpt lat="42.34204" lon="2.78422">
        <ele>176.33</ele>
        <time>2021-07-30T17:18:00Z</time>
      </trkpt>
      <trkpt lat="42.34205" lon="2.78401">
        <ele>176.58</ele>
        <time>2021-07-30T17:17:58Z</time>
      </trkpt>
      <trkpt lat="42.34208" lon="2.78379">
        <ele>177.03</ele>
        <time>2021-07-30T17:17:56Z</time>
      </trkpt>
      <trkpt lat="42.3425" lon="2.78319">
        <ele>180.3</ele>
        <time>2021-07-30T17:17:48Z</time>
      </trkpt>
      <trkpt lat="42.34274" lon="2.78286">
        <ele>184</ele>
        <time>2021-07-30T17:17:42Z</time>
      </trkpt>
      <trkpt lat="42.34304" lon="2.78232">
        <ele>186.61</ele>
        <time>2021-07-30T17:17:36Z</time>
      </trkpt>
      <trkpt lat="42.34326" lon="2.78176">
        <ele>187.72</ele>
        <time>2021-07-30T17:17:30Z</time>
      </trkpt>
      <trkpt lat="42.34334" lon="2.78144">
        <ele>187.31</ele>
        <time>2021-07-30T17:17:26Z</time>
      </trkpt>
      <trkpt lat="42.3433" lon="2.78094">
        <ele>186.43</ele>
        <time>2021-07-30T17:17:21Z</time>
      </trkpt>
      <trkpt lat="42.34328" lon="2.78047">
        <ele>185.83</ele>
        <time>2021-07-30T17:17:16Z</time>
      </trkpt>
      <trkpt lat="42.34328" lon="2.77992">
        <ele>184.78</ele>
        <time>2021-07-30T17:17:10Z</time>
      </trkpt>
      <trkpt lat="42.34353" lon="2.77895">
        <ele>185.67</ele>
        <time>2021-07-30T17:17:01Z</time>
      </trkpt>
      <trkpt lat="42.34405" lon="2.77796">
        <ele>189.24</ele>
        <time>2021-07-30T17:16:49Z</time>
      </trkpt>
      <trkpt lat="42.3441" lon="2.77779">
        <ele>190.01</ele>
        <time>2021-07-30T17:16:47Z</time>
      </trkpt>
      <trkpt lat="42.34424" lon="2.77755">
        <ele>191.95</ele>
        <time>2021-07-30T17:16:43Z</time>
      </trkpt>
      <trkpt lat="42.34437" lon="2.77743">
        <ele>192.85</ele>
        <time>2021-07-30T17:16:41Z</time>
      </trkpt>
      <trkpt lat="42.34484" lon="2.777">
        <ele>195.98</ele>
        <time>2021-07-30T17:16:34Z</time>
      </trkpt>
      <trkpt lat="42.3453" lon="2.77652">
        <ele>199.03</ele>
        <time>2021-07-30T17:16:26Z</time>
      </trkpt>
      <trkpt lat="42.34541" lon="2.77642">
        <ele>199.71</ele>
        <time>2021-07-30T17:16:24Z</time>
      </trkpt>
      <trkpt lat="42.34558" lon="2.77632">
        <ele>200.95</ele>
        <time>2021-07-30T17:16:21Z</time>
      </trkpt>
      <trkpt lat="42.34596" lon="2.77643">
        <ele>203.98</ele>
        <time>2021-07-30T17:16:14Z</time>
      </trkpt>
      <trkpt lat="42.34615" lon="2.77676">
        <ele>206.46</ele>
        <time>2021-07-30T17:16:09Z</time>
      </trkpt>
      <trkpt lat="42.34631" lon="2.77685">
        <ele>208.54</ele>
        <time>2021-07-30T17:16:06Z</time>
      </trkpt>
      <trkpt lat="42.34665" lon="2.77716">
        <ele>211.7</ele>
        <time>2021-07-30T17:16:00Z</time>
      </trkpt>
      <trkpt lat="42.34677" lon="2.77735">
        <ele>213.47</ele>
        <time>2021-07-30T17:15:57Z</time>
      </trkpt>
      <trkpt lat="42.34692" lon="2.77767">
        <ele>215.79</ele>
        <time>2021-07-30T17:15:53Z</time>
      </trkpt>
      <trkpt lat="42.34705" lon="2.77784">
        <ele>216.85</ele>
        <time>2021-07-30T17:15:50Z</time>
      </trkpt>
      <trkpt lat="42.34722" lon="2.77799">
        <ele>218.26</ele>
        <time>2021-07-30T17:15:46Z</time>
      </trkpt>
      <trkpt lat="42.34732" lon="2.77803">
        <ele>219.17</ele>
        <time>2021-07-30T17:15:44Z</time>
      </trkpt>
      <trkpt lat="42.34746" lon="2.77815">
        <ele>221.66</ele>
        <time>2021-07-30T17:15:40Z</time>
      </trkpt>
      <trkpt lat="42.34767" lon="2.77842">
        <ele>223.15</ele>
        <time>2021-07-30T17:15:36Z</time>
      </trkpt>
      <trkpt lat="42.34784" lon="2.77857">
        <ele>224.72</ele>
        <time>2021-07-30T17:15:32Z</time>
      </trkpt>
      <trkpt lat="42.34796" lon="2.7787">
        <ele>225.94</ele>
        <time>2021-07-30T17:15:29Z</time>
      </trkpt>
      <trkpt lat="42.34818" lon="2.77886">
        <ele>228.07</ele>
        <time>2021-07-30T17:15:24Z</time>
      </trkpt>
      <trkpt lat="42.34827" lon="2.77886">
        <ele>228.76</ele>
        <time>2021-07-30T17:15:22Z</time>
      </trkpt>
      <trkpt lat="42.34834" lon="2.77888">
        <ele>229.47</ele>
        <time>2021-07-30T17:15:20Z</time>
      </trkpt>
      <trkpt lat="42.34844" lon="2.77906">
        <ele>232.81</ele>
        <time>2021-07-30T17:15:13Z</time>
      </trkpt>
      <trkpt lat="42.34858" lon="2.77927">
        <ele>236.66</ele>
        <time>2021-07-30T17:15:05Z</time>
      </trkpt>
      <trkpt lat="42.34871" lon="2.77929">
        <ele>240.91</ele>
        <time>2021-07-30T17:14:59Z</time>
      </trkpt>
      <trkpt lat="42.3487" lon="2.77919">
        <ele>242.26</ele>
        <time>2021-07-30T17:14:57Z</time>
      </trkpt>
      <trkpt lat="42.34869" lon="2.77913">
        <ele>242.9</ele>
        <time>2021-07-30T17:14:56Z</time>
      </trkpt>
      <trkpt lat="42.34877" lon="2.7788">
        <ele>246.73</ele>
        <time>2021-07-30T17:14:50Z</time>
      </trkpt>
      <trkpt lat="42.34879" lon="2.77867">
        <ele>247.48</ele>
        <time>2021-07-30T17:14:48Z</time>
      </trkpt>
      <trkpt lat="42.34888" lon="2.77851">
        <ele>249.07</ele>
        <time>2021-07-30T17:14:44Z</time>
      </trkpt>
      <trkpt lat="42.34892" lon="2.77883">
        <ele>252.66</ele>
        <time>2021-07-30T17:14:37Z</time>
      </trkpt>
      <trkpt lat="42.3491" lon="2.77921">
        <ele>255.91</ele>
        <time>2021-07-30T17:14:29Z</time>
      </trkpt>
      <trkpt lat="42.34922" lon="2.77924">
        <ele>258.46</ele>
        <time>2021-07-30T17:14:23Z</time>
      </trkpt>
      <trkpt lat="42.34917" lon="2.77884">
        <ele>263.24</ele>
        <time>2021-07-30T17:14:15Z</time>
      </trkpt>
      <trkpt lat="42.34926" lon="2.77858">
        <ele>266.39</ele>
        <time>2021-07-30T17:14:10Z</time>
      </trkpt>
      <trkpt lat="42.34934" lon="2.77875">
        <ele>269.65</ele>
        <time>2021-07-30T17:14:06Z</time>
      </trkpt>
      <trkpt lat="42.34951" lon="2.77893">
        <ele>274.25</ele>
        <time>2021-07-30T17:14:01Z</time>
      </trkpt>
      <trkpt lat="42.34979" lon="2.77889">
        <ele>278.1</ele>
        <time>2021-07-30T17:13:56Z</time>
      </trkpt>
      <trkpt lat="42.34995" lon="2.7788">
        <ele>279.68</ele>
        <time>2021-07-30T17:13:53Z</time>
      </trkpt>
      <trkpt lat="42.35025" lon="2.77872">
        <ele>282.51</ele>
        <time>2021-07-30T17:13:46Z</time>
      </trkpt>
      <trkpt lat="42.35052" lon="2.779">
        <ele>282.41</ele>
        <time>2021-07-30T17:13:40Z</time>
      </trkpt>
      <trkpt lat="42.35063" lon="2.77948">
        <ele>281.31</ele>
        <time>2021-07-30T17:13:33Z</time>
      </trkpt>
      <trkpt lat="42.35073" lon="2.7796">
        <ele>281.4</ele>
        <time>2021-07-30T17:13:31Z</time>
      </trkpt>
      <trkpt lat="42.35085" lon="2.77971">
        <ele>281.71</ele>
        <time>2021-07-30T17:13:29Z</time>
      </trkpt>
      <trkpt lat="42.35094" lon="2.77995">
        <ele>285.3</ele>
        <time>2021-07-30T17:13:22Z</time>
      </trkpt>
      <trkpt lat="42.35065" lon="2.78013">
        <ele>288.26</ele>
        <time>2021-07-30T17:13:17Z</time>
      </trkpt>
      <trkpt lat="42.35047" lon="2.78038">
        <ele>290.29</ele>
        <time>2021-07-30T17:13:13Z</time>
      </trkpt>
      <trkpt lat="42.35035" lon="2.78078">
        <ele>293.83</ele>
        <time>2021-07-30T17:13:08Z</time>
      </trkpt>
      <trkpt lat="42.35015" lon="2.78095">
        <ele>296.65</ele>
        <time>2021-07-30T17:13:05Z</time>
      </trkpt>
      <trkpt lat="42.35005" lon="2.78106">
        <ele>298.46</ele>
        <time>2021-07-30T17:13:03Z</time>
      </trkpt>
      <trkpt lat="42.34996" lon="2.7812">
        <ele>300.26</ele>
        <time>2021-07-30T17:13:01Z</time>
      </trkpt>
      <trkpt lat="42.34971" lon="2.78151">
        <ele>304.31</ele>
        <time>2021-07-30T17:12:56Z</time>
      </trkpt>
      <trkpt lat="42.34961" lon="2.78161">
        <ele>305.82</ele>
        <time>2021-07-30T17:12:54Z</time>
      </trkpt>
      <trkpt lat="42.34952" lon="2.78193">
        <ele>309.66</ele>
        <time>2021-07-30T17:12:49Z</time>
      </trkpt>
      <trkpt lat="42.34955" lon="2.78209">
        <ele>311.11</ele>
        <time>2021-07-30T17:12:47Z</time>
      </trkpt>
      <trkpt lat="42.34962" lon="2.78254">
        <ele>314.3</ele>
        <time>2021-07-30T17:12:42Z</time>
      </trkpt>
      <trkpt lat="42.34963" lon="2.78269">
        <ele>315.86</ele>
        <time>2021-07-30T17:12:40Z</time>
      </trkpt>
      <trkpt lat="42.3497" lon="2.78299">
        <ele>319.42</ele>
        <time>2021-07-30T17:12:35Z</time>
      </trkpt>
      <trkpt lat="42.34985" lon="2.78313">
        <ele>324</ele>
        <time>2021-07-30T17:12:30Z</time>
      </trkpt>
      <trkpt lat="42.34998" lon="2.78302">
        <ele>326.34</ele>
        <time>2021-07-30T17:12:27Z</time>
      </trkpt>
      <trkpt lat="42.3502" lon="2.78296">
        <ele>328.24</ele>
        <time>2021-07-30T17:12:24Z</time>
      </trkpt>
      <trkpt lat="42.35042" lon="2.78295">
        <ele>329.59</ele>
        <time>2021-07-30T17:12:21Z</time>
      </trkpt>
      <trkpt lat="42.3509" lon="2.78281">
        <ele>332.11</ele>
        <time>2021-07-30T17:12:13Z</time>
      </trkpt>
      <trkpt lat="42.35106" lon="2.78284">
        <ele>332.55</ele>
        <time>2021-07-30T17:12:10Z</time>
      </trkpt>
      <trkpt lat="42.35135" lon="2.78263">
        <ele>334.16</ele>
        <time>2021-07-30T17:12:03Z</time>
      </trkpt>
      <trkpt lat="42.35141" lon="2.78233">
        <ele>334.85</ele>
        <time>2021-07-30T17:12:00Z</time>
      </trkpt>
      <trkpt lat="42.35168" lon="2.7817">
        <ele>335.64</ele>
        <time>2021-07-30T17:11:53Z</time>
      </trkpt>
      <trkpt lat="42.35181" lon="2.78161">
        <ele>335.76</ele>
        <time>2021-07-30T17:11:51Z</time>
      </trkpt>
      <trkpt lat="42.35215" lon="2.78137">
        <ele>336.38</ele>
        <time>2021-07-30T17:11:46Z</time>
      </trkpt>
      <trkpt lat="42.35223" lon="2.78135">
        <ele>336.55</ele>
        <time>2021-07-30T17:11:45Z</time>
      </trkpt>
      <trkpt lat="42.35249" lon="2.781">
        <ele>339.17</ele>
        <time>2021-07-30T17:11:38Z</time>
      </trkpt>
      <trkpt lat="42.35232" lon="2.78047">
        <ele>342.4</ele>
        <time>2021-07-30T17:11:32Z</time>
      </trkpt>
      <trkpt lat="42.35244" lon="2.78004">
        <ele>346.55</ele>
        <time>2021-07-30T17:11:25Z</time>
      </trkpt>
      <trkpt lat="42.35262" lon="2.77987">
        <ele>349.28</ele>
        <time>2021-07-30T17:11:21Z</time>
      </trkpt>
      <trkpt lat="42.35268" lon="2.77956">
        <ele>351.72</ele>
        <time>2021-07-30T17:11:17Z</time>
      </trkpt>
      <trkpt lat="42.353" lon="2.77918">
        <ele>354.85</ele>
        <time>2021-07-30T17:11:10Z</time>
      </trkpt>
      <trkpt lat="42.35346" lon="2.77932">
        <ele>355.65</ele>
        <time>2021-07-30T17:11:02Z</time>
      </trkpt>
      <trkpt lat="42.35356" lon="2.7794">
        <ele>355.35</ele>
        <time>2021-07-30T17:11:00Z</time>
      </trkpt>
      <trkpt lat="42.35398" lon="2.77954">
        <ele>353.68</ele>
        <time>2021-07-30T17:10:54Z</time>
      </trkpt>
      <trkpt lat="42.35448" lon="2.77938">
        <ele>350.77</ele>
        <time>2021-07-30T17:10:46Z</time>
      </trkpt>
      <trkpt lat="42.35485" lon="2.77927">
        <ele>347.12</ele>
        <time>2021-07-30T17:10:38Z</time>
      </trkpt>
      <trkpt lat="42.35489" lon="2.77926">
        <ele>346.68</ele>
        <time>2021-07-30T17:10:37Z</time>
      </trkpt>
      <trkpt lat="42.35527" lon="2.77931">
        <ele>344.2</ele>
        <time>2021-07-30T17:10:29Z</time>
      </trkpt>
      <trkpt lat="42.3556" lon="2.77948">
        <ele>342.35</ele>
        <time>2021-07-30T17:10:24Z</time>
      </trkpt>
      <trkpt lat="42.35585" lon="2.77967">
        <ele>340.45</ele>
        <time>2021-07-30T17:10:19Z</time>
      </trkpt>
      <trkpt lat="42.356" lon="2.7798">
        <ele>339.38</ele>
        <time>2021-07-30T17:10:16Z</time>
      </trkpt>
      <trkpt lat="42.35623" lon="2.77993">
        <ele>337.87</ele>
        <time>2021-07-30T17:10:12Z</time>
      </trkpt>
      <trkpt lat="42.35638" lon="2.78026">
        <ele>336.58</ele>
        <time>2021-07-30T17:10:05Z</time>
      </trkpt>
      <trkpt lat="42.35643" lon="2.78042">
        <ele>336.11</ele>
        <time>2021-07-30T17:09:58Z</time>
      </trkpt>
      <trkpt lat="42.35648" lon="2.78051">
        <ele>336</ele>
        <time>2021-07-30T17:09:44Z</time>
      </trkpt>
      <trkpt lat="42.35648" lon="2.78052">
        <ele>336</ele>
        <time>2021-07-30T17:09:43Z</time>
      </trkpt>
      <trkpt lat="42.35659" lon="2.78082">
        <ele>335.59</ele>
        <time>2021-07-30T17:09:34Z</time>
      </trkpt>
      <trkpt lat="42.35676" lon="2.7814">
        <ele>331.93</ele>
        <time>2021-07-30T17:09:25Z</time>
      </trkpt>
      <trkpt lat="42.35693" lon="2.78193">
        <ele>329.35</ele>
        <time>2021-07-30T17:09:17Z</time>
      </trkpt>
      <trkpt lat="42.35696" lon="2.78241">
        <ele>327.93</ele>
        <time>2021-07-30T17:09:05Z</time>
      </trkpt>
      <trkpt lat="42.35697" lon="2.78242">
        <ele>327.84</ele>
        <time>2021-07-30T17:09:04Z</time>
      </trkpt>
      <trkpt lat="42.35694" lon="2.78256">
        <ele>327.57</ele>
        <time>2021-07-30T17:08:52Z</time>
      </trkpt>
      <trkpt lat="42.3569" lon="2.78273">
        <ele>329.17</ele>
        <time>2021-07-30T17:08:47Z</time>
      </trkpt>
      <trkpt lat="42.3571" lon="2.78288">
        <ele>331.19</ele>
        <time>2021-07-30T17:08:41Z</time>
      </trkpt>
      <trkpt lat="42.35744" lon="2.78325">
        <ele>332.41</ele>
        <time>2021-07-30T17:08:34Z</time>
      </trkpt>
      <trkpt lat="42.35749" lon="2.78353">
        <ele>333.38</ele>
        <time>2021-07-30T17:08:31Z</time>
      </trkpt>
      <trkpt lat="42.35767" lon="2.78371">
        <ele>335.76</ele>
        <time>2021-07-30T17:08:26Z</time>
      </trkpt>
      <trkpt lat="42.35806" lon="2.78355">
        <ele>337.92</ele>
        <time>2021-07-30T17:08:19Z</time>
      </trkpt>
      <trkpt lat="42.35852" lon="2.7834">
        <ele>336.3</ele>
        <time>2021-07-30T17:08:07Z</time>
      </trkpt>
      <trkpt lat="42.35875" lon="2.7832">
        <ele>333.07</ele>
        <time>2021-07-30T17:07:59Z</time>
      </trkpt>
      <trkpt lat="42.35883" lon="2.78322">
        <ele>331.85</ele>
        <time>2021-07-30T17:07:56Z</time>
      </trkpt>
      <trkpt lat="42.35901" lon="2.7835">
        <ele>328.34</ele>
        <time>2021-07-30T17:07:48Z</time>
      </trkpt>
      <trkpt lat="42.35923" lon="2.78369">
        <ele>326.51</ele>
        <time>2021-07-30T17:07:43Z</time>
      </trkpt>
      <trkpt lat="42.35933" lon="2.78371">
        <ele>325.79</ele>
        <time>2021-07-30T17:07:41Z</time>
      </trkpt>
      <trkpt lat="42.35973" lon="2.78374">
        <ele>322.31</ele>
        <time>2021-07-30T17:07:32Z</time>
      </trkpt>
      <trkpt lat="42.35991" lon="2.78399">
        <ele>319.26</ele>
        <time>2021-07-30T17:07:25Z</time>
      </trkpt>
      <trkpt lat="42.35992" lon="2.78423">
        <ele>316.92</ele>
        <time>2021-07-30T17:07:21Z</time>
      </trkpt>
      <trkpt lat="42.35997" lon="2.78436">
        <ele>315.57</ele>
        <time>2021-07-30T17:07:18Z</time>
      </trkpt>
      <trkpt lat="42.36003" lon="2.78497">
        <ele>313.88</ele>
        <time>2021-07-30T17:07:11Z</time>
      </trkpt>
      <trkpt lat="42.36003" lon="2.78515">
        <ele>313.55</ele>
        <time>2021-07-30T17:07:09Z</time>
      </trkpt>
      <trkpt lat="42.36003" lon="2.78533">
        <ele>313.37</ele>
        <time>2021-07-30T17:07:07Z</time>
      </trkpt>
      <trkpt lat="42.3602" lon="2.78599">
        <ele>311.66</ele>
        <time>2021-07-30T17:07:00Z</time>
      </trkpt>
      <trkpt lat="42.36041" lon="2.78649">
        <ele>307.78</ele>
        <time>2021-07-30T17:06:53Z</time>
      </trkpt>
      <trkpt lat="42.36067" lon="2.78677">
        <ele>305.26</ele>
        <time>2021-07-30T17:06:47Z</time>
      </trkpt>
      <trkpt lat="42.36101" lon="2.78682">
        <ele>303.02</ele>
        <time>2021-07-30T17:06:42Z</time>
      </trkpt>
      <trkpt lat="42.36123" lon="2.78691">
        <ele>301.49</ele>
        <time>2021-07-30T17:06:39Z</time>
      </trkpt>
      <trkpt lat="42.36151" lon="2.78704">
        <ele>298.39</ele>
        <time>2021-07-30T17:06:34Z</time>
      </trkpt>
      <trkpt lat="42.36183" lon="2.78731">
        <ele>294.87</ele>
        <time>2021-07-30T17:06:27Z</time>
      </trkpt>
      <trkpt lat="42.36199" lon="2.78742">
        <ele>292.98</ele>
        <time>2021-07-30T17:06:23Z</time>
      </trkpt>
      <trkpt lat="42.36234" lon="2.78756">
        <ele>289.69</ele>
        <time>2021-07-30T17:06:15Z</time>
      </trkpt>
      <trkpt lat="42.36258" lon="2.78769">
        <ele>286.21</ele>
        <time>2021-07-30T17:06:07Z</time>
      </trkpt>
      <trkpt lat="42.36268" lon="2.78782">
        <ele>284.58</ele>
        <time>2021-07-30T17:06:04Z</time>
      </trkpt>
      <trkpt lat="42.36287" lon="2.78818">
        <ele>281.54</ele>
        <time>2021-07-30T17:05:58Z</time>
      </trkpt>
      <trkpt lat="42.36314" lon="2.78877">
        <ele>277.84</ele>
        <time>2021-07-30T17:05:49Z</time>
      </trkpt>
      <trkpt lat="42.36338" lon="2.78912">
        <ele>275.83</ele>
        <time>2021-07-30T17:05:43Z</time>
      </trkpt>
      <trkpt lat="42.36384" lon="2.7892">
        <ele>272.79</ele>
        <time>2021-07-30T17:05:36Z</time>
      </trkpt>
      <trkpt lat="42.36452" lon="2.78922">
        <ele>269.61</ele>
        <time>2021-07-30T17:05:25Z</time>
      </trkpt>
      <trkpt lat="42.36473" lon="2.78924">
        <ele>269.9</ele>
        <time>2021-07-30T17:05:17Z</time>
      </trkpt>
      <trkpt lat="42.36508" lon="2.7893">
        <ele>271.2</ele>
        <time>2021-07-30T17:05:10Z</time>
      </trkpt>
      <trkpt lat="42.36528" lon="2.78936">
        <ele>271.48</ele>
        <time>2021-07-30T17:05:08Z</time>
      </trkpt>
      <trkpt lat="42.36554" lon="2.78989">
        <ele>271.84</ele>
        <time>2021-07-30T17:05:02Z</time>
      </trkpt>
      <trkpt lat="42.36557" lon="2.79013">
        <ele>271.5</ele>
        <time>2021-07-30T17:05:00Z</time>
      </trkpt>
      <trkpt lat="42.36564" lon="2.79081">
        <ele>270.02</ele>
        <time>2021-07-30T17:04:53Z</time>
      </trkpt>
      <trkpt lat="42.36572" lon="2.79143">
        <ele>267.14</ele>
        <time>2021-07-30T17:04:46Z</time>
      </trkpt>
      <trkpt lat="42.36565" lon="2.79163">
        <ele>265.67</ele>
        <time>2021-07-30T17:04:43Z</time>
      </trkpt>
      <trkpt lat="42.36558" lon="2.79187">
        <ele>263.97</ele>
        <time>2021-07-30T17:04:40Z</time>
      </trkpt>
      <trkpt lat="42.36552" lon="2.79244">
        <ele>260.1</ele>
        <time>2021-07-30T17:04:32Z</time>
      </trkpt>
      <trkpt lat="42.3656" lon="2.79274">
        <ele>258.09</ele>
        <time>2021-07-30T17:04:28Z</time>
      </trkpt>
      <trkpt lat="42.36573" lon="2.79313">
        <ele>254.91</ele>
        <time>2021-07-30T17:04:23Z</time>
      </trkpt>
      <trkpt lat="42.36592" lon="2.79356">
        <ele>250.74</ele>
        <time>2021-07-30T17:04:16Z</time>
      </trkpt>
      <trkpt lat="42.36593" lon="2.79363">
        <ele>250.07</ele>
        <time>2021-07-30T17:04:15Z</time>
      </trkpt>
      <trkpt lat="42.36597" lon="2.79402">
        <ele>245.96</ele>
        <time>2021-07-30T17:04:09Z</time>
      </trkpt>
      <trkpt lat="42.36597" lon="2.79418">
        <ele>243.87</ele>
        <time>2021-07-30T17:04:06Z</time>
      </trkpt>
      <trkpt lat="42.36606" lon="2.79444">
        <ele>240.47</ele>
        <time>2021-07-30T17:04:01Z</time>
      </trkpt>
      <trkpt lat="42.36636" lon="2.79443">
        <ele>236.32</ele>
        <time>2021-07-30T17:03:54Z</time>
      </trkpt>
      <trkpt lat="42.36652" lon="2.79418">
        <ele>234.1</ele>
        <time>2021-07-30T17:03:50Z</time>
      </trkpt>
      <trkpt lat="42.36672" lon="2.79394">
        <ele>232.25</ele>
        <time>2021-07-30T17:03:46Z</time>
      </trkpt>
      <trkpt lat="42.36683" lon="2.79383">
        <ele>230.55</ele>
        <time>2021-07-30T17:03:43Z</time>
      </trkpt>
      <trkpt lat="42.36694" lon="2.79378">
        <ele>229.12</ele>
        <time>2021-07-30T17:03:40Z</time>
      </trkpt>
      <trkpt lat="42.36707" lon="2.79393">
        <ele>226.35</ele>
        <time>2021-07-30T17:03:35Z</time>
      </trkpt>
      <trkpt lat="42.36736" lon="2.79419">
        <ele>222.83</ele>
        <time>2021-07-30T17:03:28Z</time>
      </trkpt>
      <trkpt lat="42.36743" lon="2.79429">
        <ele>221.57</ele>
        <time>2021-07-30T17:03:26Z</time>
      </trkpt>
      <trkpt lat="42.36749" lon="2.79437">
        <ele>220.35</ele>
        <time>2021-07-30T17:03:24Z</time>
      </trkpt>
      <trkpt lat="42.36786" lon="2.79435">
        <ele>216.35</ele>
        <time>2021-07-30T17:03:18Z</time>
      </trkpt>
      <trkpt lat="42.3681" lon="2.79407">
        <ele>213.93</ele>
        <time>2021-07-30T17:03:14Z</time>
      </trkpt>
      <trkpt lat="42.36814" lon="2.794">
        <ele>213.37</ele>
        <time>2021-07-30T17:03:13Z</time>
      </trkpt>
      <trkpt lat="42.36829" lon="2.79402">
        <ele>209.91</ele>
        <time>2021-07-30T17:03:07Z</time>
      </trkpt>
      <trkpt lat="42.36822" lon="2.79424">
        <ele>207.99</ele>
        <time>2021-07-30T17:03:04Z</time>
      </trkpt>
      <trkpt lat="42.36818" lon="2.7945">
        <ele>205.89</ele>
        <time>2021-07-30T17:03:01Z</time>
      </trkpt>
      <trkpt lat="42.36811" lon="2.79475">
        <ele>204.09</ele>
        <time>2021-07-30T17:02:58Z</time>
      </trkpt>
      <trkpt lat="42.36807" lon="2.79502">
        <ele>202.41</ele>
        <time>2021-07-30T17:02:55Z</time>
      </trkpt>
      <trkpt lat="42.36808" lon="2.79554">
        <ele>198.56</ele>
        <time>2021-07-30T17:02:48Z</time>
      </trkpt>
      <trkpt lat="42.36804" lon="2.79586">
        <ele>196.74</ele>
        <time>2021-07-30T17:02:44Z</time>
      </trkpt>
      <trkpt lat="42.36796" lon="2.79602">
        <ele>195.55</ele>
        <time>2021-07-30T17:02:42Z</time>
      </trkpt>
      <trkpt lat="42.36777" lon="2.79627">
        <ele>193.21</ele>
        <time>2021-07-30T17:02:38Z</time>
      </trkpt>
      <trkpt lat="42.36748" lon="2.79642">
        <ele>190.05</ele>
        <time>2021-07-30T17:02:33Z</time>
      </trkpt>
      <trkpt lat="42.36728" lon="2.7966">
        <ele>185.93</ele>
        <time>2021-07-30T17:02:26Z</time>
      </trkpt>
      <trkpt lat="42.36732" lon="2.79684">
        <ele>183.05</ele>
        <time>2021-07-30T17:02:21Z</time>
      </trkpt>
      <trkpt lat="42.36722" lon="2.79688">
        <ele>181.16</ele>
        <time>2021-07-30T17:02:18Z</time>
      </trkpt>
      <trkpt lat="42.36703" lon="2.79706">
        <ele>178.2</ele>
        <time>2021-07-30T17:02:12Z</time>
      </trkpt>
      <trkpt lat="42.3672" lon="2.79738">
        <ele>176.08</ele>
        <time>2021-07-30T17:02:04Z</time>
      </trkpt>
      <trkpt lat="42.36752" lon="2.79738">
        <ele>174.59</ele>
        <time>2021-07-30T17:01:59Z</time>
      </trkpt>
      <trkpt lat="42.36769" lon="2.79734">
        <ele>173.52</ele>
        <time>2021-07-30T17:01:56Z</time>
      </trkpt>
      <trkpt lat="42.36798" lon="2.7972">
        <ele>170.56</ele>
        <time>2021-07-30T17:01:49Z</time>
      </trkpt>
      <trkpt lat="42.36809" lon="2.79712">
        <ele>169.35</ele>
        <time>2021-07-30T17:01:45Z</time>
      </trkpt>
      <trkpt lat="42.36848" lon="2.79695">
        <ele>169.5</ele>
        <time>2021-07-30T17:01:34Z</time>
      </trkpt>
      <trkpt lat="42.36876" lon="2.79688">
        <ele>169.96</ele>
        <time>2021-07-30T17:01:29Z</time>
      </trkpt>
      <trkpt lat="42.36918" lon="2.79679">
        <ele>169.82</ele>
        <time>2021-07-30T17:01:23Z</time>
      </trkpt>
      <trkpt lat="42.3695" lon="2.79614">
        <ele>167.27</ele>
        <time>2021-07-30T17:01:14Z</time>
      </trkpt>
      <trkpt lat="42.36978" lon="2.79568">
        <ele>165.85</ele>
        <time>2021-07-30T17:01:08Z</time>
      </trkpt>
      <trkpt lat="42.36989" lon="2.79521">
        <ele>164.34</ele>
        <time>2021-07-30T17:01:03Z</time>
      </trkpt>
      <trkpt lat="42.36991" lon="2.79473">
        <ele>162.67</ele>
        <time>2021-07-30T17:00:57Z</time>
      </trkpt>
      <trkpt lat="42.36994" lon="2.79439">
        <ele>161.42</ele>
        <time>2021-07-30T17:00:53Z</time>
      </trkpt>
      <trkpt lat="42.36991" lon="2.79415">
        <ele>160.52</ele>
        <time>2021-07-30T17:00:50Z</time>
      </trkpt>
      <trkpt lat="42.36987" lon="2.79403">
        <ele>160.18</ele>
        <time>2021-07-30T17:00:48Z</time>
      </trkpt>
      <trkpt lat="42.36974" lon="2.7936">
        <ele>159.82</ele>
        <time>2021-07-30T17:00:40Z</time>
      </trkpt>
      <trkpt lat="42.36986" lon="2.7933">
        <ele>160.02</ele>
        <time>2021-07-30T17:00:32Z</time>
      </trkpt>
      <trkpt lat="42.36992" lon="2.79315">
        <ele>161.05</ele>
        <time>2021-07-30T17:00:20Z</time>
      </trkpt>
      <trkpt lat="42.37009" lon="2.79297">
        <ele>161.81</ele>
        <time>2021-07-30T17:00:14Z</time>
      </trkpt>
      <trkpt lat="42.37035" lon="2.79335">
        <ele>162.29</ele>
        <time>2021-07-30T17:00:05Z</time>
      </trkpt>
      <trkpt lat="42.37049" lon="2.79371">
        <ele>162.32</ele>
        <time>2021-07-30T17:00:01Z</time>
      </trkpt>
      <trkpt lat="42.37059" lon="2.79432">
        <ele>162.2</ele>
        <time>2021-07-30T16:59:57Z</time>
      </trkpt>
      <trkpt lat="42.37087" lon="2.79481">
        <ele>161.46</ele>
        <time>2021-07-30T16:59:51Z</time>
      </trkpt>
      <trkpt lat="42.37136" lon="2.79461">
        <ele>160.58</ele>
        <time>2021-07-30T16:59:47Z</time>
      </trkpt>
      <trkpt lat="42.37191" lon="2.79458">
        <ele>160.33</ele>
        <time>2021-07-30T16:59:43Z</time>
      </trkpt>
      <trkpt lat="42.37235" lon="2.79471">
        <ele>161.31</ele>
        <time>2021-07-30T16:59:38Z</time>
      </trkpt>
      <trkpt lat="42.37212" lon="2.79517">
        <ele>164.09</ele>
        <time>2021-07-30T16:59:30Z</time>
      </trkpt>
      <trkpt lat="42.37154" lon="2.79571">
        <ele>166.27</ele>
        <time>2021-07-30T16:59:23Z</time>
      </trkpt>
      <trkpt lat="42.37135" lon="2.79641">
        <ele>168.9</ele>
        <time>2021-07-30T16:59:18Z</time>
      </trkpt>
      <trkpt lat="42.37106" lon="2.79689">
        <ele>169.55</ele>
        <time>2021-07-30T16:59:14Z</time>
      </trkpt>
      <trkpt lat="42.37076" lon="2.79754">
        <ele>169.81</ele>
        <time>2021-07-30T16:59:09Z</time>
      </trkpt>
      <trkpt lat="42.37017" lon="2.79831">
        <ele>169.17</ele>
        <time>2021-07-30T16:59:01Z</time>
      </trkpt>
      <trkpt lat="42.36998" lon="2.79846">
        <ele>168.42</ele>
        <time>2021-07-30T16:58:58Z</time>
      </trkpt>
      <trkpt lat="42.36971" lon="2.79881">
        <ele>168.36</ele>
        <time>2021-07-30T16:58:52Z</time>
      </trkpt>
      <trkpt lat="42.36948" lon="2.79903">
        <ele>169.46</ele>
        <time>2021-07-30T16:58:48Z</time>
      </trkpt>
      <trkpt lat="42.36861" lon="2.7994">
        <ele>172.57</ele>
        <time>2021-07-30T16:58:40Z</time>
      </trkpt>
      <trkpt lat="42.3683" lon="2.79962">
        <ele>174.61</ele>
        <time>2021-07-30T16:58:36Z</time>
      </trkpt>
      <trkpt lat="42.36788" lon="2.79969">
        <ele>178.56</ele>
        <time>2021-07-30T16:58:30Z</time>
      </trkpt>
      <trkpt lat="42.36722" lon="2.80031">
        <ele>182.48</ele>
        <time>2021-07-30T16:58:23Z</time>
      </trkpt>
      <trkpt lat="42.36701" lon="2.80048">
        <ele>183.76</ele>
        <time>2021-07-30T16:58:21Z</time>
      </trkpt>
      <trkpt lat="42.36625" lon="2.80106">
        <ele>187.55</ele>
        <time>2021-07-30T16:58:14Z</time>
      </trkpt>
      <trkpt lat="42.36574" lon="2.80179">
        <ele>189.9</ele>
        <time>2021-07-30T16:58:07Z</time>
      </trkpt>
      <trkpt lat="42.36567" lon="2.80261">
        <ele>190.15</ele>
        <time>2021-07-30T16:58:02Z</time>
      </trkpt>
      <trkpt lat="42.36553" lon="2.80307">
        <ele>189.45</ele>
        <time>2021-07-30T16:57:59Z</time>
      </trkpt>
      <trkpt lat="42.36545" lon="2.80334">
        <ele>188.59</ele>
        <time>2021-07-30T16:57:57Z</time>
      </trkpt>
      <trkpt lat="42.36501" lon="2.80406">
        <ele>184.75</ele>
        <time>2021-07-30T16:57:50Z</time>
      </trkpt>
      <trkpt lat="42.36492" lon="2.80452">
        <ele>182.75</ele>
        <time>2021-07-30T16:57:47Z</time>
      </trkpt>
      <trkpt lat="42.36473" lon="2.80494">
        <ele>181.02</ele>
        <time>2021-07-30T16:57:44Z</time>
      </trkpt>
      <trkpt lat="42.36443" lon="2.80583">
        <ele>179.54</ele>
        <time>2021-07-30T16:57:39Z</time>
      </trkpt>
      <trkpt lat="42.36377" lon="2.8073">
        <ele>175.79</ele>
        <time>2021-07-30T16:57:30Z</time>
      </trkpt>
      <trkpt lat="42.36331" lon="2.80777">
        <ele>173.17</ele>
        <time>2021-07-30T16:57:25Z</time>
      </trkpt>
      <trkpt lat="42.36285" lon="2.80821">
        <ele>169.89</ele>
        <time>2021-07-30T16:57:20Z</time>
      </trkpt>
      <trkpt lat="42.3626" lon="2.80911">
        <ele>165.65</ele>
        <time>2021-07-30T16:57:14Z</time>
      </trkpt>
      <trkpt lat="42.36253" lon="2.80982">
        <ele>163.33</ele>
        <time>2021-07-30T16:57:10Z</time>
      </trkpt>
      <trkpt lat="42.36247" lon="2.80999">
        <ele>162.93</ele>
        <time>2021-07-30T16:57:09Z</time>
      </trkpt>
      <trkpt lat="42.36197" lon="2.81092">
        <ele>161.33</ele>
        <time>2021-07-30T16:57:01Z</time>
      </trkpt>
      <trkpt lat="42.3619" lon="2.81115">
        <ele>161.66</ele>
        <time>2021-07-30T16:56:58Z</time>
      </trkpt>
      <trkpt lat="42.36184" lon="2.81139">
        <ele>162.48</ele>
        <time>2021-07-30T16:56:52Z</time>
      </trkpt>
      <trkpt lat="42.36156" lon="2.81262">
        <ele>162.77</ele>
        <time>2021-07-30T16:56:43Z</time>
      </trkpt>
      <trkpt lat="42.36154" lon="2.81334">
        <ele>163.16</ele>
        <time>2021-07-30T16:56:39Z</time>
      </trkpt>
      <trkpt lat="42.3616" lon="2.81365">
        <ele>163.04</ele>
        <time>2021-07-30T16:56:37Z</time>
      </trkpt>
      <trkpt lat="42.36157" lon="2.81444">
        <ele>161.46</ele>
        <time>2021-07-30T16:56:31Z</time>
      </trkpt>
      <trkpt lat="42.36129" lon="2.81466">
        <ele>161.15</ele>
        <time>2021-07-30T16:56:28Z</time>
      </trkpt>
      <trkpt lat="42.3609" lon="2.81521">
        <ele>160.66</ele>
        <time>2021-07-30T16:56:24Z</time>
      </trkpt>
      <trkpt lat="42.36069" lon="2.81586">
        <ele>160.56</ele>
        <time>2021-07-30T16:56:19Z</time>
      </trkpt>
      <trkpt lat="42.36054" lon="2.81609">
        <ele>160.6</ele>
        <time>2021-07-30T16:56:15Z</time>
      </trkpt>
      <trkpt lat="42.36009" lon="2.81636">
        <ele>161.09</ele>
        <time>2021-07-30T16:56:09Z</time>
      </trkpt>
      <trkpt lat="42.35987" lon="2.81698">
        <ele>160.78</ele>
        <time>2021-07-30T16:56:05Z</time>
      </trkpt>
      <trkpt lat="42.3593" lon="2.81758">
        <ele>160.35</ele>
        <time>2021-07-30T16:55:58Z</time>
      </trkpt>
      <trkpt lat="42.35864" lon="2.81724">
        <ele>161.05</ele>
        <time>2021-07-30T16:55:51Z</time>
      </trkpt>
      <trkpt lat="42.35814" lon="2.81717">
        <ele>164.51</ele>
        <time>2021-07-30T16:55:45Z</time>
      </trkpt>
      <trkpt lat="42.35807" lon="2.81726">
        <ele>165.02</ele>
        <time>2021-07-30T16:55:44Z</time>
      </trkpt>
      <trkpt lat="42.35757" lon="2.81798">
        <ele>168.85</ele>
        <time>2021-07-30T16:55:37Z</time>
      </trkpt>
      <trkpt lat="42.35729" lon="2.81847">
        <ele>170.52</ele>
        <time>2021-07-30T16:55:33Z</time>
      </trkpt>
      <trkpt lat="42.35687" lon="2.8187">
        <ele>172.2</ele>
        <time>2021-07-30T16:55:29Z</time>
      </trkpt>
      <trkpt lat="42.35649" lon="2.81918">
        <ele>176.48</ele>
        <time>2021-07-30T16:55:22Z</time>
      </trkpt>
      <trkpt lat="42.35658" lon="2.82003">
        <ele>178.79</ele>
        <time>2021-07-30T16:55:16Z</time>
      </trkpt>
      <trkpt lat="42.35677" lon="2.82108">
        <ele>179.49</ele>
        <time>2021-07-30T16:55:09Z</time>
      </trkpt>
      <trkpt lat="42.35695" lon="2.82154">
        <ele>180.6</ele>
        <time>2021-07-30T16:55:04Z</time>
      </trkpt>
      <trkpt lat="42.35735" lon="2.82239">
        <ele>182.29</ele>
        <time>2021-07-30T16:54:56Z</time>
      </trkpt>
      <trkpt lat="42.35736" lon="2.82269">
        <ele>182.95</ele>
        <time>2021-07-30T16:54:54Z</time>
      </trkpt>
      <trkpt lat="42.35775" lon="2.82329">
        <ele>185.95</ele>
        <time>2021-07-30T16:54:46Z</time>
      </trkpt>
      <trkpt lat="42.35794" lon="2.82344">
        <ele>188.42</ele>
        <time>2021-07-30T16:54:42Z</time>
      </trkpt>
      <trkpt lat="42.35785" lon="2.82415">
        <ele>191.99</ele>
        <time>2021-07-30T16:54:36Z</time>
      </trkpt>
      <trkpt lat="42.35797" lon="2.82449">
        <ele>193.17</ele>
        <time>2021-07-30T16:54:33Z</time>
      </trkpt>
      <trkpt lat="42.35809" lon="2.82496">
        <ele>194.94</ele>
        <time>2021-07-30T16:54:29Z</time>
      </trkpt>
      <trkpt lat="42.35807" lon="2.82556">
        <ele>197.53</ele>
        <time>2021-07-30T16:54:25Z</time>
      </trkpt>
      <trkpt lat="42.35814" lon="2.826">
        <ele>199.66</ele>
        <time>2021-07-30T16:54:22Z</time>
      </trkpt>
      <trkpt lat="42.35813" lon="2.82693">
        <ele>204.15</ele>
        <time>2021-07-30T16:54:16Z</time>
      </trkpt>
      <trkpt lat="42.3582" lon="2.82753">
        <ele>207.99</ele>
        <time>2021-07-30T16:54:11Z</time>
      </trkpt>
      <trkpt lat="42.35853" lon="2.8281">
        <ele>211.98</ele>
        <time>2021-07-30T16:54:05Z</time>
      </trkpt>
      <trkpt lat="42.35875" lon="2.82873">
        <ele>213.71</ele>
        <time>2021-07-30T16:54:00Z</time>
      </trkpt>
      <trkpt lat="42.35895" lon="2.82929">
        <ele>214.4</ele>
        <time>2021-07-30T16:53:55Z</time>
      </trkpt>
      <trkpt lat="42.3593" lon="2.82959">
        <ele>216.33</ele>
        <time>2021-07-30T16:53:51Z</time>
      </trkpt>
      <trkpt lat="42.35964" lon="2.82988">
        <ele>220.22</ele>
        <time>2021-07-30T16:53:48Z</time>
      </trkpt>
      <trkpt lat="42.36007" lon="2.83039">
        <ele>223.86</ele>
        <time>2021-07-30T16:53:44Z</time>
      </trkpt>
      <trkpt lat="42.36103" lon="2.83113">
        <ele>224.17</ele>
        <time>2021-07-30T16:53:35Z</time>
      </trkpt>
      <trkpt lat="42.36133" lon="2.8312">
        <ele>221.28</ele>
        <time>2021-07-30T16:53:32Z</time>
      </trkpt>
      <trkpt lat="42.36142" lon="2.83124">
        <ele>220.21</ele>
        <time>2021-07-30T16:53:31Z</time>
      </trkpt>
      <trkpt lat="42.36191" lon="2.83131">
        <ele>215.21</ele>
        <time>2021-07-30T16:53:27Z</time>
      </trkpt>
      <trkpt lat="42.36258" lon="2.83124">
        <ele>210.09</ele>
        <time>2021-07-30T16:53:23Z</time>
      </trkpt>
      <trkpt lat="42.36304" lon="2.83136">
        <ele>206.6</ele>
        <time>2021-07-30T16:53:20Z</time>
      </trkpt>
      <trkpt lat="42.36377" lon="2.83156">
        <ele>202.11</ele>
        <time>2021-07-30T16:53:15Z</time>
      </trkpt>
      <trkpt lat="42.3642" lon="2.83176">
        <ele>200.01</ele>
        <time>2021-07-30T16:53:12Z</time>
      </trkpt>
      <trkpt lat="42.36503" lon="2.83189">
        <ele>197.68</ele>
        <time>2021-07-30T16:53:06Z</time>
      </trkpt>
      <trkpt lat="42.36629" lon="2.83212">
        <ele>197.8</ele>
      </trkpt>
      <trkpt lat="42.36629" lon="2.83212">
        <ele>197.8</ele>
      </trkpt>
      <trkpt lat="42.36598" lon="2.83377">
        <ele>199.8</ele>
      </trkpt>
      <trkpt lat="42.36598" lon="2.83377">
        <ele>199.8</ele>
      </trkpt>
      <trkpt lat="42.36598" lon="2.83421">
        <ele>198.5</ele>
      </trkpt>
      <trkpt lat="42.36598" lon="2.83421">
        <ele>198.5</ele>
      </trkpt>
      <trkpt lat="42.36607" lon="2.8348">
        <ele>195.6</ele>
      </trkpt>
      <trkpt lat="42.36619" lon="2.83619">
        <ele>191</ele>
      </trkpt>
      <trkpt lat="42.36619" lon="2.83619">
        <ele>191</ele>
      </trkpt>
      <trkpt lat="42.36504" lon="2.83899">
        <ele>183.2</ele>
      </trkpt>
      <trkpt lat="42.36504" lon="2.83899">
        <ele>183.2</ele>
      </trkpt>
      <trkpt lat="42.36501" lon="2.83973">
        <ele>178.9</ele>
      </trkpt>
      <trkpt lat="42.36501" lon="2.83973">
        <ele>178.9</ele>
      </trkpt>
      <trkpt lat="42.36482" lon="2.84007">
        <ele>177.6</ele>
      </trkpt>
      <trkpt lat="42.36482" lon="2.84007">
        <ele>177.6</ele>
      </trkpt>
      <trkpt lat="42.36491" lon="2.84056">
        <ele>163.8</ele>
        <time>2021-07-30T16:38:04Z</time>
      </trkpt>
      <trkpt lat="42.36456" lon="2.841">
        <ele>159.69</ele>
        <time>2021-07-30T16:37:59Z</time>
      </trkpt>
      <trkpt lat="42.36443" lon="2.841">
        <ele>158.83</ele>
        <time>2021-07-30T16:37:58Z</time>
      </trkpt>
      <trkpt lat="42.3637" lon="2.84099">
        <ele>154.83</ele>
        <time>2021-07-30T16:37:53Z</time>
      </trkpt>
      <trkpt lat="42.36311" lon="2.84133">
        <ele>151.53</ele>
        <time>2021-07-30T16:37:48Z</time>
      </trkpt>
      <trkpt lat="42.36303" lon="2.84199">
        <ele>149.11</ele>
        <time>2021-07-30T16:37:44Z</time>
      </trkpt>
      <trkpt lat="42.36332" lon="2.8428">
        <ele>145.21</ele>
        <time>2021-07-30T16:37:39Z</time>
      </trkpt>
      <trkpt lat="42.36332" lon="2.84321">
        <ele>143.59</ele>
        <time>2021-07-30T16:37:37Z</time>
      </trkpt>
      <trkpt lat="42.36322" lon="2.84425">
        <ele>139.67</ele>
        <time>2021-07-30T16:37:32Z</time>
      </trkpt>
      <trkpt lat="42.36294" lon="2.84477">
        <ele>137.13</ele>
        <time>2021-07-30T16:37:29Z</time>
      </trkpt>
      <trkpt lat="42.36241" lon="2.84575">
        <ele>133.41</ele>
        <time>2021-07-30T16:37:24Z</time>
      </trkpt>
      <trkpt lat="42.36219" lon="2.8466">
        <ele>131.05</ele>
        <time>2021-07-30T16:37:20Z</time>
      </trkpt>
      <trkpt lat="42.36228" lon="2.84729">
        <ele>129.18</ele>
        <time>2021-07-30T16:37:17Z</time>
      </trkpt>
      <trkpt lat="42.36247" lon="2.8485">
        <ele>125.64</ele>
        <time>2021-07-30T16:37:12Z</time>
      </trkpt>
      <trkpt lat="42.36262" lon="2.85005">
        <ele>123.69</ele>
        <time>2021-07-30T16:37:05Z</time>
      </trkpt>
      <trkpt lat="42.36258" lon="2.8507">
        <ele>122.96</ele>
        <time>2021-07-30T16:37:02Z</time>
      </trkpt>
      <trkpt lat="42.36289" lon="2.85281">
        <ele>121.34</ele>
        <time>2021-07-30T16:36:53Z</time>
      </trkpt>
      <trkpt lat="42.36325" lon="2.85359">
        <ele>121.69</ele>
        <time>2021-07-30T16:36:49Z</time>
      </trkpt>
      <trkpt lat="42.36355" lon="2.85381">
        <ele>121.81</ele>
        <time>2021-07-30T16:36:47Z</time>
      </trkpt>
      <trkpt lat="42.36372" lon="2.85392">
        <ele>121.86</ele>
        <time>2021-07-30T16:36:46Z</time>
      </trkpt>
      <trkpt lat="42.36422" lon="2.85488">
        <ele>122.09</ele>
        <time>2021-07-30T16:36:41Z</time>
      </trkpt>
      <trkpt lat="42.3639" lon="2.85628">
        <ele>122.91</ele>
        <time>2021-07-30T16:36:35Z</time>
      </trkpt>
      <trkpt lat="42.36366" lon="2.85723">
        <ele>126.41</ele>
        <time>2021-07-30T16:36:31Z</time>
      </trkpt>
      <trkpt lat="42.36371" lon="2.85776">
        <ele>128.59</ele>
        <time>2021-07-30T16:36:29Z</time>
      </trkpt>
      <trkpt lat="42.36378" lon="2.85866">
        <ele>131.96</ele>
        <time>2021-07-30T16:36:26Z</time>
      </trkpt>
      <trkpt lat="42.36374" lon="2.85988">
        <ele>135.74</ele>
        <time>2021-07-30T16:36:22Z</time>
      </trkpt>
      <trkpt lat="42.36363" lon="2.86104">
        <ele>138.93</ele>
        <time>2021-07-30T16:36:18Z</time>
      </trkpt>
      <trkpt lat="42.36356" lon="2.86259">
        <ele>142.84</ele>
        <time>2021-07-30T16:36:12Z</time>
      </trkpt>
      <trkpt lat="42.36328" lon="2.86355">
        <ele>143.99</ele>
        <time>2021-07-30T16:36:08Z</time>
      </trkpt>
      <trkpt lat="42.36315" lon="2.86492">
        <ele>143.8</ele>
        <time>2021-07-30T16:36:03Z</time>
      </trkpt>
      <trkpt lat="42.3631" lon="2.86548">
        <ele>143.39</ele>
        <time>2021-07-30T16:36:01Z</time>
      </trkpt>
      <trkpt lat="42.36244" lon="2.86667">
        <ele>142.23</ele>
        <time>2021-07-30T16:35:55Z</time>
      </trkpt>
      <trkpt lat="42.36183" lon="2.86729">
        <ele>141.54</ele>
        <time>2021-07-30T16:35:51Z</time>
      </trkpt>
      <trkpt lat="42.3615" lon="2.86792">
        <ele>141.21</ele>
        <time>2021-07-30T16:35:48Z</time>
      </trkpt>
      <trkpt lat="42.36125" lon="2.86945">
        <ele>141.33</ele>
        <time>2021-07-30T16:35:42Z</time>
      </trkpt>
      <trkpt lat="42.3616" lon="2.87109">
        <ele>141.95</ele>
        <time>2021-07-30T16:35:36Z</time>
      </trkpt>
      <trkpt lat="42.36165" lon="2.87137">
        <ele>142.26</ele>
        <time>2021-07-30T16:35:35Z</time>
      </trkpt>
      <trkpt lat="42.3614" lon="2.87255">
        <ele>142.52</ele>
        <time>2021-07-30T16:35:30Z</time>
      </trkpt>
      <trkpt lat="42.36105" lon="2.87312">
        <ele>141.95</ele>
        <time>2021-07-30T16:35:27Z</time>
      </trkpt>
      <trkpt lat="42.3608" lon="2.87384">
        <ele>139.37</ele>
        <time>2021-07-30T16:35:23Z</time>
      </trkpt>
      <trkpt lat="42.3608" lon="2.87426">
        <ele>137.5</ele>
        <time>2021-07-30T16:35:21Z</time>
      </trkpt>
      <trkpt lat="42.36087" lon="2.87524">
        <ele>133.66</ele>
        <time>2021-07-30T16:35:17Z</time>
      </trkpt>
      <trkpt lat="42.36101" lon="2.87597">
        <ele>130.63</ele>
        <time>2021-07-30T16:35:14Z</time>
      </trkpt>
      <trkpt lat="42.36117" lon="2.87684">
        <ele>126.73</ele>
        <time>2021-07-30T16:35:10Z</time>
      </trkpt>
      <trkpt lat="42.3613" lon="2.87749">
        <ele>123.4</ele>
        <time>2021-07-30T16:35:07Z</time>
      </trkpt>
      <trkpt lat="42.36142" lon="2.87816">
        <ele>120.13</ele>
        <time>2021-07-30T16:35:04Z</time>
      </trkpt>
      <trkpt lat="42.36156" lon="2.87888">
        <ele>116.61</ele>
        <time>2021-07-30T16:35:01Z</time>
      </trkpt>
      <trkpt lat="42.36168" lon="2.87982">
        <ele>111.94</ele>
        <time>2021-07-30T16:34:57Z</time>
      </trkpt>
      <trkpt lat="42.36165" lon="2.88026">
        <ele>109.71</ele>
        <time>2021-07-30T16:34:55Z</time>
      </trkpt>
      <trkpt lat="42.36154" lon="2.88121">
        <ele>105.73</ele>
        <time>2021-07-30T16:34:51Z</time>
      </trkpt>
      <trkpt lat="42.36144" lon="2.88219">
        <ele>102.12</ele>
        <time>2021-07-30T16:34:47Z</time>
      </trkpt>
      <trkpt lat="42.36112" lon="2.88406">
        <ele>98.4</ele>
        <time>2021-07-30T16:34:39Z</time>
      </trkpt>
      <trkpt lat="42.36107" lon="2.88429">
        <ele>98.41</ele>
        <time>2021-07-30T16:34:38Z</time>
      </trkpt>
      <trkpt lat="42.36051" lon="2.88535">
        <ele>98.55</ele>
        <time>2021-07-30T16:34:32Z</time>
      </trkpt>
      <trkpt lat="42.35999" lon="2.88779">
        <ele>96.62</ele>
        <time>2021-07-30T16:34:23Z</time>
      </trkpt>
      <trkpt lat="42.35964" lon="2.88951">
        <ele>93.35</ele>
        <time>2021-07-30T16:34:17Z</time>
      </trkpt>
      <trkpt lat="42.35935" lon="2.89094">
        <ele>89.68</ele>
        <time>2021-07-30T16:34:12Z</time>
      </trkpt>
      <trkpt lat="42.35907" lon="2.89235">
        <ele>86.49</ele>
        <time>2021-07-30T16:34:07Z</time>
      </trkpt>
      <trkpt lat="42.35879" lon="2.89375">
        <ele>83.14</ele>
        <time>2021-07-30T16:34:02Z</time>
      </trkpt>
      <trkpt lat="42.35851" lon="2.89513">
        <ele>79.98</ele>
        <time>2021-07-30T16:33:57Z</time>
      </trkpt>
      <trkpt lat="42.35831" lon="2.89624">
        <ele>76.39</ele>
        <time>2021-07-30T16:33:53Z</time>
      </trkpt>
      <trkpt lat="42.35801" lon="2.89775">
        <ele>72.79</ele>
        <time>2021-07-30T16:33:47Z</time>
      </trkpt>
      <trkpt lat="42.35795" lon="2.89796">
        <ele>72.34</ele>
        <time>2021-07-30T16:33:46Z</time>
      </trkpt>
      <trkpt lat="42.35787" lon="2.89815">
        <ele>71.82</ele>
        <time>2021-07-30T16:33:45Z</time>
      </trkpt>
      <trkpt lat="42.35777" lon="2.89833">
        <ele>71.36</ele>
        <time>2021-07-30T16:33:44Z</time>
      </trkpt>
      <trkpt lat="42.3569" lon="2.89934">
        <ele>68.32</ele>
        <time>2021-07-30T16:33:38Z</time>
      </trkpt>
      <trkpt lat="42.35557" lon="2.90093">
        <ele>65.13</ele>
        <time>2021-07-30T16:33:29Z</time>
      </trkpt>
      <trkpt lat="42.35481" lon="2.90142">
        <ele>64.83</ele>
        <time>2021-07-30T16:33:24Z</time>
      </trkpt>
      <trkpt lat="42.3542" lon="2.9017">
        <ele>64.63</ele>
        <time>2021-07-30T16:33:20Z</time>
      </trkpt>
      <trkpt lat="42.35396" lon="2.90199">
        <ele>64.38</ele>
        <time>2021-07-30T16:33:18Z</time>
      </trkpt>
      <trkpt lat="42.35343" lon="2.90292">
        <ele>62.09</ele>
        <time>2021-07-30T16:33:13Z</time>
      </trkpt>
      <trkpt lat="42.35289" lon="2.9037">
        <ele>59.9</ele>
        <time>2021-07-30T16:33:09Z</time>
      </trkpt>
      <trkpt lat="42.35191" lon="2.90501">
        <ele>57.99</ele>
        <time>2021-07-30T16:33:02Z</time>
      </trkpt>
      <trkpt lat="42.35109" lon="2.90559">
        <ele>57.48</ele>
        <time>2021-07-30T16:32:56Z</time>
      </trkpt>
      <trkpt lat="42.3509" lon="2.90573">
        <ele>57.62</ele>
        <time>2021-07-30T16:32:54Z</time>
      </trkpt>
      <trkpt lat="42.35066" lon="2.90613">
        <ele>58.61</ele>
        <time>2021-07-30T16:32:50Z</time>
      </trkpt>
      <trkpt lat="42.351" lon="2.90631">
        <ele>62.61</ele>
        <time>2021-07-30T16:32:44Z</time>
      </trkpt>
      <trkpt lat="42.35141" lon="2.90586">
        <ele>64.79</ele>
        <time>2021-07-30T16:32:40Z</time>
      </trkpt>
      <trkpt lat="42.35279" lon="2.90515">
        <ele>65.58</ele>
        <time>2021-07-30T16:32:33Z</time>
      </trkpt>
      <trkpt lat="42.35484" lon="2.90462">
        <ele>66.39</ele>
        <time>2021-07-30T16:32:23Z</time>
      </trkpt>
      <trkpt lat="42.35588" lon="2.90418">
        <ele>64.99</ele>
        <time>2021-07-30T16:32:16Z</time>
      </trkpt>
      <trkpt lat="42.35617" lon="2.90419">
        <ele>64.72</ele>
        <time>2021-07-30T16:32:10Z</time>
      </trkpt>
      <trkpt lat="42.35617" lon="2.90419">
        <ele>64.89</ele>
        <time>2021-07-30T16:32:05Z</time>
      </trkpt>
      <trkpt lat="42.35613" lon="2.90429">
        <ele>65.14</ele>
        <time>2021-07-30T16:31:52Z</time>
      </trkpt>
      <trkpt lat="42.35613" lon="2.9043">
        <ele>65.69</ele>
        <time>2021-07-30T16:31:42Z</time>
      </trkpt>
      <trkpt lat="42.35602" lon="2.9045">
        <ele>66.97</ele>
        <time>2021-07-30T16:31:34Z</time>
      </trkpt>
      <trkpt lat="42.35585" lon="2.90521">
        <ele>68.87</ele>
        <time>2021-07-30T16:31:27Z</time>
      </trkpt>
      <trkpt lat="42.35587" lon="2.9053">
        <ele>69.71</ele>
        <time>2021-07-30T16:31:25Z</time>
      </trkpt>
      <trkpt lat="42.35592" lon="2.90541">
        <ele>73.52</ele>
        <time>2021-07-30T16:31:19Z</time>
      </trkpt>
      <trkpt lat="42.35624" lon="2.90556">
        <ele>76.18</ele>
        <time>2021-07-30T16:31:14Z</time>
      </trkpt>
      <trkpt lat="42.35643" lon="2.90547">
        <ele>77.29</ele>
        <time>2021-07-30T16:31:12Z</time>
      </trkpt>
      <trkpt lat="42.35652" lon="2.90543">
        <ele>78</ele>
        <time>2021-07-30T16:31:11Z</time>
      </trkpt>
      <trkpt lat="42.35668" lon="2.90572">
        <ele>83.07</ele>
        <time>2021-07-30T16:31:04Z</time>
      </trkpt>
      <trkpt lat="42.3566" lon="2.906">
        <ele>85.37</ele>
        <time>2021-07-30T16:31:01Z</time>
      </trkpt>
      <trkpt lat="42.35681" lon="2.90613">
        <ele>88.38</ele>
        <time>2021-07-30T16:30:57Z</time>
      </trkpt>
      <trkpt lat="42.35723" lon="2.90628">
        <ele>92.03</ele>
        <time>2021-07-30T16:30:51Z</time>
      </trkpt>
      <trkpt lat="42.35714" lon="2.90668">
        <ele>94.12</ele>
        <time>2021-07-30T16:30:45Z</time>
      </trkpt>
      <trkpt lat="42.35699" lon="2.90672">
        <ele>94.74</ele>
        <time>2021-07-30T16:30:43Z</time>
      </trkpt>
      <trkpt lat="42.3566" lon="2.90703">
        <ele>96.79</ele>
        <time>2021-07-30T16:30:38Z</time>
      </trkpt>
      <trkpt lat="42.35642" lon="2.90715">
        <ele>97.33</ele>
        <time>2021-07-30T16:30:36Z</time>
      </trkpt>
      <trkpt lat="42.35621" lon="2.90762">
        <ele>98.69</ele>
        <time>2021-07-30T16:30:30Z</time>
      </trkpt>
      <trkpt lat="42.35624" lon="2.90786">
        <ele>98.61</ele>
        <time>2021-07-30T16:30:28Z</time>
      </trkpt>
      <trkpt lat="42.35599" lon="2.90861">
        <ele>95.84</ele>
        <time>2021-07-30T16:30:20Z</time>
      </trkpt>
      <trkpt lat="42.35586" lon="2.90875">
        <ele>94.85</ele>
        <time>2021-07-30T16:30:18Z</time>
      </trkpt>
      <trkpt lat="42.35582" lon="2.90883">
        <ele>94.31</ele>
        <time>2021-07-30T16:30:17Z</time>
      </trkpt>
      <trkpt lat="42.35579" lon="2.90892">
        <ele>93.69</ele>
        <time>2021-07-30T16:30:16Z</time>
      </trkpt>
      <trkpt lat="42.35572" lon="2.9094">
        <ele>90.07</ele>
        <time>2021-07-30T16:30:11Z</time>
      </trkpt>
      <trkpt lat="42.35567" lon="2.90991">
        <ele>86.78</ele>
        <time>2021-07-30T16:30:07Z</time>
      </trkpt>
      <trkpt lat="42.35557" lon="2.91105">
        <ele>85.39</ele>
        <time>2021-07-30T16:30:00Z</time>
      </trkpt>
      <trkpt lat="42.35554" lon="2.91119">
        <ele>85.2</ele>
        <time>2021-07-30T16:29:59Z</time>
      </trkpt>
      <trkpt lat="42.35551" lon="2.91131">
        <ele>85.03</ele>
        <time>2021-07-30T16:29:58Z</time>
      </trkpt>
      <trkpt lat="42.35528" lon="2.91191">
        <ele>84.09</ele>
        <time>2021-07-30T16:29:52Z</time>
      </trkpt>
      <trkpt lat="42.35526" lon="2.912">
        <ele>84.06</ele>
        <time>2021-07-30T16:29:51Z</time>
      </trkpt>
      <trkpt lat="42.35525" lon="2.91209">
        <ele>84.09</ele>
        <time>2021-07-30T16:29:50Z</time>
      </trkpt>
      <trkpt lat="42.35541" lon="2.9128">
        <ele>86.16</ele>
        <time>2021-07-30T16:29:41Z</time>
      </trkpt>
      <trkpt lat="42.35568" lon="2.91305">
        <ele>89.46</ele>
        <time>2021-07-30T16:29:36Z</time>
      </trkpt>
      <trkpt lat="42.35596" lon="2.91299">
        <ele>91.38</ele>
        <time>2021-07-30T16:29:33Z</time>
      </trkpt>
      <trkpt lat="42.35605" lon="2.91297">
        <ele>91.89</ele>
        <time>2021-07-30T16:29:32Z</time>
      </trkpt>
      <trkpt lat="42.35629" lon="2.91317">
        <ele>95.66</ele>
        <time>2021-07-30T16:29:26Z</time>
      </trkpt>
      <trkpt lat="42.35624" lon="2.91333">
        <ele>97.21</ele>
        <time>2021-07-30T16:29:24Z</time>
      </trkpt>
      <trkpt lat="42.35621" lon="2.91355">
        <ele>98.28</ele>
        <time>2021-07-30T16:29:22Z</time>
      </trkpt>
      <trkpt lat="42.3562" lon="2.91364">
        <ele>98.86</ele>
        <time>2021-07-30T16:29:21Z</time>
      </trkpt>
      <trkpt lat="42.3563" lon="2.91398">
        <ele>101.72</ele>
        <time>2021-07-30T16:29:15Z</time>
      </trkpt>
      <trkpt lat="42.35668" lon="2.91405">
        <ele>102.97</ele>
        <time>2021-07-30T16:29:08Z</time>
      </trkpt>
      <trkpt lat="42.35687" lon="2.91438">
        <ele>102.47</ele>
        <time>2021-07-30T16:29:04Z</time>
      </trkpt>
      <trkpt lat="42.35698" lon="2.9149">
        <ele>100.16</ele>
        <time>2021-07-30T16:28:59Z</time>
      </trkpt>
      <trkpt lat="42.35691" lon="2.91517">
        <ele>98.79</ele>
        <time>2021-07-30T16:28:57Z</time>
      </trkpt>
      <trkpt lat="42.35678" lon="2.91565">
        <ele>95.43</ele>
        <time>2021-07-30T16:28:53Z</time>
      </trkpt>
      <trkpt lat="42.35674" lon="2.91609">
        <ele>91.21</ele>
        <time>2021-07-30T16:28:47Z</time>
      </trkpt>
      <trkpt lat="42.35677" lon="2.9163">
        <ele>88.57</ele>
        <time>2021-07-30T16:28:43Z</time>
      </trkpt>
      <trkpt lat="42.357" lon="2.91724">
        <ele>85.99</ele>
        <time>2021-07-30T16:28:32Z</time>
      </trkpt>
      <trkpt lat="42.35716" lon="2.91779">
        <ele>87.86</ele>
        <time>2021-07-30T16:28:26Z</time>
      </trkpt>
      <trkpt lat="42.35714" lon="2.91814">
        <ele>89.63</ele>
        <time>2021-07-30T16:28:22Z</time>
      </trkpt>
      <trkpt lat="42.35731" lon="2.91853">
        <ele>91.26</ele>
        <time>2021-07-30T16:28:18Z</time>
      </trkpt>
      <trkpt lat="42.35758" lon="2.91886">
        <ele>93.14</ele>
        <time>2021-07-30T16:28:13Z</time>
      </trkpt>
      <trkpt lat="42.35781" lon="2.91923">
        <ele>95.04</ele>
        <time>2021-07-30T16:28:09Z</time>
      </trkpt>
      <trkpt lat="42.35807" lon="2.91948">
        <ele>97.11</ele>
        <time>2021-07-30T16:28:04Z</time>
      </trkpt>
      <trkpt lat="42.35837" lon="2.91956">
        <ele>98.51</ele>
        <time>2021-07-30T16:27:59Z</time>
      </trkpt>
      <trkpt lat="42.35848" lon="2.91965">
        <ele>98.88</ele>
        <time>2021-07-30T16:27:57Z</time>
      </trkpt>
      <trkpt lat="42.35866" lon="2.91992">
        <ele>98.84</ele>
        <time>2021-07-30T16:27:52Z</time>
      </trkpt>
      <trkpt lat="42.35873" lon="2.92026">
        <ele>97.86</ele>
        <time>2021-07-30T16:27:48Z</time>
      </trkpt>
      <trkpt lat="42.35897" lon="2.92058">
        <ele>96.53</ele>
        <time>2021-07-30T16:27:44Z</time>
      </trkpt>
      <trkpt lat="42.35941" lon="2.92106">
        <ele>93.86</ele>
        <time>2021-07-30T16:27:36Z</time>
      </trkpt>
      <trkpt lat="42.36016" lon="2.92197">
        <ele>90.61</ele>
        <time>2021-07-30T16:27:25Z</time>
      </trkpt>
      <trkpt lat="42.36034" lon="2.92242">
        <ele>88.81</ele>
        <time>2021-07-30T16:27:19Z</time>
      </trkpt>
      <trkpt lat="42.36055" lon="2.92299">
        <ele>89.35</ele>
        <time>2021-07-30T16:27:13Z</time>
      </trkpt>
      <trkpt lat="42.36081" lon="2.92315">
        <ele>91.22</ele>
        <time>2021-07-30T16:27:09Z</time>
      </trkpt>
      <trkpt lat="42.36095" lon="2.92328">
        <ele>93.5</ele>
        <time>2021-07-30T16:27:06Z</time>
      </trkpt>
      <trkpt lat="42.36163" lon="2.92358">
        <ele>97.42</ele>
        <time>2021-07-30T16:26:59Z</time>
      </trkpt>
      <trkpt lat="42.3623" lon="2.92414">
        <ele>100.97</ele>
        <time>2021-07-30T16:26:52Z</time>
      </trkpt>
      <trkpt lat="42.36283" lon="2.92454">
        <ele>102.73</ele>
        <time>2021-07-30T16:26:45Z</time>
      </trkpt>
      <trkpt lat="42.36323" lon="2.92459">
        <ele>102.07</ele>
        <time>2021-07-30T16:26:40Z</time>
      </trkpt>
      <trkpt lat="42.36346" lon="2.92459">
        <ele>101.1</ele>
        <time>2021-07-30T16:26:36Z</time>
      </trkpt>
      <trkpt lat="42.36384" lon="2.92445">
        <ele>100.79</ele>
        <time>2021-07-30T16:26:31Z</time>
      </trkpt>
      <trkpt lat="42.36415" lon="2.92426">
        <ele>100.96</ele>
        <time>2021-07-30T16:26:27Z</time>
      </trkpt>
      <trkpt lat="42.36441" lon="2.92396">
        <ele>101.63</ele>
        <time>2021-07-30T16:26:23Z</time>
      </trkpt>
      <trkpt lat="42.36455" lon="2.92386">
        <ele>102.6</ele>
        <time>2021-07-30T16:26:20Z</time>
      </trkpt>
      <trkpt lat="42.36494" lon="2.92392">
        <ele>103.32</ele>
        <time>2021-07-30T16:26:13Z</time>
      </trkpt>
      <trkpt lat="42.36506" lon="2.92384">
        <ele>103.01</ele>
        <time>2021-07-30T16:26:10Z</time>
      </trkpt>
      <trkpt lat="42.36574" lon="2.92364">
        <ele>100.16</ele>
        <time>2021-07-30T16:26:01Z</time>
      </trkpt>
      <trkpt lat="42.36644" lon="2.92359">
        <ele>99.8</ele>
        <time>2021-07-30T16:25:55Z</time>
      </trkpt>
      <trkpt lat="42.36685" lon="2.92342">
        <ele>99.65</ele>
        <time>2021-07-30T16:25:50Z</time>
      </trkpt>
      <trkpt lat="42.36695" lon="2.92334">
        <ele>100.46</ele>
        <time>2021-07-30T16:25:42Z</time>
      </trkpt>
      <trkpt lat="42.36705" lon="2.92325">
        <ele>101.5</ele>
        <time>2021-07-30T16:25:37Z</time>
      </trkpt>
      <trkpt lat="42.36758" lon="2.923">
        <ele>101.87</ele>
        <time>2021-07-30T16:25:32Z</time>
      </trkpt>
      <trkpt lat="42.36786" lon="2.92299">
        <ele>101.99</ele>
        <time>2021-07-30T16:25:30Z</time>
      </trkpt>
      <trkpt lat="42.36857" lon="2.923">
        <ele>102.36</ele>
        <time>2021-07-30T16:25:25Z</time>
      </trkpt>
      <trkpt lat="42.36899" lon="2.9232">
        <ele>102.76</ele>
        <time>2021-07-30T16:25:22Z</time>
      </trkpt>
      <trkpt lat="42.36981" lon="2.92317">
        <ele>103.56</ele>
        <time>2021-07-30T16:25:16Z</time>
      </trkpt>
      <trkpt lat="42.37035" lon="2.92306">
        <ele>104.79</ele>
        <time>2021-07-30T16:25:11Z</time>
      </trkpt>
      <trkpt lat="42.371" lon="2.92266">
        <ele>105.61</ele>
        <time>2021-07-30T16:25:05Z</time>
      </trkpt>
      <trkpt lat="42.37129" lon="2.92232">
        <ele>105.7</ele>
        <time>2021-07-30T16:25:02Z</time>
      </trkpt>
      <trkpt lat="42.37169" lon="2.9221">
        <ele>105.93</ele>
        <time>2021-07-30T16:24:58Z</time>
      </trkpt>
      <trkpt lat="42.37192" lon="2.92205">
        <ele>106.28</ele>
        <time>2021-07-30T16:24:54Z</time>
      </trkpt>
      <trkpt lat="42.37208" lon="2.92231">
        <ele>106.67</ele>
        <time>2021-07-30T16:24:48Z</time>
      </trkpt>
      <trkpt lat="42.37224" lon="2.92256">
        <ele>107.81</ele>
        <time>2021-07-30T16:24:25Z</time>
      </trkpt>
      <trkpt lat="42.37227" lon="2.92264">
        <ele>110.88</ele>
        <time>2021-07-30T16:24:18Z</time>
      </trkpt>
      <trkpt lat="42.37249" lon="2.92302">
        <ele>113.41</ele>
        <time>2021-07-30T16:24:13Z</time>
      </trkpt>
      <trkpt lat="42.37318" lon="2.92418">
        <ele>116.48</ele>
        <time>2021-07-30T16:24:04Z</time>
      </trkpt>
      <trkpt lat="42.37323" lon="2.92428">
        <ele>116.83</ele>
        <time>2021-07-30T16:24:03Z</time>
      </trkpt>
      <trkpt lat="42.37357" lon="2.92428">
        <ele>119.61</ele>
        <time>2021-07-30T16:23:57Z</time>
      </trkpt>
      <trkpt lat="42.37405" lon="2.92326">
        <ele>121.8</ele>
        <time>2021-07-30T16:23:50Z</time>
      </trkpt>
      <trkpt lat="42.37423" lon="2.92263">
        <ele>122.1</ele>
        <time>2021-07-30T16:23:45Z</time>
      </trkpt>
      <trkpt lat="42.37432" lon="2.92246">
        <ele>122.43</ele>
        <time>2021-07-30T16:23:41Z</time>
      </trkpt>
      <trkpt lat="42.37446" lon="2.92252">
        <ele>123.49</ele>
        <time>2021-07-30T16:23:34Z</time>
      </trkpt>
      <trkpt lat="42.37473" lon="2.92283">
        <ele>125.18</ele>
        <time>2021-07-30T16:23:29Z</time>
      </trkpt>
      <trkpt lat="42.37503" lon="2.92364">
        <ele>127.27</ele>
        <time>2021-07-30T16:23:23Z</time>
      </trkpt>
      <trkpt lat="42.37509" lon="2.9238">
        <ele>127.69</ele>
        <time>2021-07-30T16:23:22Z</time>
      </trkpt>
      <trkpt lat="42.37564" lon="2.92467">
        <ele>131.59</ele>
        <time>2021-07-30T16:23:15Z</time>
      </trkpt>
      <trkpt lat="42.37605" lon="2.92542">
        <ele>133.74</ele>
        <time>2021-07-30T16:23:10Z</time>
      </trkpt>
      <trkpt lat="42.37622" lon="2.92596">
        <ele>135.21</ele>
        <time>2021-07-30T16:23:06Z</time>
      </trkpt>
      <trkpt lat="42.37657" lon="2.92696">
        <ele>136.27</ele>
        <time>2021-07-30T16:23:00Z</time>
      </trkpt>
      <trkpt lat="42.37681" lon="2.92773">
        <ele>135.7</ele>
        <time>2021-07-30T16:22:53Z</time>
      </trkpt>
      <trkpt lat="42.37685" lon="2.9279">
        <ele>134.96</ele>
        <time>2021-07-30T16:22:51Z</time>
      </trkpt>
      <trkpt lat="42.377" lon="2.9285">
        <ele>132.06</ele>
        <time>2021-07-30T16:22:46Z</time>
      </trkpt>
      <trkpt lat="42.37722" lon="2.9288">
        <ele>128.35</ele>
        <time>2021-07-30T16:22:41Z</time>
      </trkpt>
      <trkpt lat="42.37759" lon="2.92906">
        <ele>123.95</ele>
        <time>2021-07-30T16:22:36Z</time>
      </trkpt>
      <trkpt lat="42.37783" lon="2.9294">
        <ele>120.37</ele>
        <time>2021-07-30T16:22:32Z</time>
      </trkpt>
      <trkpt lat="42.37813" lon="2.92976">
        <ele>115.87</ele>
        <time>2021-07-30T16:22:27Z</time>
      </trkpt>
      <trkpt lat="42.37808" lon="2.93042">
        <ele>111.67</ele>
        <time>2021-07-30T16:22:22Z</time>
      </trkpt>
      <trkpt lat="42.37814" lon="2.93133">
        <ele>108.55</ele>
        <time>2021-07-30T16:22:16Z</time>
      </trkpt>
      <trkpt lat="42.37796" lon="2.93288">
        <ele>107.63</ele>
        <time>2021-07-30T16:22:07Z</time>
      </trkpt>
      <trkpt lat="42.37796" lon="2.93348">
        <ele>108.8</ele>
        <time>2021-07-30T16:22:03Z</time>
      </trkpt>
      <trkpt lat="42.37803" lon="2.9338">
        <ele>109.47</ele>
        <time>2021-07-30T16:22:01Z</time>
      </trkpt>
      <trkpt lat="42.37823" lon="2.93503">
        <ele>110.9</ele>
        <time>2021-07-30T16:21:52Z</time>
      </trkpt>
      <trkpt lat="42.37823" lon="2.93528">
        <ele>110.67</ele>
        <time>2021-07-30T16:21:50Z</time>
      </trkpt>
      <trkpt lat="42.37823" lon="2.93568">
        <ele>109.38</ele>
        <time>2021-07-30T16:21:47Z</time>
      </trkpt>
      <trkpt lat="42.37823" lon="2.93641">
        <ele>105.74</ele>
        <time>2021-07-30T16:21:41Z</time>
      </trkpt>
      <trkpt lat="42.37819" lon="2.93686">
        <ele>101.38</ele>
        <time>2021-07-30T16:21:34Z</time>
      </trkpt>
      <trkpt lat="42.37821" lon="2.9372">
        <ele>98.74</ele>
        <time>2021-07-30T16:21:29Z</time>
      </trkpt>
      <trkpt lat="42.3783" lon="2.93755">
        <ele>97.87</ele>
        <time>2021-07-30T16:21:26Z</time>
      </trkpt>
      <trkpt lat="42.37846" lon="2.93788">
        <ele>97.13</ele>
        <time>2021-07-30T16:21:22Z</time>
      </trkpt>
      <trkpt lat="42.37866" lon="2.93802">
        <ele>96.78</ele>
        <time>2021-07-30T16:21:17Z</time>
      </trkpt>
      <trkpt lat="42.37901" lon="2.93824">
        <ele>98.27</ele>
        <time>2021-07-30T16:21:11Z</time>
      </trkpt>
      <trkpt lat="42.37912" lon="2.9386">
        <ele>101.96</ele>
        <time>2021-07-30T16:21:05Z</time>
      </trkpt>
      <trkpt lat="42.37894" lon="2.9389">
        <ele>105.13</ele>
        <time>2021-07-30T16:21:00Z</time>
      </trkpt>
      <trkpt lat="42.37885" lon="2.93919">
        <ele>107.75</ele>
        <time>2021-07-30T16:20:56Z</time>
      </trkpt>
      <trkpt lat="42.37881" lon="2.93928">
        <ele>108.38</ele>
        <time>2021-07-30T16:20:55Z</time>
      </trkpt>
      <trkpt lat="42.37882" lon="2.93981">
        <ele>112.49</ele>
        <time>2021-07-30T16:20:49Z</time>
      </trkpt>
      <trkpt lat="42.37897" lon="2.94007">
        <ele>114.73</ele>
        <time>2021-07-30T16:20:45Z</time>
      </trkpt>
      <trkpt lat="42.37912" lon="2.94046">
        <ele>117.75</ele>
        <time>2021-07-30T16:20:39Z</time>
      </trkpt>
      <trkpt lat="42.37934" lon="2.94101">
        <ele>119.97</ele>
        <time>2021-07-30T16:20:31Z</time>
      </trkpt>
      <trkpt lat="42.37972" lon="2.94177">
        <ele>120.3</ele>
        <time>2021-07-30T16:20:22Z</time>
      </trkpt>
      <trkpt lat="42.38009" lon="2.94251">
        <ele>119.85</ele>
        <time>2021-07-30T16:20:12Z</time>
      </trkpt>
      <trkpt lat="42.38029" lon="2.94297">
        <ele>120.3</ele>
        <time>2021-07-30T16:20:07Z</time>
      </trkpt>
      <trkpt lat="42.3804" lon="2.94345">
        <ele>120.9</ele>
        <time>2021-07-30T16:20:01Z</time>
      </trkpt>
      <trkpt lat="42.38086" lon="2.94445">
        <ele>119.75</ele>
        <time>2021-07-30T16:19:49Z</time>
      </trkpt>
      <trkpt lat="42.38118" lon="2.94458">
        <ele>119.02</ele>
        <time>2021-07-30T16:19:42Z</time>
      </trkpt>
      <trkpt lat="42.38139" lon="2.9447">
        <ele>119.61</ele>
        <time>2021-07-30T16:19:37Z</time>
      </trkpt>
      <trkpt lat="42.38145" lon="2.94481">
        <ele>119.88</ele>
        <time>2021-07-30T16:19:35Z</time>
      </trkpt>
      <trkpt lat="42.3817" lon="2.94523">
        <ele>122.6</ele>
        <time>2021-07-30T16:19:27Z</time>
      </trkpt>
      <trkpt lat="42.38185" lon="2.94531">
        <ele>124.79</ele>
        <time>2021-07-30T16:19:22Z</time>
      </trkpt>
      <trkpt lat="42.38199" lon="2.94523">
        <ele>125.76</ele>
        <time>2021-07-30T16:19:20Z</time>
      </trkpt>
      <trkpt lat="42.38242" lon="2.94518">
        <ele>127.27</ele>
        <time>2021-07-30T16:19:16Z</time>
      </trkpt>
      <trkpt lat="42.38294" lon="2.9452">
        <ele>128.69</ele>
        <time>2021-07-30T16:19:12Z</time>
      </trkpt>
      <trkpt lat="42.38309" lon="2.94513">
        <ele>128.94</ele>
        <time>2021-07-30T16:19:11Z</time>
      </trkpt>
      <trkpt lat="42.38467" lon="2.94444">
        <ele>129.18</ele>
        <time>2021-07-30T16:19:02Z</time>
      </trkpt>
      <trkpt lat="42.38635" lon="2.94304">
        <ele>131.51</ele>
        <time>2021-07-30T16:18:52Z</time>
      </trkpt>
      <trkpt lat="42.38714" lon="2.94268">
        <ele>134.34</ele>
        <time>2021-07-30T16:18:47Z</time>
      </trkpt>
      <trkpt lat="42.38784" lon="2.9433">
        <ele>135.47</ele>
        <time>2021-07-30T16:18:41Z</time>
      </trkpt>
      <trkpt lat="42.38802" lon="2.94386">
        <ele>135.72</ele>
        <time>2021-07-30T16:18:38Z</time>
      </trkpt>
      <trkpt lat="42.38839" lon="2.94465">
        <ele>137.64</ele>
        <time>2021-07-30T16:18:34Z</time>
      </trkpt>
      <trkpt lat="42.38859" lon="2.94503">
        <ele>139.18</ele>
        <time>2021-07-30T16:18:32Z</time>
      </trkpt>
      <trkpt lat="42.3894" lon="2.94542">
        <ele>142.77</ele>
        <time>2021-07-30T16:18:26Z</time>
      </trkpt>
      <trkpt lat="42.39005" lon="2.94564">
        <ele>144.23</ele>
        <time>2021-07-30T16:18:20Z</time>
      </trkpt>
      <trkpt lat="42.39021" lon="2.94611">
        <ele>144.53</ele>
        <time>2021-07-30T16:18:17Z</time>
      </trkpt>
      <trkpt lat="42.39053" lon="2.94653">
        <ele>144.82</ele>
        <time>2021-07-30T16:18:13Z</time>
      </trkpt>
      <trkpt lat="42.39124" lon="2.94655">
        <ele>144.35</ele>
        <time>2021-07-30T16:18:08Z</time>
      </trkpt>
      <trkpt lat="42.3915" lon="2.94658">
        <ele>144.57</ele>
        <time>2021-07-30T16:18:06Z</time>
      </trkpt>
      <trkpt lat="42.39162" lon="2.94665">
        <ele>144.87</ele>
        <time>2021-07-30T16:18:05Z</time>
      </trkpt>
      <trkpt lat="42.39217" lon="2.94703">
        <ele>149.15</ele>
        <time>2021-07-30T16:18:00Z</time>
      </trkpt>
      <trkpt lat="42.39283" lon="2.94714">
        <ele>153.17</ele>
        <time>2021-07-30T16:17:56Z</time>
      </trkpt>
      <trkpt lat="42.39355" lon="2.94758">
        <ele>156.15</ele>
        <time>2021-07-30T16:17:52Z</time>
      </trkpt>
      <trkpt lat="42.39404" lon="2.94771">
        <ele>157.25</ele>
        <time>2021-07-30T16:17:49Z</time>
      </trkpt>
      <trkpt lat="42.39474" lon="2.94789">
        <ele>156.83</ele>
        <time>2021-07-30T16:17:43Z</time>
      </trkpt>
      <trkpt lat="42.39505" lon="2.94837">
        <ele>155.42</ele>
        <time>2021-07-30T16:17:40Z</time>
      </trkpt>
      <trkpt lat="42.39585" lon="2.94907">
        <ele>153.86</ele>
        <time>2021-07-30T16:17:35Z</time>
      </trkpt>
      <trkpt lat="42.39634" lon="2.94936">
        <ele>154.05</ele>
        <time>2021-07-30T16:17:32Z</time>
      </trkpt>
      <trkpt lat="42.39684" lon="2.9501">
        <ele>155.57</ele>
        <time>2021-07-30T16:17:28Z</time>
      </trkpt>
      <trkpt lat="42.39779" lon="2.9509">
        <ele>156.83</ele>
        <time>2021-07-30T16:17:23Z</time>
      </trkpt>
      <trkpt lat="42.39921" lon="2.9521">
        <ele>155.85</ele>
        <time>2021-07-30T16:17:15Z</time>
      </trkpt>
      <trkpt lat="42.39949" lon="2.95225">
        <ele>155.61</ele>
        <time>2021-07-30T16:17:13Z</time>
      </trkpt>
      <trkpt lat="42.40008" lon="2.9519">
        <ele>154.65</ele>
        <time>2021-07-30T16:17:08Z</time>
      </trkpt>
      <trkpt lat="42.40056" lon="2.95106">
        <ele>153.29</ele>
        <time>2021-07-30T16:17:04Z</time>
      </trkpt>
      <trkpt lat="42.40149" lon="2.94973">
        <ele>152.6</ele>
        <time>2021-07-30T16:16:57Z</time>
      </trkpt>
      <trkpt lat="42.4018" lon="2.94949">
        <ele>152.42</ele>
        <time>2021-07-30T16:16:55Z</time>
      </trkpt>
      <trkpt lat="42.40312" lon="2.94912">
        <ele>151.36</ele>
        <time>2021-07-30T16:16:48Z</time>
      </trkpt>
      <trkpt lat="42.40332" lon="2.9491">
        <ele>151.35</ele>
        <time>2021-07-30T16:16:47Z</time>
      </trkpt>
      <trkpt lat="42.40418" lon="2.94837">
        <ele>151.51</ele>
        <time>2021-07-30T16:16:41Z</time>
      </trkpt>
      <trkpt lat="42.40446" lon="2.94792">
        <ele>151.57</ele>
        <time>2021-07-30T16:16:38Z</time>
      </trkpt>
      <trkpt lat="42.40507" lon="2.94736">
        <ele>151.93</ele>
        <time>2021-07-30T16:16:33Z</time>
      </trkpt>
      <trkpt lat="42.40515" lon="2.94725">
        <ele>152.02</ele>
        <time>2021-07-30T16:16:32Z</time>
      </trkpt>
      <trkpt lat="42.4051" lon="2.94635">
        <ele>152.31</ele>
        <time>2021-07-30T16:16:27Z</time>
      </trkpt>
      <trkpt lat="42.40508" lon="2.9461">
        <ele>152.4</ele>
        <time>2021-07-30T16:16:26Z</time>
      </trkpt>
      <trkpt lat="42.40511" lon="2.94482">
        <ele>153.59</ele>
        <time>2021-07-30T16:16:20Z</time>
      </trkpt>
      <trkpt lat="42.40552" lon="2.94407">
        <ele>154.68</ele>
        <time>2021-07-30T16:16:16Z</time>
      </trkpt>
      <trkpt lat="42.40589" lon="2.94339">
        <ele>156.28</ele>
        <time>2021-07-30T16:16:12Z</time>
      </trkpt>
      <trkpt lat="42.40611" lon="2.9428">
        <ele>157.06</ele>
        <time>2021-07-30T16:16:09Z</time>
      </trkpt>
      <trkpt lat="42.4071" lon="2.94133">
        <ele>156.95</ele>
        <time>2021-07-30T16:16:02Z</time>
      </trkpt>
      <trkpt lat="42.40819" lon="2.93973">
        <ele>156.78</ele>
        <time>2021-07-30T16:15:54Z</time>
      </trkpt>
      <trkpt lat="42.40895" lon="2.93906">
        <ele>155.91</ele>
        <time>2021-07-30T16:15:48Z</time>
      </trkpt>
      <trkpt lat="42.40961" lon="2.93802">
        <ele>155.19</ele>
        <time>2021-07-30T16:15:40Z</time>
      </trkpt>
      <trkpt lat="42.40976" lon="2.9379">
        <ele>156.27</ele>
        <time>2021-07-30T16:15:36Z</time>
      </trkpt>
      <trkpt lat="42.41044" lon="2.93835">
        <ele>157.78</ele>
        <time>2021-07-30T16:15:26Z</time>
      </trkpt>
      <trkpt lat="42.41074" lon="2.93875">
        <ele>158.32</ele>
        <time>2021-07-30T16:15:21Z</time>
      </trkpt>
      <trkpt lat="42.41089" lon="2.93938">
        <ele>158.41</ele>
        <time>2021-07-30T16:15:16Z</time>
      </trkpt>
      <trkpt lat="42.41121" lon="2.94025">
        <ele>158.38</ele>
        <time>2021-07-30T16:15:09Z</time>
      </trkpt>
      <trkpt lat="42.41139" lon="2.94135">
        <ele>158.93</ele>
        <time>2021-07-30T16:14:59Z</time>
      </trkpt>
      <trkpt lat="42.41145" lon="2.94156">
        <ele>159.33</ele>
        <time>2021-07-30T16:14:57Z</time>
      </trkpt>
      <trkpt lat="42.41148" lon="2.94165">
        <ele>159.63</ele>
        <time>2021-07-30T16:14:56Z</time>
      </trkpt>
      <trkpt lat="42.41152" lon="2.94173">
        <ele>159.93</ele>
        <time>2021-07-30T16:14:55Z</time>
      </trkpt>
      <trkpt lat="42.41157" lon="2.94177">
        <ele>160.16</ele>
        <time>2021-07-30T16:14:54Z</time>
      </trkpt>
      <trkpt lat="42.41163" lon="2.94177">
        <ele>160.36</ele>
        <time>2021-07-30T16:14:53Z</time>
      </trkpt>
      <trkpt lat="42.41262" lon="2.9412">
        <ele>162.75</ele>
        <time>2021-07-30T16:14:43Z</time>
      </trkpt>
      <trkpt lat="42.41348" lon="2.9409">
        <ele>163.67</ele>
        <time>2021-07-30T16:14:36Z</time>
      </trkpt>
      <trkpt lat="42.41361" lon="2.94086">
        <ele>163.77</ele>
        <time>2021-07-30T16:14:35Z</time>
      </trkpt>
      <trkpt lat="42.41374" lon="2.94082">
        <ele>163.92</ele>
        <time>2021-07-30T16:14:34Z</time>
      </trkpt>
      <trkpt lat="42.41386" lon="2.94078">
        <ele>164.11</ele>
        <time>2021-07-30T16:14:33Z</time>
      </trkpt>
      <trkpt lat="42.41398" lon="2.94075">
        <ele>164.33</ele>
        <time>2021-07-30T16:14:32Z</time>
      </trkpt>
      <trkpt lat="42.41411" lon="2.9409">
        <ele>165.78</ele>
        <time>2021-07-30T16:14:27Z</time>
      </trkpt>
      <trkpt lat="42.41405" lon="2.94107">
        <ele>166.68</ele>
        <time>2021-07-30T16:14:25Z</time>
      </trkpt>
      <trkpt lat="42.41398" lon="2.94127">
        <ele>167.65</ele>
        <time>2021-07-30T16:14:23Z</time>
      </trkpt>
      <trkpt lat="42.41394" lon="2.94188">
        <ele>171.26</ele>
        <time>2021-07-30T16:14:17Z</time>
      </trkpt>
      <trkpt lat="42.4142" lon="2.94258">
        <ele>174.28</ele>
        <time>2021-07-30T16:14:12Z</time>
      </trkpt>
      <trkpt lat="42.41465" lon="2.94344">
        <ele>177.68</ele>
        <time>2021-07-30T16:14:05Z</time>
      </trkpt>
      <trkpt lat="42.41501" lon="2.94365">
        <ele>179.49</ele>
        <time>2021-07-30T16:14:00Z</time>
      </trkpt>
      <trkpt lat="42.41599" lon="2.94332">
        <ele>180.96</ele>
        <time>2021-07-30T16:13:52Z</time>
      </trkpt>
      <trkpt lat="42.41655" lon="2.94321">
        <ele>181.62</ele>
        <time>2021-07-30T16:13:46Z</time>
      </trkpt>
      <trkpt lat="42.41672" lon="2.94311">
        <ele>181.5</ele>
        <time>2021-07-30T16:13:44Z</time>
      </trkpt>
      <trkpt lat="42.41752" lon="2.94284">
        <ele>183.99</ele>
        <time>2021-07-30T16:13:36Z</time>
      </trkpt>
      <trkpt lat="42.41777" lon="2.94285">
        <ele>188</ele>
        <time>2021-07-30T16:13:32Z</time>
      </trkpt>
      <trkpt lat="42.41783" lon="2.94289">
        <ele>189.05</ele>
        <time>2021-07-30T16:13:31Z</time>
      </trkpt>
      <trkpt lat="42.41804" lon="2.94305">
        <ele>192.5</ele>
        <time>2021-07-30T16:13:28Z</time>
      </trkpt>
      <trkpt lat="42.4183" lon="2.94327">
        <ele>196.84</ele>
        <time>2021-07-30T16:13:24Z</time>
      </trkpt>
      <trkpt lat="42.41845" lon="2.94345">
        <ele>198.73</ele>
        <time>2021-07-30T16:13:22Z</time>
      </trkpt>
      <trkpt lat="42.4186" lon="2.94363">
        <ele>200.66</ele>
        <time>2021-07-30T16:13:20Z</time>
      </trkpt>
      <trkpt lat="42.41874" lon="2.94401">
        <ele>204.83</ele>
        <time>2021-07-30T16:13:16Z</time>
      </trkpt>
      <trkpt lat="42.4188" lon="2.94441">
        <ele>207.2</ele>
        <time>2021-07-30T16:13:13Z</time>
      </trkpt>
      <trkpt lat="42.4189" lon="2.94508">
        <ele>211.75</ele>
        <time>2021-07-30T16:13:07Z</time>
      </trkpt>
      <trkpt lat="42.41884" lon="2.94548">
        <ele>216.22</ele>
        <time>2021-07-30T16:13:03Z</time>
      </trkpt>
      <trkpt lat="42.41882" lon="2.94558">
        <ele>217.31</ele>
        <time>2021-07-30T16:13:02Z</time>
      </trkpt>
      <trkpt lat="42.41873" lon="2.94596">
        <ele>220.72</ele>
        <time>2021-07-30T16:12:59Z</time>
      </trkpt>
      <trkpt lat="42.41861" lon="2.94643">
        <ele>225.2</ele>
        <time>2021-07-30T16:12:55Z</time>
      </trkpt>
      <trkpt lat="42.4186" lon="2.94655">
        <ele>226.22</ele>
        <time>2021-07-30T16:12:54Z</time>
      </trkpt>
      <trkpt lat="42.41864" lon="2.94714">
        <ele>230.52</ele>
        <time>2021-07-30T16:12:49Z</time>
      </trkpt>
      <trkpt lat="42.41874" lon="2.94749">
        <ele>233.72</ele>
        <time>2021-07-30T16:12:45Z</time>
      </trkpt>
      <trkpt lat="42.41913" lon="2.94789">
        <ele>237.33</ele>
        <time>2021-07-30T16:12:39Z</time>
      </trkpt>
      <trkpt lat="42.41944" lon="2.9485">
        <ele>240.55</ele>
        <time>2021-07-30T16:12:31Z</time>
      </trkpt>
      <trkpt lat="42.41946" lon="2.94904">
        <ele>243.11</ele>
        <time>2021-07-30T16:12:23Z</time>
      </trkpt>
      <trkpt lat="42.41944" lon="2.94946">
        <ele>247.19</ele>
        <time>2021-07-30T16:12:15Z</time>
      </trkpt>
      <trkpt lat="42.41935" lon="2.94973">
        <ele>250.06</ele>
        <time>2021-07-30T16:12:10Z</time>
      </trkpt>
      <trkpt lat="42.41927" lon="2.94989">
        <ele>251.53</ele>
        <time>2021-07-30T16:12:07Z</time>
      </trkpt>
      <trkpt lat="42.41917" lon="2.95001">
        <ele>252.52</ele>
        <time>2021-07-30T16:12:05Z</time>
      </trkpt>
      <trkpt lat="42.41892" lon="2.95033">
        <ele>255.93</ele>
        <time>2021-07-30T16:12:00Z</time>
      </trkpt>
      <trkpt lat="42.41864" lon="2.95073">
        <ele>259.51</ele>
        <time>2021-07-30T16:11:53Z</time>
      </trkpt>
      <trkpt lat="42.41861" lon="2.95113">
        <ele>262.22</ele>
        <time>2021-07-30T16:11:46Z</time>
      </trkpt>
      <trkpt lat="42.41864" lon="2.95142">
        <ele>262.35</ele>
        <time>2021-07-30T16:11:40Z</time>
      </trkpt>
      <trkpt lat="42.41854" lon="2.95197">
        <ele>261.92</ele>
        <time>2021-07-30T16:11:32Z</time>
      </trkpt>
      <trkpt lat="42.41854" lon="2.95197">
        <ele>262.98</ele>
        <time>2021-07-30T16:10:44Z</time>
      </trkpt>
      <trkpt lat="42.41854" lon="2.95201">
        <ele>266.77</ele>
        <time>2021-07-30T16:10:36Z</time>
      </trkpt>
      <trkpt lat="42.41861" lon="2.95228">
        <ele>270.59</ele>
        <time>2021-07-30T16:10:31Z</time>
      </trkpt>
      <trkpt lat="42.41858" lon="2.9528">
        <ele>272.41</ele>
        <time>2021-07-30T16:10:26Z</time>
      </trkpt>
      <trkpt lat="42.41854" lon="2.95346">
        <ele>272.07</ele>
        <time>2021-07-30T16:10:21Z</time>
      </trkpt>
      <trkpt lat="42.41839" lon="2.95423">
        <ele>269.48</ele>
        <time>2021-07-30T16:10:16Z</time>
      </trkpt>
      <trkpt lat="42.41827" lon="2.95469">
        <ele>266.89</ele>
        <time>2021-07-30T16:10:12Z</time>
      </trkpt>
      <trkpt lat="42.41869" lon="2.95486">
        <ele>263.65</ele>
        <time>2021-07-30T16:10:06Z</time>
      </trkpt>
      <trkpt lat="42.41906" lon="2.9547">
        <ele>261.13</ele>
        <time>2021-07-30T16:10:02Z</time>
      </trkpt>
      <trkpt lat="42.41952" lon="2.95448">
        <ele>258.29</ele>
        <time>2021-07-30T16:09:57Z</time>
      </trkpt>
      <trkpt lat="42.41988" lon="2.95457">
        <ele>255.95</ele>
        <time>2021-07-30T16:09:53Z</time>
      </trkpt>
      <trkpt lat="42.42062" lon="2.9547">
        <ele>252.55</ele>
        <time>2021-07-30T16:09:45Z</time>
      </trkpt>
      <trkpt lat="42.42103" lon="2.95455">
        <ele>251.41</ele>
        <time>2021-07-30T16:09:41Z</time>
      </trkpt>
      <trkpt lat="42.42152" lon="2.95413">
        <ele>251.14</ele>
        <time>2021-07-30T16:09:36Z</time>
      </trkpt>
      <trkpt lat="42.42182" lon="2.95397">
        <ele>251.75</ele>
        <time>2021-07-30T16:09:32Z</time>
      </trkpt>
      <trkpt lat="42.422" lon="2.95471">
        <ele>251.57</ele>
        <time>2021-07-30T16:09:26Z</time>
      </trkpt>
      <trkpt lat="42.42203" lon="2.95502">
        <ele>251.04</ele>
        <time>2021-07-30T16:09:24Z</time>
      </trkpt>
      <trkpt lat="42.42205" lon="2.95515">
        <ele>250.7</ele>
        <time>2021-07-30T16:09:23Z</time>
      </trkpt>
      <trkpt lat="42.42243" lon="2.95549">
        <ele>247.88</ele>
        <time>2021-07-30T16:09:17Z</time>
      </trkpt>
      <trkpt lat="42.42273" lon="2.95541">
        <ele>246.51</ele>
        <time>2021-07-30T16:09:14Z</time>
      </trkpt>
      <trkpt lat="42.42363" lon="2.95549">
        <ele>243.96</ele>
        <time>2021-07-30T16:09:06Z</time>
      </trkpt>
      <trkpt lat="42.4242" lon="2.95522">
        <ele>244.84</ele>
        <time>2021-07-30T16:09:00Z</time>
      </trkpt>
      <trkpt lat="42.42482" lon="2.95506">
        <ele>246.61</ele>
        <time>2021-07-30T16:08:54Z</time>
      </trkpt>
      <trkpt lat="42.42493" lon="2.955">
        <ele>246.55</ele>
        <time>2021-07-30T16:08:53Z</time>
      </trkpt>
      <trkpt lat="42.42568" lon="2.9546">
        <ele>243.34</ele>
        <time>2021-07-30T16:08:45Z</time>
      </trkpt>
      <trkpt lat="42.42587" lon="2.95439">
        <ele>242.09</ele>
        <time>2021-07-30T16:08:43Z</time>
      </trkpt>
      <trkpt lat="42.42659" lon="2.95365">
        <ele>237.99</ele>
        <time>2021-07-30T16:08:35Z</time>
      </trkpt>
      <trkpt lat="42.4269" lon="2.95356">
        <ele>236.46</ele>
        <time>2021-07-30T16:08:32Z</time>
      </trkpt>
      <trkpt lat="42.42798" lon="2.95329">
        <ele>234.87</ele>
        <time>2021-07-30T16:08:22Z</time>
      </trkpt>
      <trkpt lat="42.42837" lon="2.95313">
        <ele>234.9</ele>
        <time>2021-07-30T16:08:18Z</time>
      </trkpt>
      <trkpt lat="42.42879" lon="2.95279">
        <ele>234.87</ele>
        <time>2021-07-30T16:08:12Z</time>
      </trkpt>
      <trkpt lat="42.42889" lon="2.95274">
        <ele>234.9</ele>
        <time>2021-07-30T16:08:10Z</time>
      </trkpt>
      <trkpt lat="42.42943" lon="2.95255">
        <ele>235.96</ele>
        <time>2021-07-30T16:08:00Z</time>
      </trkpt>
      <trkpt lat="42.42964" lon="2.9523">
        <ele>236.73</ele>
        <time>2021-07-30T16:07:56Z</time>
      </trkpt>
      <trkpt lat="42.43026" lon="2.95172">
        <ele>238.67</ele>
        <time>2021-07-30T16:07:44Z</time>
      </trkpt>
      <trkpt lat="42.4306" lon="2.95143">
        <ele>238.84</ele>
        <time>2021-07-30T16:07:38Z</time>
      </trkpt>
      <trkpt lat="42.43065" lon="2.95138">
        <ele>238.83</ele>
        <time>2021-07-30T16:07:35Z</time>
      </trkpt>
      <trkpt lat="42.43063" lon="2.95137">
        <ele>239.85</ele>
        <time>2021-07-30T16:07:18Z</time>
      </trkpt>
      <trkpt lat="42.43078" lon="2.95124">
        <ele>241.2</ele>
        <time>2021-07-30T16:07:10Z</time>
      </trkpt>
      <trkpt lat="42.43117" lon="2.95096">
        <ele>239.75</ele>
        <time>2021-07-30T16:07:02Z</time>
      </trkpt>
      <trkpt lat="42.43178" lon="2.95057">
        <ele>239.94</ele>
        <time>2021-07-30T16:06:54Z</time>
      </trkpt>
      <trkpt lat="42.43236" lon="2.95008">
        <ele>242.2</ele>
        <time>2021-07-30T16:06:45Z</time>
      </trkpt>
      <trkpt lat="42.43257" lon="2.95003">
        <ele>244.03</ele>
        <time>2021-07-30T16:06:41Z</time>
      </trkpt>
      <trkpt lat="42.43266" lon="2.94997">
        <ele>245.1</ele>
        <time>2021-07-30T16:06:39Z</time>
      </trkpt>
      <trkpt lat="42.43258" lon="2.95013">
        <ele>248.78</ele>
        <time>2021-07-30T16:06:33Z</time>
      </trkpt>
      <trkpt lat="42.43244" lon="2.95028">
        <ele>250.7</ele>
        <time>2021-07-30T16:06:29Z</time>
      </trkpt>
      <trkpt lat="42.43257" lon="2.95033">
        <ele>254.76</ele>
        <time>2021-07-30T16:06:23Z</time>
      </trkpt>
      <trkpt lat="42.43269" lon="2.95021">
        <ele>256.12</ele>
        <time>2021-07-30T16:06:21Z</time>
      </trkpt>
      <trkpt lat="42.43296" lon="2.94997">
        <ele>260.41</ele>
        <time>2021-07-30T16:06:16Z</time>
      </trkpt>
      <trkpt lat="42.43304" lon="2.94994">
        <ele>261.17</ele>
        <time>2021-07-30T16:06:15Z</time>
      </trkpt>
      <trkpt lat="42.4336" lon="2.94975">
        <ele>265.69</ele>
        <time>2021-07-30T16:06:09Z</time>
      </trkpt>
      <trkpt lat="42.43373" lon="2.94977">
        <ele>268.3</ele>
        <time>2021-07-30T16:06:06Z</time>
      </trkpt>
      <trkpt lat="42.43418" lon="2.94982">
        <ele>272.74</ele>
        <time>2021-07-30T16:06:00Z</time>
      </trkpt>
      <trkpt lat="42.43423" lon="2.9498">
        <ele>273.65</ele>
        <time>2021-07-30T16:05:59Z</time>
      </trkpt>
      <trkpt lat="42.43447" lon="2.94968">
        <ele>277.99</ele>
        <time>2021-07-30T16:05:54Z</time>
      </trkpt>
      <trkpt lat="42.43486" lon="2.94962">
        <ele>282.73</ele>
        <time>2021-07-30T16:05:49Z</time>
      </trkpt>
      <trkpt lat="42.43516" lon="2.94975">
        <ele>287.4</ele>
        <time>2021-07-30T16:05:44Z</time>
      </trkpt>
      <trkpt lat="42.43529" lon="2.94987">
        <ele>289.04</ele>
        <time>2021-07-30T16:05:42Z</time>
      </trkpt>
      <trkpt lat="42.43553" lon="2.9501">
        <ele>292.74</ele>
        <time>2021-07-30T16:05:38Z</time>
      </trkpt>
      <trkpt lat="42.4358" lon="2.95024">
        <ele>296.93</ele>
        <time>2021-07-30T16:05:34Z</time>
      </trkpt>
      <trkpt lat="42.43589" lon="2.95024">
        <ele>297.74</ele>
        <time>2021-07-30T16:05:33Z</time>
      </trkpt>
      <trkpt lat="42.43644" lon="2.95013">
        <ele>301.87</ele>
        <time>2021-07-30T16:05:27Z</time>
      </trkpt>
      <trkpt lat="42.43667" lon="2.94995">
        <ele>304.04</ele>
        <time>2021-07-30T16:05:24Z</time>
      </trkpt>
      <trkpt lat="42.43692" lon="2.94983">
        <ele>306.16</ele>
        <time>2021-07-30T16:05:21Z</time>
      </trkpt>
      <trkpt lat="42.4371" lon="2.94999">
        <ele>309.43</ele>
        <time>2021-07-30T16:05:17Z</time>
      </trkpt>
      <trkpt lat="42.43712" lon="2.95036">
        <ele>313.18</ele>
        <time>2021-07-30T16:05:13Z</time>
      </trkpt>
      <trkpt lat="42.43743" lon="2.95035">
        <ele>316.31</ele>
        <time>2021-07-30T16:05:09Z</time>
      </trkpt>
      <trkpt lat="42.43788" lon="2.95011">
        <ele>320.51</ele>
        <time>2021-07-30T16:05:03Z</time>
      </trkpt>
      <trkpt lat="42.43818" lon="2.94996">
        <ele>323.8</ele>
        <time>2021-07-30T16:04:59Z</time>
      </trkpt>
      <trkpt lat="42.43823" lon="2.94994">
        <ele>324.79</ele>
        <time>2021-07-30T16:04:58Z</time>
      </trkpt>
      <trkpt lat="42.43856" lon="2.95001">
        <ele>328.32</ele>
        <time>2021-07-30T16:04:53Z</time>
      </trkpt>
      <trkpt lat="42.43867" lon="2.95057">
        <ele>333.47</ele>
        <time>2021-07-30T16:04:46Z</time>
      </trkpt>
      <trkpt lat="42.43866" lon="2.9507">
        <ele>334.32</ele>
        <time>2021-07-30T16:04:45Z</time>
      </trkpt>
      <trkpt lat="42.43875" lon="2.95104">
        <ele>337.8</ele>
        <time>2021-07-30T16:04:41Z</time>
      </trkpt>
      <trkpt lat="42.43913" lon="2.95128">
        <ele>343.33</ele>
        <time>2021-07-30T16:04:35Z</time>
      </trkpt>
      <trkpt lat="42.43948" lon="2.95143">
        <ele>347.52</ele>
        <time>2021-07-30T16:04:30Z</time>
      </trkpt>
      <trkpt lat="42.43964" lon="2.95159">
        <ele>349.9</ele>
        <time>2021-07-30T16:04:27Z</time>
      </trkpt>
      <trkpt lat="42.43971" lon="2.95168">
        <ele>351.63</ele>
        <time>2021-07-30T16:04:25Z</time>
      </trkpt>
      <trkpt lat="42.43992" lon="2.95191">
        <ele>356.14</ele>
        <time>2021-07-30T16:04:20Z</time>
      </trkpt>
      <trkpt lat="42.44022" lon="2.9521">
        <ele>359.9</ele>
        <time>2021-07-30T16:04:15Z</time>
      </trkpt>
      <trkpt lat="42.4403" lon="2.95217">
        <ele>361.56</ele>
        <time>2021-07-30T16:04:13Z</time>
      </trkpt>
      <trkpt lat="42.44054" lon="2.95258">
        <ele>365.47</ele>
        <time>2021-07-30T16:04:08Z</time>
      </trkpt>
      <trkpt lat="42.44071" lon="2.95286">
        <ele>368.36</ele>
        <time>2021-07-30T16:04:04Z</time>
      </trkpt>
      <trkpt lat="42.44106" lon="2.9531">
        <ele>372.7</ele>
        <time>2021-07-30T16:03:58Z</time>
      </trkpt>
      <trkpt lat="42.44114" lon="2.95312">
        <ele>375.3</ele>
        <time>2021-07-30T16:03:56Z</time>
      </trkpt>
      <trkpt lat="42.44137" lon="2.95302">
        <ele>378.49</ele>
        <time>2021-07-30T16:03:52Z</time>
      </trkpt>
      <trkpt lat="42.44164" lon="2.95261">
        <ele>382.81</ele>
        <time>2021-07-30T16:03:46Z</time>
      </trkpt>
      <trkpt lat="42.44165" lon="2.95248">
        <ele>384.2</ele>
        <time>2021-07-30T16:03:44Z</time>
      </trkpt>
      <trkpt lat="42.44175" lon="2.95216">
        <ele>386.02</ele>
        <time>2021-07-30T16:03:41Z</time>
      </trkpt>
      <trkpt lat="42.44192" lon="2.95161">
        <ele>389.49</ele>
        <time>2021-07-30T16:03:35Z</time>
      </trkpt>
      <trkpt lat="42.44197" lon="2.95131">
        <ele>390.05</ele>
        <time>2021-07-30T16:03:33Z</time>
      </trkpt>
      <trkpt lat="42.44219" lon="2.95055">
        <ele>391.79</ele>
        <time>2021-07-30T16:03:26Z</time>
      </trkpt>
      <trkpt lat="42.4426" lon="2.94995">
        <ele>392.67</ele>
        <time>2021-07-30T16:03:19Z</time>
      </trkpt>
      <trkpt lat="42.44331" lon="2.94927">
        <ele>389.58</ele>
        <time>2021-07-30T16:03:12Z</time>
      </trkpt>
      <trkpt lat="42.44426" lon="2.94822">
        <ele>386</ele>
        <time>2021-07-30T16:03:01Z</time>
      </trkpt>
      <trkpt lat="42.44433" lon="2.94814">
        <ele>386.13</ele>
        <time>2021-07-30T16:03:00Z</time>
      </trkpt>
      <trkpt lat="42.44441" lon="2.94752">
        <ele>388.56</ele>
        <time>2021-07-30T16:02:53Z</time>
      </trkpt>
      <trkpt lat="42.44434" lon="2.94741">
        <ele>389.59</ele>
        <time>2021-07-30T16:02:51Z</time>
      </trkpt>
      <trkpt lat="42.4441" lon="2.94706">
        <ele>393.2</ele>
        <time>2021-07-30T16:02:44Z</time>
      </trkpt>
      <trkpt lat="42.44385" lon="2.94619">
        <ele>395.55</ele>
        <time>2021-07-30T16:02:34Z</time>
      </trkpt>
      <trkpt lat="42.44385" lon="2.94581">
        <ele>395.7</ele>
        <time>2021-07-30T16:02:31Z</time>
      </trkpt>
      <trkpt lat="42.44373" lon="2.94535">
        <ele>396.12</ele>
        <time>2021-07-30T16:02:26Z</time>
      </trkpt>
      <trkpt lat="42.44363" lon="2.94523">
        <ele>396.29</ele>
        <time>2021-07-30T16:02:24Z</time>
      </trkpt>
      <trkpt lat="42.44344" lon="2.94494">
        <ele>396.86</ele>
        <time>2021-07-30T16:02:20Z</time>
      </trkpt>
      <trkpt lat="42.44327" lon="2.94427">
        <ele>398.64</ele>
        <time>2021-07-30T16:02:14Z</time>
      </trkpt>
      <trkpt lat="42.4433" lon="2.94382">
        <ele>399.17</ele>
        <time>2021-07-30T16:02:10Z</time>
      </trkpt>
      <trkpt lat="42.44407" lon="2.94263">
        <ele>398.12</ele>
        <time>2021-07-30T16:02:00Z</time>
      </trkpt>
      <trkpt lat="42.44472" lon="2.94214">
        <ele>396.09</ele>
        <time>2021-07-30T16:01:53Z</time>
      </trkpt>
      <trkpt lat="42.44505" lon="2.94189">
        <ele>394.88</ele>
        <time>2021-07-30T16:01:49Z</time>
      </trkpt>
      <trkpt lat="42.4453" lon="2.9415">
        <ele>393.81</ele>
        <time>2021-07-30T16:01:45Z</time>
      </trkpt>
      <trkpt lat="42.44561" lon="2.94124">
        <ele>392.78</ele>
        <time>2021-07-30T16:01:41Z</time>
      </trkpt>
      <trkpt lat="42.44654" lon="2.94096">
        <ele>392.04</ele>
        <time>2021-07-30T16:01:30Z</time>
      </trkpt>
      <trkpt lat="42.44693" lon="2.94103">
        <ele>392.83</ele>
        <time>2021-07-30T16:01:25Z</time>
      </trkpt>
      <trkpt lat="42.44774" lon="2.94139">
        <ele>392.95</ele>
        <time>2021-07-30T16:01:15Z</time>
      </trkpt>
      <trkpt lat="42.44798" lon="2.94141">
        <ele>392.97</ele>
        <time>2021-07-30T16:01:12Z</time>
      </trkpt>
      <trkpt lat="42.44818" lon="2.94106">
        <ele>392.98</ele>
        <time>2021-07-30T16:01:06Z</time>
      </trkpt>
      <trkpt lat="42.4478" lon="2.94055">
        <ele>392.3</ele>
        <time>2021-07-30T16:01:00Z</time>
      </trkpt>
      <trkpt lat="42.44725" lon="2.94011">
        <ele>391.47</ele>
        <time>2021-07-30T16:00:54Z</time>
      </trkpt>
      <trkpt lat="42.44613" lon="2.93949">
        <ele>390</ele>
        <time>2021-07-30T16:00:43Z</time>
      </trkpt>
      <trkpt lat="42.44551" lon="2.93927">
        <ele>388.95</ele>
        <time>2021-07-30T16:00:37Z</time>
      </trkpt>
      <trkpt lat="42.44532" lon="2.93914">
        <ele>388.8</ele>
        <time>2021-07-30T16:00:35Z</time>
      </trkpt>
      <trkpt lat="42.44506" lon="2.93902">
        <ele>389.13</ele>
        <time>2021-07-30T16:00:31Z</time>
      </trkpt>
      <trkpt lat="42.44488" lon="2.93964">
        <ele>389.76</ele>
        <time>2021-07-30T16:00:24Z</time>
      </trkpt>
      <trkpt lat="42.44473" lon="2.93979">
        <ele>389.94</ele>
        <time>2021-07-30T16:00:22Z</time>
      </trkpt>
      <trkpt lat="42.44418" lon="2.94006">
        <ele>390.1</ele>
        <time>2021-07-30T16:00:15Z</time>
      </trkpt>
      <trkpt lat="42.44402" lon="2.93997">
        <ele>390.06</ele>
        <time>2021-07-30T16:00:13Z</time>
      </trkpt>
      <trkpt lat="42.44368" lon="2.93964">
        <ele>389.88</ele>
        <time>2021-07-30T16:00:08Z</time>
      </trkpt>
      <trkpt lat="42.44336" lon="2.93881">
        <ele>389.76</ele>
        <time>2021-07-30T16:00:01Z</time>
      </trkpt>
      <trkpt lat="42.443" lon="2.93805">
        <ele>389.49</ele>
        <time>2021-07-30T15:59:54Z</time>
      </trkpt>
      <trkpt lat="42.44281" lon="2.93757">
        <ele>389.43</ele>
        <time>2021-07-30T15:59:50Z</time>
      </trkpt>
      <trkpt lat="42.44257" lon="2.93697">
        <ele>389.71</ele>
        <time>2021-07-30T15:59:44Z</time>
      </trkpt>
      <trkpt lat="42.44223" lon="2.93655">
        <ele>390.38</ele>
        <time>2021-07-30T15:59:38Z</time>
      </trkpt>
      <trkpt lat="42.44216" lon="2.93652">
        <ele>390.43</ele>
        <time>2021-07-30T15:59:37Z</time>
      </trkpt>
      <trkpt lat="42.44184" lon="2.93597">
        <ele>390.18</ele>
        <time>2021-07-30T15:59:29Z</time>
      </trkpt>
      <trkpt lat="42.44194" lon="2.93554">
        <ele>389.36</ele>
        <time>2021-07-30T15:59:25Z</time>
      </trkpt>
      <trkpt lat="42.44199" lon="2.93532">
        <ele>388.8</ele>
        <time>2021-07-30T15:59:23Z</time>
      </trkpt>
      <trkpt lat="42.4418" lon="2.93488">
        <ele>388.17</ele>
        <time>2021-07-30T15:59:18Z</time>
      </trkpt>
      <trkpt lat="42.44147" lon="2.93532">
        <ele>386.57</ele>
        <time>2021-07-30T15:59:11Z</time>
      </trkpt>
      <trkpt lat="42.4412" lon="2.93552">
        <ele>385.69</ele>
        <time>2021-07-30T15:59:07Z</time>
      </trkpt>
      <trkpt lat="42.44092" lon="2.93568">
        <ele>385.05</ele>
        <time>2021-07-30T15:59:03Z</time>
      </trkpt>
      <trkpt lat="42.44041" lon="2.93575">
        <ele>384.62</ele>
        <time>2021-07-30T15:58:57Z</time>
      </trkpt>
      <trkpt lat="42.43972" lon="2.93635">
        <ele>385.56</ele>
        <time>2021-07-30T15:58:49Z</time>
      </trkpt>
      <trkpt lat="42.43936" lon="2.93694">
        <ele>385.85</ele>
        <time>2021-07-30T15:58:44Z</time>
      </trkpt>
      <trkpt lat="42.43922" lon="2.9371">
        <ele>385.95</ele>
        <time>2021-07-30T15:58:42Z</time>
      </trkpt>
      <trkpt lat="42.43903" lon="2.9375">
        <ele>386.02</ele>
        <time>2021-07-30T15:58:38Z</time>
      </trkpt>
      <trkpt lat="42.43901" lon="2.93777">
        <ele>386.02</ele>
        <time>2021-07-30T15:58:36Z</time>
      </trkpt>
      <trkpt lat="42.43888" lon="2.93826">
        <ele>385.98</ele>
        <time>2021-07-30T15:58:31Z</time>
      </trkpt>
      <trkpt lat="42.43862" lon="2.93851">
        <ele>386.04</ele>
        <time>2021-07-30T15:58:27Z</time>
      </trkpt>
      <trkpt lat="42.43827" lon="2.93875">
        <ele>386.35</ele>
        <time>2021-07-30T15:58:22Z</time>
      </trkpt>
      <trkpt lat="42.43795" lon="2.93955">
        <ele>387.07</ele>
        <time>2021-07-30T15:58:14Z</time>
      </trkpt>
      <trkpt lat="42.43737" lon="2.93984">
        <ele>388.06</ele>
        <time>2021-07-30T15:58:07Z</time>
      </trkpt>
      <trkpt lat="42.43717" lon="2.93976">
        <ele>388.4</ele>
        <time>2021-07-30T15:58:05Z</time>
      </trkpt>
      <trkpt lat="42.43682" lon="2.93989">
        <ele>389.41</ele>
        <time>2021-07-30T15:58:00Z</time>
      </trkpt>
      <trkpt lat="42.43659" lon="2.94061">
        <ele>389.79</ele>
        <time>2021-07-30T15:57:55Z</time>
      </trkpt>
      <trkpt lat="42.43611" lon="2.94165">
        <ele>388.51</ele>
        <time>2021-07-30T15:57:46Z</time>
      </trkpt>
      <trkpt lat="42.43604" lon="2.94194">
        <ele>388.04</ele>
        <time>2021-07-30T15:57:43Z</time>
      </trkpt>
      <trkpt lat="42.43583" lon="2.94223">
        <ele>387.28</ele>
        <time>2021-07-30T15:57:38Z</time>
      </trkpt>
      <trkpt lat="42.43549" lon="2.94227">
        <ele>386.72</ele>
        <time>2021-07-30T15:57:34Z</time>
      </trkpt>
      <trkpt lat="42.43518" lon="2.94218">
        <ele>385.91</ele>
        <time>2021-07-30T15:57:30Z</time>
      </trkpt>
      <trkpt lat="42.43472" lon="2.94164">
        <ele>384.8</ele>
        <time>2021-07-30T15:57:24Z</time>
      </trkpt>
      <trkpt lat="42.43449" lon="2.94149">
        <ele>384.56</ele>
        <time>2021-07-30T15:57:20Z</time>
      </trkpt>
      <trkpt lat="42.43426" lon="2.94156">
        <ele>384.19</ele>
        <time>2021-07-30T15:57:14Z</time>
      </trkpt>
      <trkpt lat="42.4342" lon="2.94158">
        <ele>384.13</ele>
        <time>2021-07-30T15:57:13Z</time>
      </trkpt>
      <trkpt lat="42.4338" lon="2.94134">
        <ele>383.38</ele>
        <time>2021-07-30T15:57:05Z</time>
      </trkpt>
      <trkpt lat="42.4334" lon="2.94141">
        <ele>382.8</ele>
        <time>2021-07-30T15:56:58Z</time>
      </trkpt>
      <trkpt lat="42.43256" lon="2.94157">
        <ele>381.39</ele>
        <time>2021-07-30T15:56:47Z</time>
      </trkpt>
      <trkpt lat="42.43221" lon="2.94157">
        <ele>381.01</ele>
        <time>2021-07-30T15:56:43Z</time>
      </trkpt>
      <trkpt lat="42.43205" lon="2.94159">
        <ele>380.86</ele>
        <time>2021-07-30T15:56:41Z</time>
      </trkpt>
      <trkpt lat="42.4319" lon="2.9416">
        <ele>380.82</ele>
        <time>2021-07-30T15:56:38Z</time>
      </trkpt>
      <trkpt lat="42.43184" lon="2.94161">
        <ele>380.55</ele>
        <time>2021-07-30T15:56:17Z</time>
      </trkpt>
      <trkpt lat="42.43177" lon="2.94163">
        <ele>380.36</ele>
        <time>2021-07-30T15:56:05Z</time>
      </trkpt>
      <trkpt lat="42.43166" lon="2.94168">
        <ele>380.06</ele>
        <time>2021-07-30T15:55:46Z</time>
      </trkpt>
      <trkpt lat="42.43166" lon="2.94168">
        <ele>378.85</ele>
        <time>2021-07-30T15:55:30Z</time>
      </trkpt>
      <trkpt lat="42.43149" lon="2.94149">
        <ele>377.22</ele>
        <time>2021-07-30T15:55:22Z</time>
      </trkpt>
      <trkpt lat="42.43131" lon="2.9405">
        <ele>374.98</ele>
        <time>2021-07-30T15:55:12Z</time>
      </trkpt>
      <trkpt lat="42.43129" lon="2.9401">
        <ele>373.9</ele>
        <time>2021-07-30T15:55:08Z</time>
      </trkpt>
      <trkpt lat="42.43131" lon="2.9399">
        <ele>373.39</ele>
        <time>2021-07-30T15:55:06Z</time>
      </trkpt>
      <trkpt lat="42.43146" lon="2.93961">
        <ele>372.03</ele>
        <time>2021-07-30T15:55:01Z</time>
      </trkpt>
      <trkpt lat="42.43184" lon="2.93939">
        <ele>370.54</ele>
        <time>2021-07-30T15:54:56Z</time>
      </trkpt>
      <trkpt lat="42.43215" lon="2.93931">
        <ele>368.99</ele>
        <time>2021-07-30T15:54:52Z</time>
      </trkpt>
      <trkpt lat="42.43258" lon="2.93928">
        <ele>367.45</ele>
        <time>2021-07-30T15:54:47Z</time>
      </trkpt>
      <trkpt lat="42.43293" lon="2.93866">
        <ele>365.27</ele>
        <time>2021-07-30T15:54:40Z</time>
      </trkpt>
      <trkpt lat="42.43311" lon="2.93828">
        <ele>363.43</ele>
        <time>2021-07-30T15:54:35Z</time>
      </trkpt>
      <trkpt lat="42.43316" lon="2.93794">
        <ele>362.04</ele>
        <time>2021-07-30T15:54:30Z</time>
      </trkpt>
      <trkpt lat="42.43305" lon="2.93749">
        <ele>360.36</ele>
        <time>2021-07-30T15:54:25Z</time>
      </trkpt>
      <trkpt lat="42.43308" lon="2.93728">
        <ele>359.54</ele>
        <time>2021-07-30T15:54:23Z</time>
      </trkpt>
      <trkpt lat="42.4331" lon="2.93718">
        <ele>359.21</ele>
        <time>2021-07-30T15:54:22Z</time>
      </trkpt>
      <trkpt lat="42.43278" lon="2.93708">
        <ele>356.86</ele>
        <time>2021-07-30T15:54:15Z</time>
      </trkpt>
      <trkpt lat="42.4324" lon="2.9374">
        <ele>355.41</ele>
        <time>2021-07-30T15:54:10Z</time>
      </trkpt>
      <trkpt lat="42.43213" lon="2.93734">
        <ele>354.01</ele>
        <time>2021-07-30T15:54:05Z</time>
      </trkpt>
      <trkpt lat="42.43191" lon="2.93698">
        <ele>352.37</ele>
        <time>2021-07-30T15:54:01Z</time>
      </trkpt>
      <trkpt lat="42.43175" lon="2.93653">
        <ele>350.49</ele>
        <time>2021-07-30T15:53:57Z</time>
      </trkpt>
      <trkpt lat="42.43134" lon="2.93613">
        <ele>348.84</ele>
        <time>2021-07-30T15:53:49Z</time>
      </trkpt>
      <trkpt lat="42.43097" lon="2.93583">
        <ele>346.09</ele>
        <time>2021-07-30T15:53:40Z</time>
      </trkpt>
      <trkpt lat="42.4309" lon="2.93537">
        <ele>344.89</ele>
        <time>2021-07-30T15:53:36Z</time>
      </trkpt>
      <trkpt lat="42.43073" lon="2.93491">
        <ele>343.64</ele>
        <time>2021-07-30T15:53:31Z</time>
      </trkpt>
      <trkpt lat="42.43051" lon="2.93464">
        <ele>342.58</ele>
        <time>2021-07-30T15:53:27Z</time>
      </trkpt>
      <trkpt lat="42.4304" lon="2.93435">
        <ele>341.28</ele>
        <time>2021-07-30T15:53:23Z</time>
      </trkpt>
      <trkpt lat="42.43005" lon="2.9337">
        <ele>338.57</ele>
        <time>2021-07-30T15:53:14Z</time>
      </trkpt>
      <trkpt lat="42.42976" lon="2.93343">
        <ele>337.27</ele>
        <time>2021-07-30T15:53:10Z</time>
      </trkpt>
      <trkpt lat="42.42967" lon="2.93326">
        <ele>336.6</ele>
        <time>2021-07-30T15:53:08Z</time>
      </trkpt>
      <trkpt lat="42.42963" lon="2.93319">
        <ele>336.22</ele>
        <time>2021-07-30T15:53:07Z</time>
      </trkpt>
      <trkpt lat="42.42962" lon="2.93251">
        <ele>333.03</ele>
        <time>2021-07-30T15:53:00Z</time>
      </trkpt>
      <trkpt lat="42.42969" lon="2.93209">
        <ele>331.82</ele>
        <time>2021-07-30T15:52:56Z</time>
      </trkpt>
      <trkpt lat="42.42935" lon="2.93153">
        <ele>328.99</ele>
        <time>2021-07-30T15:52:49Z</time>
      </trkpt>
      <trkpt lat="42.42932" lon="2.93133">
        <ele>328.01</ele>
        <time>2021-07-30T15:52:47Z</time>
      </trkpt>
      <trkpt lat="42.4293" lon="2.93096">
        <ele>325.88</ele>
        <time>2021-07-30T15:52:43Z</time>
      </trkpt>
      <trkpt lat="42.42953" lon="2.93062">
        <ele>323.56</ele>
        <time>2021-07-30T15:52:37Z</time>
      </trkpt>
      <trkpt lat="42.4295" lon="2.93045">
        <ele>322.77</ele>
        <time>2021-07-30T15:52:35Z</time>
      </trkpt>
      <trkpt lat="42.42941" lon="2.93031">
        <ele>321.22</ele>
        <time>2021-07-30T15:52:30Z</time>
      </trkpt>
      <trkpt lat="42.42941" lon="2.93043">
        <ele>320.35</ele>
        <time>2021-07-30T15:52:28Z</time>
      </trkpt>
      <trkpt lat="42.42933" lon="2.9304">
        <ele>316.98</ele>
        <time>2021-07-30T15:52:21Z</time>
      </trkpt>
      <trkpt lat="42.42928" lon="2.93007">
        <ele>313.41</ele>
        <time>2021-07-30T15:52:17Z</time>
      </trkpt>
      <trkpt lat="42.4291" lon="2.92965">
        <ele>309.16</ele>
        <time>2021-07-30T15:52:12Z</time>
      </trkpt>
      <trkpt lat="42.42915" lon="2.92919">
        <ele>304.32</ele>
        <time>2021-07-30T15:52:06Z</time>
      </trkpt>
      <trkpt lat="42.42923" lon="2.92907">
        <ele>302.75</ele>
        <time>2021-07-30T15:52:04Z</time>
      </trkpt>
      <trkpt lat="42.42931" lon="2.92872">
        <ele>298.06</ele>
        <time>2021-07-30T15:51:59Z</time>
      </trkpt>
      <trkpt lat="42.42931" lon="2.92849">
        <ele>294.76</ele>
        <time>2021-07-30T15:51:56Z</time>
      </trkpt>
      <trkpt lat="42.4293" lon="2.92838">
        <ele>293.74</ele>
        <time>2021-07-30T15:51:55Z</time>
      </trkpt>
      <trkpt lat="42.42916" lon="2.92786">
        <ele>288.88</ele>
        <time>2021-07-30T15:51:50Z</time>
      </trkpt>
      <trkpt lat="42.42899" lon="2.92761">
        <ele>286.08</ele>
        <time>2021-07-30T15:51:47Z</time>
      </trkpt>
      <trkpt lat="42.42885" lon="2.92745">
        <ele>284.42</ele>
        <time>2021-07-30T15:51:45Z</time>
      </trkpt>
      <trkpt lat="42.42847" lon="2.92744">
        <ele>279.77</ele>
        <time>2021-07-30T15:51:40Z</time>
      </trkpt>
      <trkpt lat="42.42828" lon="2.92769">
        <ele>276.59</ele>
        <time>2021-07-30T15:51:36Z</time>
      </trkpt>
      <trkpt lat="42.42801" lon="2.92795">
        <ele>272.68</ele>
        <time>2021-07-30T15:51:31Z</time>
      </trkpt>
      <trkpt lat="42.42764" lon="2.92835">
        <ele>269.59</ele>
        <time>2021-07-30T15:51:25Z</time>
      </trkpt>
      <trkpt lat="42.42736" lon="2.92868">
        <ele>265.85</ele>
        <time>2021-07-30T15:51:17Z</time>
      </trkpt>
      <trkpt lat="42.42722" lon="2.92895">
        <ele>263.75</ele>
        <time>2021-07-30T15:51:13Z</time>
      </trkpt>
      <trkpt lat="42.42716" lon="2.92916">
        <ele>262.09</ele>
        <time>2021-07-30T15:51:10Z</time>
      </trkpt>
      <trkpt lat="42.42711" lon="2.92933">
        <ele>260.87</ele>
        <time>2021-07-30T15:51:08Z</time>
      </trkpt>
      <trkpt lat="42.4269" lon="2.92912">
        <ele>259.06</ele>
        <time>2021-07-30T15:51:02Z</time>
      </trkpt>
      <trkpt lat="42.42695" lon="2.92866">
        <ele>258.2</ele>
        <time>2021-07-30T15:50:58Z</time>
      </trkpt>
      <trkpt lat="42.42699" lon="2.92856">
        <ele>257.93</ele>
        <time>2021-07-30T15:50:57Z</time>
      </trkpt>
      <trkpt lat="42.42728" lon="2.92787">
        <ele>255.42</ele>
        <time>2021-07-30T15:50:50Z</time>
      </trkpt>
      <trkpt lat="42.42753" lon="2.92718">
        <ele>251.91</ele>
        <time>2021-07-30T15:50:44Z</time>
      </trkpt>
      <trkpt lat="42.42768" lon="2.92675">
        <ele>248.71</ele>
        <time>2021-07-30T15:50:39Z</time>
      </trkpt>
      <trkpt lat="42.42781" lon="2.92637">
        <ele>245.37</ele>
        <time>2021-07-30T15:50:35Z</time>
      </trkpt>
      <trkpt lat="42.428" lon="2.92585">
        <ele>241.77</ele>
        <time>2021-07-30T15:50:29Z</time>
      </trkpt>
      <trkpt lat="42.42806" lon="2.92562">
        <ele>240.27</ele>
        <time>2021-07-30T15:50:26Z</time>
      </trkpt>
      <trkpt lat="42.4281" lon="2.92522">
        <ele>236.57</ele>
        <time>2021-07-30T15:50:20Z</time>
      </trkpt>
      <trkpt lat="42.42811" lon="2.925">
        <ele>235.52</ele>
        <time>2021-07-30T15:50:18Z</time>
      </trkpt>
      <trkpt lat="42.42789" lon="2.92476">
        <ele>231.18</ele>
        <time>2021-07-30T15:50:12Z</time>
      </trkpt>
      <trkpt lat="42.42785" lon="2.92478">
        <ele>230.42</ele>
        <time>2021-07-30T15:50:11Z</time>
      </trkpt>
      <trkpt lat="42.42755" lon="2.92487">
        <ele>226.67</ele>
        <time>2021-07-30T15:50:06Z</time>
      </trkpt>
      <trkpt lat="42.42725" lon="2.92495">
        <ele>223.4</ele>
        <time>2021-07-30T15:50:01Z</time>
      </trkpt>
      <trkpt lat="42.42684" lon="2.92502">
        <ele>220.33</ele>
        <time>2021-07-30T15:49:52Z</time>
      </trkpt>
      <trkpt lat="42.42651" lon="2.92509">
        <ele>218.99</ele>
        <time>2021-07-30T15:49:40Z</time>
      </trkpt>
      <trkpt lat="42.42643" lon="2.92513">
        <ele>217.83</ele>
        <time>2021-07-30T15:49:27Z</time>
      </trkpt>
      <trkpt lat="42.42636" lon="2.9252">
        <ele>220.06</ele>
        <time>2021-07-30T15:46:58Z</time>
      </trkpt>
      <trkpt lat="42.42636" lon="2.9252">
        <ele>217.36</ele>
        <time>2021-07-30T15:46:01Z</time>
      </trkpt>
      <trkpt lat="42.42634" lon="2.92524">
        <ele>213.85</ele>
        <time>2021-07-30T15:45:48Z</time>
      </trkpt>
      <trkpt lat="42.42611" lon="2.92541">
        <ele>210.83</ele>
        <time>2021-07-30T15:45:42Z</time>
      </trkpt>
      <trkpt lat="42.42604" lon="2.92541">
        <ele>210.42</ele>
        <time>2021-07-30T15:45:41Z</time>
      </trkpt>
      <trkpt lat="42.42544" lon="2.92551">
        <ele>207.1</ele>
        <time>2021-07-30T15:45:30Z</time>
      </trkpt>
      <trkpt lat="42.42526" lon="2.92549">
        <ele>206.69</ele>
        <time>2021-07-30T15:45:26Z</time>
      </trkpt>
      <trkpt lat="42.42503" lon="2.92546">
        <ele>206.19</ele>
        <time>2021-07-30T15:45:06Z</time>
      </trkpt>
      <trkpt lat="42.42485" lon="2.92555">
        <ele>204.6</ele>
        <time>2021-07-30T15:44:54Z</time>
      </trkpt>
      <trkpt lat="42.42445" lon="2.92588">
        <ele>202.81</ele>
        <time>2021-07-30T15:44:40Z</time>
      </trkpt>
      <trkpt lat="42.42412" lon="2.92627">
        <ele>201.86</ele>
        <time>2021-07-30T15:44:29Z</time>
      </trkpt>
      <trkpt lat="42.42404" lon="2.92636">
        <ele>200.5</ele>
        <time>2021-07-30T15:44:20Z</time>
      </trkpt>
      <trkpt lat="42.42383" lon="2.92649">
        <ele>199.86</ele>
        <time>2021-07-30T15:44:15Z</time>
      </trkpt>
      <trkpt lat="42.42362" lon="2.92649">
        <ele>199.19</ele>
        <time>2021-07-30T15:44:11Z</time>
      </trkpt>
      <trkpt lat="42.42333" lon="2.9266">
        <ele>198.56</ele>
        <time>2021-07-30T15:44:07Z</time>
      </trkpt>
      <trkpt lat="42.42278" lon="2.92677">
        <ele>197.87</ele>
        <time>2021-07-30T15:43:56Z</time>
      </trkpt>
      <trkpt lat="42.42271" lon="2.92681">
        <ele>197.82</ele>
        <time>2021-07-30T15:43:52Z</time>
      </trkpt>
      <trkpt lat="42.42268" lon="2.92683">
        <ele>198.22</ele>
        <time>2021-07-30T15:43:24Z</time>
      </trkpt>
      <trkpt lat="42.42268" lon="2.92684">
        <ele>198.01</ele>
        <time>2021-07-30T15:41:51Z</time>
      </trkpt>
      <trkpt lat="42.42267" lon="2.92685">
        <ele>199.43</ele>
        <time>2021-07-30T15:41:07Z</time>
      </trkpt>
      <trkpt lat="42.42262" lon="2.92684">
        <ele>201.39</ele>
        <time>2021-07-30T15:40:57Z</time>
      </trkpt>
      <trkpt lat="42.42261" lon="2.92685">
        <ele>201.39</ele>
        <time>2021-07-30T15:40:49Z</time>
      </trkpt>
      <trkpt lat="42.42262" lon="2.92684">
        <ele>201.39</ele>
        <time>2021-07-30T15:40:17Z</time>
      </trkpt>
      <trkpt lat="42.42263" lon="2.92685">
        <ele>201.39</ele>
        <time>2021-07-30T15:39:42Z</time>
      </trkpt>
      <trkpt lat="42.42264" lon="2.92685">
        <ele>201.12</ele>
        <time>2021-07-30T15:39:23Z</time>
      </trkpt>
      <trkpt lat="42.42264" lon="2.92686">
        <ele>202.02</ele>
        <time>2021-07-30T15:38:50Z</time>
      </trkpt>
      <trkpt lat="42.42265" lon="2.92682">
        <ele>201.78</ele>
        <time>2021-07-30T15:38:33Z</time>
      </trkpt>
      <trkpt lat="42.42266" lon="2.92679">
        <ele>200.85</ele>
        <time>2021-07-30T15:38:24Z</time>
      </trkpt>
      <trkpt lat="42.42265" lon="2.92679">
        <ele>198.88</ele>
        <time>2021-07-30T15:37:29Z</time>
      </trkpt>
      <trkpt lat="42.42266" lon="2.92684">
        <ele>198.35</ele>
        <time>2021-07-30T15:37:11Z</time>
      </trkpt>
      <trkpt lat="42.42267" lon="2.92684">
        <ele>198.56</ele>
        <time>2021-07-30T15:36:57Z</time>
      </trkpt>
      <trkpt lat="42.42267" lon="2.92685">
        <ele>200.15</ele>
        <time>2021-07-30T15:36:25Z</time>
      </trkpt>
      <trkpt lat="42.42279" lon="2.92685">
        <ele>200.13</ele>
        <time>2021-07-30T15:36:06Z</time>
      </trkpt>
      <trkpt lat="42.42279" lon="2.92684">
        <ele>200.21</ele>
        <time>2021-07-30T15:36:03Z</time>
      </trkpt>
      <trkpt lat="42.42275" lon="2.92685">
        <ele>201.18</ele>
        <time>2021-07-30T15:35:33Z</time>
      </trkpt>
      <trkpt lat="42.42276" lon="2.92684">
        <ele>198.89</ele>
        <time>2021-07-30T15:34:29Z</time>
      </trkpt>
      <trkpt lat="42.42276" lon="2.92684">
        <ele>198.76</ele>
        <time>2021-07-30T15:34:24Z</time>
      </trkpt>
      <trkpt lat="42.42276" lon="2.92684">
        <ele>198.75</ele>
        <time>2021-07-30T15:34:23Z</time>
      </trkpt>
      <trkpt lat="42.42276" lon="2.92684">
        <ele>198.75</ele>
        <time>2021-07-30T15:34:23Z</time>
      </trkpt>
    </trkseg>
  </trk>
  <trk>
    <name><![CDATA[4x4 Jour 1_2]]></name>
    <trkseg>
      <trkpt lat="42.36504" lon="2.83981">
        <ele>178.1</ele>
      </trkpt>
      <trkpt lat="42.36504" lon="2.83981">
        <ele>178.1</ele>
      </trkpt>
    </trkseg>
  </trk>
</gpx>